[[{"header":{"parameterUnit":"m.s-1","parameterCategory":1,"la1":30.6,"la2":29.2853,"lo1":-89.7004,"lo2":-87.6739,"dy":0.0162,"dx":0.0183,"nx":112,"ny":82,"refTime":"2023-07-20T00:00:00:Z","depth":0,"parameterNumber":2,"parameterNumberName":"U-component_of_WINDS"},"data":[0.0,0.0,0.0,0.0,0.0,0.0,0.0,0.0,0.0,0.0,0.0,0.0,0.0,0.0,0.0,0.0,0.0,0.0,0.0,0.0,0.0,0.0,0.0,0.0,0.0,0.0,0.0,0.0,0.0,0.0,0.0,0.0,0.0,0.0,0.0,0.0,0.0,0.0,0.0,0.0,0.0,0.0,0.0,0.0,0.0,0.0,0.0,0.0,0.0,0.0,0.0,0.0,0.0,0.0,0.0,0.0,0.0,0.0,0.0,0.0,0.0,0.0,0.0,0.0,0.0,0.0,0.0,0.0,0.0,0.0,0.0,0.0,0.0,0.0,0.0,0.0,0.0,0.0,0.0,0.0,0.0,0.0,0.0,0.0,0.0,0.0,0.0,0.0,0.0,0.0,0.0,-0.0,-0.0,-0.0,-0.0,0.2838,0.1682,-0.5001,0.0,0.0,0.0,0.0,0.0,0.0,0.0,0.0,0.0,0.0,0.0,0.0,0.0,0.0,0.0,0.0,0.0,0.0,0.0,0.0,0.0,0.0,0.0,0.0,0.0,0.0,0.0,0.0,0.0,0.0,0.0,0.0,0.0,0.0,0.0,0.0,0.0,0.0,0.0,0.0,0.0,0.0,0.0,0.0,0.0,0.0,0.0,0.0,0.0,0.0,0.0,0.0,0.0,0.0,0.0,0.0,0.0,0.0,0.0,0.0,0.0,0.0,0.0,0.0,0.0,0.0,0.0,0.0,0.0,0.0,0.0,0.0,0.0,0.0,0.0,0.0,0.0,0.0,0.0,0.0,0.0,0.0,0.0,0.0,0.0,0.0,0.0,0.0,0.0,0.0,0.0,0.0,0.0,0.0,0.0,0.0,0.0,0.0,0.0,0.0,0.0,0.0,0.0,0.0,-0.0,-0.0,-0.0,-0.0,-0.0,0.047,-0.0939,-0.5138,0.0,0.0,0.0,0.0,0.0,0.0,0.0,0.0,0.0,0.0,0.0,0.0,0.0,0.0,0.0,0.0,0.0,0.0,0.0,0.0,0.0,0.0,0.0,0.0,0.0,0.0,0.0,0.0,0.0,0.0,0.0,0.0,0.0,0.0,0.0,0.0,0.0,0.0,0.0,0.0,0.0,0.0,0.0,0.0,0.0,0.0,0.0,0.0,0.0,0.0,0.0,0.0,0.0,0.0,0.0,0.0,0.0,0.0,0.0,0.0,0.0,0.0,0.0,0.0,0.0,0.0,0.0,0.0,0.0,0.0,0.0,0.0,0.0,0.0,0.0,0.0,0.0,0.0,0.0,0.0,0.0,0.0,0.0,0.0,0.0,0.0,0.0,0.0,0.0,0.0,0.0,0.0,0.0,0.0,0.0,0.0,0.0,0.0,0.0,0.0,0.0,0.0,0.0,-0.0,-0.0,-0.0,-0.0,-0.0,-0.0,-0.0,-0.1546,-0.5138,-0.4648,0.0,0.0,0.0,0.0,0.0,0.0,0.0,0.0,0.0,0.0,0.0,0.0,0.0,0.0,0.0,0.0,0.0,0.0,0.0,0.0,0.0,0.0,0.0,0.0,0.0,0.0,0.0,0.0,0.0,0.0,0.0,0.0,0.0,0.0,0.0,0.0,0.0,0.0,0.0,0.0,0.0,0.0,0.0,0.0,0.0,0.0,0.0,0.0,0.0,0.0,0.0,0.0,0.0,0.0,0.0,0.0,0.0,0.0,0.0,0.0,0.0,0.0,0.0,0.0,0.0,0.0,0.0,0.0,0.0,0.0,0.0,0.0,0.0,0.0,0.0,0.0,0.0,0.0,0.0,0.0,0.0,0.0,0.0,0.0,0.0,0.0,0.0,0.0,0.0,0.0,0.0,0.0,0.0,0.0,0.0,0.0,0.0,0.0,0.0,0.0,0.0,0.0,0.0436,-0.0,-0.0,-0.0,-0.0,-0.0,-0.0,-0.136,-0.4631,-0.483,0.0,0.0,0.0,0.0,0.0,0.0,0.0,0.0,0.0,0.0,0.0,0.0,0.0,0.0,0.0,0.0,0.0,0.0,0.0,0.0,0.0,0.0,0.0,0.0,0.0,0.0,0.0,0.0,0.0,0.0,0.0,0.0,0.0,0.0,0.0,0.0,0.0,0.0,0.0,0.0,0.0,0.0,0.0,0.0,0.0,0.0,0.0,0.0,0.0,0.0,0.0,0.0,0.0,0.0,0.0,0.0,0.0,0.0,0.0,0.0,0.0,0.0,0.0,0.0,0.0,0.0,0.0,0.0,0.0,0.0,0.0,0.0,0.0,0.0,0.0,0.0,0.0,0.0,0.0,0.0,0.0,0.0,0.0,0.0,0.0,0.0,0.0,0.0,0.0,0.0,0.0,0.0,0.0,0.0,0.0,0.0,0.0,0.0,0.0,0.0,0.0,0.0,0.174,-0.0,-0.0,-0.0,-0.0,-0.0,-0.0,-0.0908,-0.3136,-0.3063,0.0,0.0,0.0,0.0,0.0,0.0,0.0,0.0,0.0,0.0,0.0,0.0,0.0,0.0,0.0,0.0,0.0,0.0,0.0,0.0,0.0,0.0,0.0,0.0,0.0,0.0,0.0,0.0,0.0,0.0,0.0,0.0,0.0,0.0,0.0,0.0,0.0,0.0,0.0,0.0,0.0,0.0,0.0,0.0,0.0,0.0,0.0,0.0,0.0,0.0,0.0,0.0,0.0,0.0,0.0,0.0,0.0,0.0,0.0,0.0,0.0,0.0,0.0,0.0,0.0,0.0,0.0,0.0,0.0,0.0,0.0,0.0,0.0,0.0,0.0,0.0,0.0,0.0,0.0,0.0,0.0,0.0,0.0,0.0,0.0,0.0,0.0,0.0,0.0,0.0,0.0,0.0,0.0,0.0,0.0,0.0,0.0,0.0,0.0,0.0,0.0,0.0,0.2326,0.2105,0.0,-0.0,-0.0,-0.0,-0.0,-0.1436,-0.4899,0.0,0.0,0.0,0.0,0.0,0.0,0.0,0.0,0.0,0.0,0.0,0.0,0.0,0.0,0.0,0.0,0.0,0.0,0.0,0.0,0.0,0.0,0.0,0.0,0.0,0.0,0.0,0.0,0.0,0.0,0.0,0.0,0.0,0.0,0.0,0.0,0.0,0.0,0.0,0.0,0.0,0.0,0.0,0.0,0.0,0.0,0.0,0.0,0.0,0.0,0.0,0.0,0.0,0.0,0.0,0.0,0.0,0.0,0.0,0.0,0.0,0.0,0.0,0.0,0.0,0.0,0.0,0.0,0.0,0.0,0.0,0.0,0.0,0.0,0.0,0.0,0.0,0.0,0.0,0.0,0.0,0.0,0.0,0.0,0.0,0.0,0.0,0.0,0.0,0.0,0.0,0.0,0.0,0.0,0.0,0.0,0.0,0.0,0.0,0.0,0.0,0.0,-0.0,0.1805,0.2251,0.0,-0.0,-0.0,-0.0,-0.0,-0.1254,-0.4139,0.0,0.0,0.0,0.0,0.0,0.0,0.0,0.0,0.0,0.0,0.0,0.0,0.0,0.0,0.0,0.0,0.0,0.0,0.0,0.0,0.0,0.0,0.0,0.0,0.0,0.0,0.0,0.0,0.0,0.0,0.0,0.0,0.0,0.0,0.0,0.0,0.0,0.0,0.0,0.0,0.0,0.0,0.0,0.0,0.0,0.0,0.0,0.0,0.0,0.0,0.0,0.0,0.0,0.0,0.0,0.0,0.0,0.0,0.0,0.0,0.0,0.0,0.0,0.0,0.0,0.0,0.0,0.0,0.0,0.0,0.0,0.0,0.0,0.0,0.0,0.0,0.0,0.0,0.0,0.0,0.0,0.0,0.0,0.0,0.0,0.0,0.0,0.0,0.0,0.0,0.0,0.0,0.0,0.0,0.0,0.0,0.0,0.0,0.0,0.0,0.0,0.0,-0.0,-0.0,-0.0,-0.0,-0.0,-0.0,-0.0,-0.0,-0.0,0.0,0.0,0.0,0.0,0.0,0.0,0.0,0.0,0.0,0.0,0.0,0.0,0.0,0.0,0.0,0.0,0.0,0.0,0.0,0.0,0.0,0.0,0.0,0.0,0.0,0.0,0.0,0.0,0.0,0.0,0.0,0.0,0.0,0.0,0.0,0.0,0.0,0.0,0.0,0.0,0.0,0.0,0.0,0.0,0.0,0.0,0.0,0.0,0.0,0.0,0.0,0.0,0.0,0.0,0.0,0.0,0.0,0.0,0.0,0.0,0.0,0.0,0.0,0.0,0.0,0.0,0.0,0.0,0.0,0.0,0.0,0.0,0.0,0.0,0.0,0.0,0.0,0.0,0.0,0.0,0.0,0.0,0.0,0.0,0.0,0.0,0.0,0.0,0.0,0.0,0.0,0.0,0.0,0.0,0.0,0.0,0.0,0.0,0.0,0.0,0.0,0.0,0.0,-0.0,-0.0,-0.0,-0.0,-0.0,-0.0,-0.0,-0.0,-0.0,-0.0,0.0,0.0,0.0,0.0,0.0,0.0,0.0,0.0,0.0,0.0,0.0,0.0,0.0,0.0,0.0,0.0,0.0,0.0,0.0,0.0,0.0,0.0,0.0,0.0,0.0,0.0,0.0,0.0,0.0,0.0,0.0,0.0,0.0,0.0,0.0,0.0,0.0,0.0,0.0,0.0,0.0,0.0,0.0,0.0,0.0,0.0,0.0,0.0,0.0,0.0,0.0,0.0,0.0,0.0,0.0,0.0,0.0,0.0,0.0,0.0,0.0,0.0,0.0,0.0,0.0,0.0,0.0,0.0,0.0,0.0,0.0,0.0,0.0,0.0,0.0,0.0,0.0,0.0,0.0,0.0,0.0,0.0,0.0,0.0,0.0,0.0,0.0,0.0,0.0,0.0,0.0,0.0,0.0,0.0,0.0,0.0,0.0,0.0,0.0,0.0,0.0,0.0,-0.0,-0.0,-0.0,-0.0,-0.0,-0.0,-0.0,-0.0,-0.0,-0.0,0.0,0.0,0.0,0.0,0.0,0.0,0.0,0.0,0.0,0.0,0.0,0.0,0.0,0.0,0.0,0.0,0.0,0.0,0.0,0.0,0.0,0.0,0.0,0.0,0.0,0.0,0.0,0.0,0.0,0.0,0.0,0.0,0.0,0.0,0.0,0.0,0.0,0.0,0.0,0.0,0.0,0.0,0.0,0.0,0.0,0.0,0.0,0.0,0.0,0.0,0.0,0.0,0.0,0.0,0.0,0.0,0.0,0.0,0.0,0.0,0.0,0.0,0.0,0.0,0.0,0.0,0.0,0.0,0.0,0.0,0.0,0.0,0.0,0.0,0.0,0.0,0.0,0.0,0.0,0.0,0.0,0.0,0.0,0.0,0.0,0.0,0.0,0.0,0.0,0.0,0.0,0.0,0.0,0.0,0.0,0.0,0.0,0.0,0.0,0.0,0.0,0.0,-0.0,-0.0,-0.0,-0.0,-0.0,-0.0,-0.0,-0.0,-0.0,-0.0,0.0,0.0,0.0,0.0,0.0,0.0,0.0,0.0,0.0,0.0,0.0,0.0,0.0,0.0,0.0,0.0,0.0,0.0,0.0,0.0,0.0,0.0,0.0,0.0,0.0,0.0,0.0,0.0,0.0,0.0,0.0,0.0,0.0,0.0,0.0,0.0,0.0,0.0,0.0,0.0,0.0,0.0,0.0,0.0,0.0,0.0,0.0,0.0,0.0,0.0,0.0,0.0,0.0,0.0,0.0,0.0,0.0,0.0,0.0,0.0,0.1652,0.0,0.0,0.0,0.0,0.0,0.0,0.0,0.0,0.0,0.0,0.0,0.0,0.0,0.0,0.0,0.0,0.0,0.0,0.0,0.0,0.0,0.0,0.0,0.0,0.0,0.0,0.0,0.0,0.0,0.0,0.0,0.0,0.0,0.0,0.0,0.0,0.0,0.0,0.0,0.0,0.0,-0.0,-0.0,-0.0,-0.0,-0.0,-0.0,-0.0,-0.0,-0.0,-0.0,-0.0,0.0,0.0,0.0,0.0,0.0,0.0,0.0,0.0,0.0,0.0,0.0,0.0,0.0,0.0,0.0,0.0,0.0,0.0,0.0,0.0,0.0,0.0,0.0,0.0,0.0,0.0,0.0,0.0,0.0,0.0,0.0,0.0,0.0,0.0,0.0,0.0,0.0,0.0,0.0,0.0,0.0,0.0,0.0,0.0,0.0,0.0,0.0,0.0,0.0,0.0,0.0,0.0,0.0,0.0,0.0,0.0,0.0,0.0,0.0,0.0,0.3188,0.0,0.0,0.0,0.0,0.0,0.0,0.0,0.0,0.0,0.0,0.0,0.0,0.0,0.0,0.0,0.0,0.0,0.0,0.0,0.0,0.0,0.0,0.0,0.0,0.0,0.0,0.0,0.0,0.0,0.0,0.0,0.0,0.0,0.0,0.0,0.0,0.0,0.0,0.0,0.0,-0.0,-0.0,-0.0,-0.0,-0.0,-0.0,-0.0,-0.0,-0.0,-0.0,-0.0,0.0,0.0,0.0,0.0,0.0,0.0,0.0,0.0,0.0,0.0,0.0,0.0,0.0,0.0,0.0,0.0,0.0,0.0,0.0,0.0,0.0,0.0,0.0,0.0,0.0,0.0,0.0,0.0,0.0,0.0,0.0,0.0,0.0,0.0,0.0,0.0,0.0,0.0,0.0,0.0,0.0,0.0,0.0,0.0,0.0,0.0,0.0,0.0,0.0,0.0,0.0,0.0,0.0,0.6675,0.7222,0.7165,0.7055,0.7028,0.7145,0.7015,0.587,0.4103,0.3103,0.0,0.0,0.0,0.0,0.0,0.0,0.0,0.0,0.0,0.0,0.0,0.0,0.0,0.0,0.0,0.0,0.0,0.0,0.0,0.0,0.0,0.0,0.0,0.0,0.6081,0.5808,0.0,0.0,0.0,0.0,0.0,0.0,0.0,0.0,0.0,0.0,0.0,0.0,-0.0,-0.0,-0.0,-0.0,-0.0,-0.0,-0.0,-0.0,-0.0359,-0.1168,-0.1258,-0.2852,0.0,0.0,0.0,0.0,0.0,0.0,0.0,0.0,0.0,0.0,0.0,0.0,0.0,0.0,0.0,0.0,0.0,0.0,0.0,0.0,0.0,0.0,0.0,0.0,0.0,0.0,0.0,0.0,0.0,0.0,0.0,0.0,1.1078,0.938,0.0,0.0,0.0,0.0,0.0,0.0,0.0,0.0,0.0,0.0,0.0,0.0,0.0,0.6198,0.621,0.8027,0.8368,0.7101,0.8405,0.8482,0.7489,0.7485,0.7495,0.7512,0.7492,0.0,0.6285,0.4374,0.0,0.0,0.0,0.0,0.0,0.0,0.0,0.0,0.0,0.0,0.0,0.0,0.0,0.0,0.0,0.0,0.0,0.0,0.0,0.0,0.0,0.0,0.0174,0.0796,0.3655,0.5819,0.0,0.5459,0.6888,0.6282,0.2866,0.0,0.0,0.0,0.0,0.0,0.0,0.0,-0.0,-0.0,-0.0,-0.0,-0.0,-0.0,-0.0,-0.0,-0.1797,-0.5858,-0.6132,-0.5568,-0.4096,-0.5458,0.0,0.0,0.0,0.0,0.0,0.0,0.0,0.0,0.0,0.0,0.0,0.0,0.0,0.0,0.0,0.0,0.0,0.0,0.0,0.0,0.0,0.0,0.0,0.0,0.0,0.0,0.0,0.0,0.0,0.9862,0.9955,1.0854,0.797,0.4813,0.0,0.0,0.0,0.0,0.0,0.0,0.0,0.0,0.0,0.5562,0.6769,0.7356,0.7414,0.8125,0.8247,0.7499,0.812,0.8059,0.76,0.76,0.76,0.76,0.76,0.7489,0.7215,0.6201,0.5621,0.4945,0.0,0.0,0.0,0.0,0.4795,0.3622,0.0902,-0.0,0.0,-0.0,0.0,0.0,0.0,0.0,0.0,0.0,0.0,0.0,0.0,0.0,-0.0,-0.0,0.1382,0.2884,0.3435,0.3299,0.3886,0.0,0.5393,0.3146,0.0437,0.0,0.0,0.0,0.0,-0.0,-0.0,-0.0,-0.0,-0.0,-0.2697,-0.4473,-0.4473,-0.3157,-0.3151,-0.5201,-0.6614,-0.6857,-0.574,-0.6597,-0.5528,0.0,0.0,0.0,0.0,0.0,0.0,0.0,0.0,0.0,0.0,0.0,0.0,0.0,0.0,0.0,0.0,0.0,0.0,0.0,0.0,0.0,0.0,0.0,0.0,0.0,0.0,0.0,0.0,0.7959,0.8543,1.0873,1.0707,0.8167,0.0,0.0,0.0,0.0,0.0,0.0,0.4919,0.6698,0.7712,0.7708,0.7607,0.76,0.76,0.7634,0.7655,0.7655,0.7692,0.7712,0.7712,0.7712,0.7712,0.7712,0.7712,0.7716,0.7716,0.7543,0.7422,0.7328,0.5611,0.4948,0.5045,0.5045,0.6021,0.681,0.3144,0.1047,-0.0,-0.0,-0.0,-0.0,-0.0,0.0,0.0,0.0,0.0,-0.0,-0.0,-0.0,-0.0,-0.0,-0.0,0.0477,0.2291,0.124,0.1044,0.0,0.5267,0.4201,0.0639,0.0,0.0,0.0,0.0,-0.0,-0.0,-0.0,-0.0,-0.0,-0.478,-0.7984,-0.7988,-0.6214,-0.5045,-0.5045,-0.6688,-0.7604,-0.7465,-0.73,-0.6121,-0.3629,0.0,0.0,0.0,0.0,0.0,0.0,0.0,0.0,0.0,0.0,0.0,0.0,0.0,0.0,0.0,0.0,0.0,0.0,0.0,0.0,0.0,0.0,0.0,0.0,0.0,0.0,0.0,0.0,0.0,1.0775,1.0263,0.0,0.0,0.0,0.0,0.7426,0.7432,0.7429,0.7513,0.7614,0.7708,0.76,0.76,0.76,0.76,0.7733,0.7801,0.7801,0.7946,0.8018,0.8018,0.8018,0.8018,0.8018,0.8018,0.7932,0.7925,0.7723,0.7607,0.7621,0.7449,0.757,0.7784,0.7784,0.7889,0.7804,0.7006,0.3818,-0.0,-0.0,-0.0,-0.0,-0.0,-0.0,0.0,0.0,-0.0,-0.0,-0.0,-0.0,-0.0,-0.0,-0.0,-0.0,0.0191,0.0095,0.0095,0.0,0.038,0.0285,-0.0,0.0,-0.0,-0.0,-0.0,-0.0,-0.0,-0.0,-0.0,-0.0,-0.478,-0.7988,-0.7999,-0.7889,-0.7784,-0.7784,-0.7882,-0.7858,-0.7705,-0.7628,-0.6281,-0.369,-0.1209,0.0,0.0,0.0,0.0,0.0,0.0,0.0,0.0,0.0,0.0,0.0,0.0,0.0,0.0,0.0,0.0,0.0,0.0,0.0,0.0,0.0,0.0,0.0,0.0,0.0,0.0,0.0,0.0,0.8611,0.8479,0.0,0.7684,0.6841,0.6756,0.7628,0.7706,0.775,0.7743,0.7838,0.7885,0.7882,0.7882,0.7882,0.7882,0.7933,0.796,0.796,0.8014,0.8038,0.8038,0.8038,0.8038,0.8038,0.7955,0.7965,0.7862,0.6044,0.6314,0.7923,0.7831,0.6833,0.5436,0.5436,0.6547,0.7977,0.777,0.4261,-0.0,-0.0,-0.0,-0.0,-0.0,-0.0,-0.0,-0.0,-0.0,-0.0,-0.0,-0.0,-0.0,-0.0,-0.0,-0.0,-0.0,-0.0,-0.0,-0.0,-0.0,-0.0,-0.0,-0.0,-0.0,-0.0,-0.0,-0.0,-0.0,-0.0,-0.0,-0.0,-0.1679,-0.4254,-0.7674,-0.6443,-0.5731,-0.6325,-0.6328,-0.6784,-0.7671,-0.779,-0.7263,-0.5923,-0.1986,-0.0,0.0,0.0,0.0,0.0,0.0,0.0,0.0,0.0,0.0,0.0,0.0,0.0,0.0,0.0,0.0,0.0,0.0,0.0,0.0,0.0,0.0,0.0,0.0,0.0,0.0,0.0,0.7465,0.7512,0.7617,0.7706,0.7756,0.776,0.776,0.776,0.7838,0.7913,0.7963,0.8062,0.814,0.8187,0.8143,0.8116,0.8116,0.8065,0.8038,0.8038,0.8038,0.8038,0.8038,0.8038,0.8041,0.7952,0.7965,0.7979,0.7885,0.605,0.5851,0.6776,0.7695,0.6871,0.5135,0.3318,0.3729,0.526,0.526,0.2929,-0.0,-0.0,-0.0,-0.0,-0.0,-0.0,-0.0,-0.0,-0.0,-0.0,-0.0,-0.0,-0.0,-0.0,-0.0,-0.0,-0.0,-0.0,-0.0,-0.0,-0.0,-0.0,-0.0,-0.0,-0.0,-0.0,-0.0,-0.0,-0.0,-0.0,-0.0,-0.0,-0.0805,-0.3119,-0.761,-0.5847,-0.4618,-0.4918,-0.5729,-0.6708,-0.7727,-0.794,-0.7504,-0.6529,-0.2218,-0.0,-0.0,0.0,0.0,0.0,0.0,0.0,0.0,0.0,0.0,0.0,0.0,0.0,0.0,0.0,0.0,0.0,0.0,0.0,0.0,0.0,0.0,0.0,0.0,0.0,0.7715,0.7611,0.7658,0.7794,0.7821,0.7882,0.8024,0.8041,0.8045,0.8045,0.8045,0.8113,0.8269,0.8272,0.8336,0.8476,0.8343,0.8272,0.8279,0.813,0.8055,0.8055,0.8055,0.8055,0.8055,0.8048,0.8058,0.7982,0.7975,0.7995,0.8026,0.8026,0.6388,0.4151,0.6693,0.7717,0.7098,0.1918,-0.0,-0.0,-0.0,-0.0,-0.0,-0.0,-0.0,-0.0,-0.0,-0.0,-0.0,-0.0,-0.0,-0.0,-0.0,-0.0,-0.0,-0.0,-0.0,-0.0,-0.0,-0.0,-0.0,-0.0,-0.0,-0.0,-0.0,-0.0,-0.0,-0.0,-0.0,0.0,-0.0,-0.0,-0.0,-0.0,-0.2515,-0.5135,-0.7815,-0.6453,-0.512,-0.4216,-0.6553,-0.7985,-0.7972,-0.7972,-0.7253,-0.5522,-0.1874,-0.0,-0.0,0.0,0.0,0.0,0.0,0.0,0.0,0.0,0.0,0.0,0.0,0.0,0.0,0.0,0.0,0.0,0.0,0.0,0.0,0.0,0.0,0.0,0.0,0.7851,0.7634,0.7689,0.7767,0.7807,0.8007,0.8116,0.8045,0.814,0.8208,0.8208,0.8208,0.8269,0.8418,0.8326,0.8336,0.8476,0.8343,0.8319,0.8421,0.8381,0.836,0.836,0.836,0.836,0.8357,0.8262,0.8225,0.8225,0.8046,0.8016,0.8026,0.8042,0.5271,0.1212,0.1919,0.2222,0.2019,0.0505,-0.0,-0.0,-0.0,-0.0,-0.0,-0.0,-0.0,-0.0,-0.0,-0.0,-0.0,-0.0,-0.0,-0.0,-0.0,-0.0,-0.0,-0.0,-0.0,-0.0,-0.0,-0.0,-0.0,-0.0,-0.0,-0.0,-0.0,-0.0,-0.0,-0.0,-0.0,0.0,-0.0,-0.0,-0.0,-0.0,-0.4138,-0.7193,-0.7922,-0.7588,-0.7163,-0.6951,-0.7566,-0.7975,-0.7972,-0.7972,-0.7772,-0.7266,-0.25,-0.0,0.0,0.0,0.0,0.0,0.0,0.0,0.0,0.0,0.0,0.0,0.0,0.0,0.0,0.0,0.0,0.0,0.0,0.0,0.0,0.0,0.0,0.0,0.8048,0.8096,0.7984,0.8041,0.8092,0.8092,0.8252,0.8323,0.8235,0.8306,0.836,0.836,0.836,0.8425,0.857,0.8499,0.8523,0.8669,0.853,0.8492,0.8577,0.8523,0.8387,0.8387,0.8442,0.8448,0.8506,0.8367,0.8306,0.821,0.8004,0.6683,0.4653,0.4698,0.2852,0.0,0.0,0.0,0.0,0.0,-0.1918,-0.0,-0.0,-0.0,-0.0,-0.0,-0.0,-0.0,-0.0,-0.0,-0.0,-0.0,-0.0,-0.0,-0.0,-0.0,-0.0,-0.0,-0.0,-0.0,-0.0,-0.0,-0.0,-0.0,-0.0,0.0,-0.0,-0.0,-0.0808,-0.3029,-0.3334,-0.2927,-0.1813,-0.1711,-0.1711,-0.1711,-0.545,-0.8002,-0.8002,-0.7982,0.0,0.0,0.0,-0.7959,-0.7959,-0.7959,0.0,0.0,0.0,-0.2199,-0.0,0.0,0.0,0.0,-0.0,-0.0,0.0,0.0,0.0,0.0,0.0,0.0,0.0,0.0,0.0,0.0,0.0,0.0,0.0,0.0,0.0,0.0,0.8235,0.8394,0.854,0.857,0.8557,0.8489,0.8499,0.8503,0.8482,0.8499,0.8509,0.8509,0.8509,0.8574,0.8726,0.0,0.0,0.0,0.0,0.8726,0.8743,0.8518,0.8246,0.7915,0.8023,0.804,0.8049,0.834,0.8381,0.8069,0.7431,0.4384,-0.0,-0.0,-0.0,-0.0,-0.0,-0.0,-0.0606,-0.5363,-0.4448,-0.0808,-0.0201,0.0,0.0,-0.0,-0.0,-0.0,-0.0,-0.0,-0.0,-0.0,-0.0,-0.0,-0.0,-0.0,-0.0,-0.0,-0.0,-0.0,-0.0,-0.0,-0.0,-0.0,-0.0,-0.0,-0.0,-0.0,-0.1817,-0.7202,-0.8026,-0.719,-0.4726,-0.442,-0.442,-0.442,0.0,0.0,-0.7972,-0.7952,-0.8038,-0.8038,-0.8038,-0.8038,-0.8038,-0.8038,-0.8048,-0.7969,-0.7982,-0.5541,-0.0603,-0.5249,-0.5258,-0.0908,-0.0303,-0.0303,0.0,0.0,0.0,0.0,0.0,0.0,0.0,0.0,0.0,0.0,0.0,0.0,0.0,0.0,0.0,0.8374,0.8628,0.8859,0.9001,0.913,0.9028,0.854,0.8591,0.8618,0.8492,0.8594,0.8665,0.8665,0.8665,0.8733,0.8886,0.8682,0.8696,0.885,0.8613,0.8603,0.8836,0.8813,0.7558,0.5204,0.0,0.0,0.5316,0.7777,0.8766,0.8431,0.3673,0.0928,-0.0,-0.0,-0.0,-0.0,-0.0,-0.0,-0.0101,-0.1212,-0.3643,-0.5787,-0.1515,-0.0,-0.0,-0.0,-0.0,-0.0,-0.0,-0.0,0.0,-0.0,-0.0,-0.0,-0.0,-0.0,-0.0,-0.0,-0.0,-0.0,-0.0,-0.0,-0.0,-0.0,-0.0,-0.0,-0.0,-0.0,-0.1817,-0.7202,-0.8026,-0.7808,-0.7275,-0.7269,-0.7269,-0.7269,-0.7672,-0.7972,-0.7972,-0.7952,-0.8038,-0.8038,-0.8038,-0.8038,-0.8038,-0.8038,-0.8041,-0.8045,-0.7965,-0.6748,-0.4316,-0.4624,-0.5338,-0.6361,-0.2012,-0.2317,0.0,0.0,0.0,0.0,0.0,0.0,0.0,0.0,0.0,0.0,0.0,0.8062,0.0,0.0,0.8564,0.8781,0.8947,0.9096,0.9245,0.9334,0.9269,0.8967,0.893,0.8906,0.8842,0.8838,0.8845,0.8749,0.8749,0.8783,0.886,0.8799,0.8146,0.6789,0.6581,0.6581,0.6691,0.813,0.8214,0.6621,0.3664,0.2221,0.2348,0.3749,0.4472,0.4325,0.1296,-0.0,-0.0,-0.0,-0.0,-0.0,-0.0,-0.0,-0.0,-0.0,-0.1716,-0.3949,-0.4043,-0.2221,-0.0,-0.0,-0.0,-0.0,-0.0,-0.0,-0.0,-0.0,-0.0,-0.0,-0.0,-0.0,-0.0,-0.0,-0.0,-0.0,-0.0,-0.0,-0.0,-0.0,-0.2121,-0.4041,-0.4041,-0.2923,-0.2919,-0.5548,-0.7178,-0.7992,-0.7969,-0.7965,-0.7965,-0.7965,-0.7959,-0.7955,-0.7955,-0.8045,-0.8038,-0.8038,-0.8038,-0.8038,-0.8038,-0.8038,-0.8038,-0.8038,-0.7962,-0.7563,-0.6742,-0.6237,-0.6651,-0.7889,-0.5233,-0.473,0.0,0.0,0.0,0.0,0.0,0.0,0.0,0.0,0.8048,0.8431,0.847,0.8401,0.8543,0.8696,0.8882,0.9154,0.9222,0.9293,0.9445,0.9469,0.9462,0.9435,0.9296,0.9208,0.9228,0.8549,0.8027,0.8018,0.8015,0.8006,0.8094,0.8555,0.78,0.5471,0.4278,0.36,0.3644,0.5987,0.7201,0.7086,0.2324,-0.0,-0.0,-0.0,-0.0,-0.0,-0.0,-0.0,-0.0,-0.0,-0.0,-0.0,-0.0,-0.0,-0.0,-0.0,-0.0,-0.0606,-0.4976,-0.3656,-0.0,-0.0,-0.0,-0.0,-0.0,-0.0,-0.0,-0.0,-0.0,-0.0,-0.0,-0.0,-0.0,-0.0,-0.0,-0.0,-0.0,-0.0808,-0.1515,-0.1515,-0.4647,-0.7397,-0.7915,-0.6255,-0.4822,-0.4822,-0.6645,-0.7965,-0.8041,-0.8038,-0.8038,-0.8038,-0.8038,-0.8038,-0.8038,-0.8038,-0.8038,-0.8038,-0.8038,-0.8038,-0.8038,-0.8038,-0.8038,-0.8038,-0.7959,-0.7965,-0.7965,-0.7965,-0.7972,-0.7979,-0.7972,-0.6845,1.1134,1.0004,1.0116,1.1239,1.0626,1.0441,0.0,0.0,0.8702,1.0148,0.9496,0.8706,0.8859,0.9005,0.9161,0.9327,0.9469,0.9608,0.9751,0.9788,0.9758,0.9755,0.9479,0.9149,0.9152,0.666,0.4986,0.5028,0.5023,0.4993,0.5037,0.753,0.8802,0.8472,0.3253,0.0449,0.0449,0.0785,0.1009,0.1009,0.0336,-0.0,-0.0,-0.0,-0.0,-0.0,-0.0,-0.0,-0.0,-0.0,-0.0,-0.0,-0.0,-0.0,-0.0,-0.0,-0.0,-0.0101,-0.072,-0.0517,-0.0,-0.0,-0.0,-0.0,-0.0,-0.0,-0.0,-0.0,-0.0,-0.0,-0.0,-0.0,-0.0,-0.0,-0.0,-0.0,-0.0,-0.3739,-0.7098,-0.7098,-0.5651,-0.5231,-0.7582,-0.7775,-0.7563,-0.7563,-0.7769,-0.7965,-0.8041,-0.8038,-0.8038,-0.8038,-0.8038,-0.8038,-0.8038,-0.8038,-0.8038,-0.8038,-0.8038,-0.8038,-0.8038,-0.8038,-0.8038,-0.8038,-0.8041,-0.8041,-0.8041,-0.8041,-0.8045,-0.8045,-0.8045,-0.7852,1.2404,1.1005,0.0,0.0,1.1104,1.0268,1.0841,0.9742,0.88,0.9461,0.9347,0.9015,0.9167,0.9317,0.9469,0.0,0.971,0.9778,0.9737,0.9805,0.9083,0.713,0.8521,0.9542,0.9571,0.8028,0.567,0.218,0.1834,0.1837,0.1843,0.3057,0.3734,0.3692,0.1246,-0.0,-0.0,-0.0,-0.0,-0.0,-0.0,-0.0,-0.0,-0.0,-0.0,-0.0,-0.0,-0.0,-0.0,-0.0,-0.0,-0.0,-0.0,-0.2119,-0.4796,-0.1232,-0.215,-0.4732,-0.1242,-0.0,-0.0,-0.0,-0.2076,-0.4038,-0.0914,-0.0,-0.0,-0.0,-0.2257,-0.4623,-0.4623,-0.3688,-0.2659,-0.2659,-0.2454,-0.2351,-0.2351,-0.4058,-0.6155,-0.7695,-0.7065,-0.6648,-0.7775,-0.7965,-0.7952,-0.7952,-0.7952,-0.8048,-0.8041,-0.8038,-0.8038,-0.8038,-0.8038,-0.8038,-0.8038,-0.8038,-0.8038,-0.8038,-0.8038,-0.8038,-0.8038,-0.8038,-0.8038,-0.8038,-0.8038,-0.8038,-0.8038,-0.8038,-0.8038,-0.8038,-0.8038,-0.8045,1.2042,0.0,0.0,1.14,1.1097,1.027,0.954,0.9133,0.9025,0.9,0.9184,0.9276,0.9435,0.9641,0.9741,0.9781,0.9057,0.8444,0.8468,0.9223,0.8943,0.6517,0.8372,0.9742,0.9745,0.7729,0.4632,0.0347,-0.0,-0.0,-0.0,-0.0,-0.0,-0.0,-0.0,-0.0,-0.0,-0.0,-0.0,-0.0,-0.0,-0.0,-0.0,-0.0,-0.0,-0.0,-0.0,-0.0,-0.0,-0.0,-0.0982,-0.2259,-0.0654,-0.314,-0.7249,-0.3728,-0.4125,-0.6041,-0.3358,-0.2411,-0.2297,-0.147,-0.3895,-0.6417,-0.3296,-0.1875,-0.1271,-0.1257,-0.4075,-0.7235,-0.7982,-0.6906,-0.5629,-0.5733,-0.5523,-0.5313,-0.5209,-0.5255,-0.5812,-0.774,-0.8036,-0.8116,-0.7972,-0.8048,-0.8038,-0.8038,-0.8038,-0.8038,-0.8038,-0.8038,-0.8038,-0.8038,-0.8038,-0.8058,-0.8099,-0.8065,-0.8058,-0.8099,-0.8062,-0.8038,-0.8038,-0.8038,-0.8038,-0.8038,-0.8038,-0.8038,-0.8038,-0.8038,-0.8038,-0.8038,-0.8038,-0.8038,0.0,0.0,1.0196,1.0385,1.0577,1.0704,1.0949,1.0032,0.9235,0.9436,0.951,0.9583,0.9761,0.9797,0.9749,0.9786,0.711,0.5047,0.5049,0.7754,0.974,0.9658,0.9739,0.9779,0.0,0.4017,0.0235,-0.0,-0.0,-0.0,-0.0,-0.0,-0.0,-0.0,-0.0,-0.0,-0.0,-0.0,-0.0,-0.0,-0.0,-0.0,-0.0,-0.0,-0.0,-0.0,-0.0,-0.0,-0.0,-0.0,-0.3441,-0.8029,-0.2299,-0.1945,-0.4992,-0.759,-0.5057,-0.1039,-0.6695,-0.8578,-0.8162,-0.5312,-0.4459,-0.51,-0.7496,-0.6381,-0.435,-0.4348,-0.4454,-0.5202,-0.7787,-0.8434,-0.8438,-0.8656,-0.8762,-0.8656,-0.8434,-0.8414,-0.8459,-0.8309,-0.8272,-0.8218,-0.8065,-0.8038,-0.8038,-0.8038,-0.8038,-0.8038,-0.8038,-0.8038,-0.8038,-0.8038,-0.8038,-0.8099,-0.8252,-0.8126,-0.8102,-0.8255,-0.8123,-0.8038,-0.8038,-0.8038,-0.8038,-0.8038,-0.8038,-0.8038,-0.8038,-0.8038,-0.8038,-0.8038,-0.8038,-0.8038,0.0,0.0,0.9317,1.0558,1.0362,0.9884,1.0099,0.9891,0.9595,0.9634,0.802,0.6425,0.6558,0.6509,0.722,0.949,0.888,0.6655,0.2252,0.2622,0.4938,0.9314,0.596,0.0,0.0,0.0,0.0,-0.0,-0.0,-0.0,-0.0,-0.0,-0.0,-0.0,-0.0,-0.0,-0.0,-0.0,-0.0,-0.0,-0.0,-0.0,-0.0,-0.0,-0.0,-0.0,-0.0,-0.2229,-0.5863,-0.5863,-0.5904,-0.6024,-0.5881,-0.6536,-0.7591,-0.8487,-0.7591,-0.5702,-0.5952,-0.7243,-0.8786,-0.7729,-0.7373,-0.7399,-0.8454,-0.8062,-0.7251,-0.7373,-0.7367,-0.7466,-0.8347,-0.8558,-0.8659,-0.8766,-0.8769,-0.8738,-0.8526,-0.8425,-0.8309,-0.8153,-0.8204,-0.8255,-0.8201,-0.8272,-0.8333,-0.8333,-0.8252,-0.8194,-0.8194,-0.8194,-0.8194,-0.8194,-0.8194,-0.8214,-0.8269,-0.8309,-0.8316,-0.8275,-0.8221,-0.8147,-0.8041,-0.8038,-0.8038,-0.8038,-0.8038,-0.8038,-0.8038,-0.8038,-0.8038,-0.8038,-0.8038,-0.8038,0.0,0.9228,0.9019,1.0152,1.0033,0.949,0.9598,0.9786,0.9758,0.9768,0.8105,0.5921,0.356,0.3197,0.3868,0.5983,0.6287,0.4847,0.0583,-0.0,0.1616,0.5841,0.2587,-0.0,0.0,0.0,0.0,-0.0,-0.0,-0.0,-0.0,-0.0,-0.0,-0.0,-0.0,-0.0,-0.0,-0.0,-0.0,-0.0,-0.0,-0.0,-0.0115,-0.2159,-0.3157,-0.3139,-0.2016,-0.3786,-0.7419,-0.8433,-0.7804,-0.6288,-0.8147,-0.8955,-0.8937,-0.8899,-0.8754,-0.8325,-0.6503,-0.7119,-0.8762,-0.8814,-0.8824,-0.8779,-0.8908,-0.8858,-0.8706,-0.8835,-0.8825,-0.8702,-0.8702,-0.8692,-0.8791,-0.8791,-0.8791,-0.8764,-0.8665,-0.8574,-0.8462,-0.8309,-0.836,-0.8411,-0.8357,-0.8421,-0.8482,-0.8482,-0.8452,-0.8408,-0.8353,-0.8347,-0.8347,-0.8347,-0.8347,-0.8367,-0.8425,-0.8462,-0.8465,-0.8431,-0.8377,-0.8279,-0.813,-0.8123,-0.8096,-0.8041,-0.8038,-0.8038,-0.8038,-0.8038,-0.8038,-0.8038,-0.8038,-0.8038,0.8509,0.8832,0.9205,0.9364,0.951,0.9615,0.9755,0.9759,0.9849,0.9838,0.9565,0.7345,0.0,0.0,-0.0,-0.0,-0.0,-0.0,-0.0,-0.0,-0.0,0.0,0.0,0.0,0.0,0.0,0.0,-0.0,0.0,-0.0,-0.0,-0.0,-0.0,-0.0,-0.0,-0.0,-0.0,-0.0,-0.0,-0.0,-0.0,-0.0,-0.0231,-0.5877,-0.8597,-0.8693,-0.594,-0.4695,-0.492,-0.775,-0.888,-0.8863,-0.8883,-0.8866,-0.893,-0.8941,-0.8676,-0.8322,-0.8142,-0.8311,-0.8635,-0.8665,-0.8808,-0.8927,-0.8937,-0.894,-0.894,-0.894,-0.894,-0.894,-0.894,-0.894,-0.894,-0.894,-0.894,-0.8937,-0.8927,-0.8927,-0.8882,-0.8726,-0.8706,-0.8665,-0.853,-0.8506,-0.8506,-0.8506,-0.8628,-0.8665,-0.8513,-0.8492,-0.8492,-0.8492,-0.8492,-0.8554,-0.8699,-0.8584,-0.8564,-0.8703,-0.8574,-0.8428,-0.8286,-0.8282,-0.8208,-0.8055,-0.8052,-0.8045,-0.8038,-0.8038,-0.8038,-0.8038,-0.8038,-0.8038,0.8862,0.915,0.9391,0.9666,0.9686,0.9734,0.9766,0.9757,0.9784,0.9847,0.5955,0.2023,0.0,0.0,0.0,-0.0,-0.0,0.0,-0.0,-0.0,0.0,0.0,0.0,-0.0,-0.0,-0.0,0.0,0.0,-0.0,-0.0,-0.0,-0.0,-0.0,-0.0,-0.0,-0.0,-0.0,-0.0,-0.0,-0.0,-0.0,-0.0,-0.0,-0.1627,-0.4705,-0.884,-0.8149,-0.775,-0.7841,-0.8638,-0.8856,-0.8947,-0.8954,-0.885,-0.8853,-0.8954,-0.744,-0.5534,-0.5524,-0.6627,-0.8173,-0.8628,-0.8737,-0.8791,-0.8903,-0.894,-0.894,-0.894,-0.894,-0.894,-0.894,-0.894,-0.894,-0.894,-0.894,-0.8906,-0.8794,-0.8767,-0.8723,-0.857,-0.8632,-0.8733,-0.8808,-0.8821,-0.8821,-0.8821,-0.8855,-0.8825,-0.8672,-0.8652,-0.8652,-0.8652,-0.8652,-0.8669,-0.8706,-0.8777,-0.8791,-0.8716,-0.8672,-0.8584,-0.8435,-0.8428,-0.836,-0.8214,-0.8211,-0.8153,-0.8038,-0.8038,-0.8038,-0.8038,-0.8038,-0.8038,0.894,0.9322,0.9656,0.971,0.8729,0.8072,0.9514,0.9745,0.8989,0.6073,0.2515,0.0,0.0,0.0,0.0,0.0,0.0,0.0,-0.0,-0.0,-0.0,0.0,-0.0,0.0,-0.0,-0.0,-0.0,0.0,-0.0,-0.0,-0.0,-0.0,-0.0,-0.0,-0.0,-0.0,-0.0,-0.0,-0.0,-0.0,-0.0,-0.0,-0.0,-0.1537,-0.3954,-0.7013,0.0,-0.9032,-0.885,-0.886,-0.885,-0.894,-0.895,-0.8846,-0.8729,-0.745,-0.5907,-0.4505,-0.4372,-0.5996,-0.8243,-0.8621,-0.871,-0.8737,-0.8893,-0.894,-0.894,-0.894,-0.894,-0.894,-0.894,-0.894,-0.894,-0.894,-0.894,-0.8916,-0.8828,-0.8811,-0.8784,-0.8699,-0.8754,-0.8838,-0.8923,-0.894,-0.894,-0.894,-0.894,-0.8906,-0.8821,-0.8811,-0.8811,-0.8811,-0.8811,-0.8811,-0.8811,-0.8889,-0.8903,-0.8815,-0.8811,-0.8743,-0.8587,-0.8581,-0.8513,-0.8367,-0.8364,-0.8289,-0.814,-0.814,-0.8106,-0.8041,-0.8109,-0.8106,0.8242,0.8705,0.9277,0.9661,0.7706,0.6069,0.8082,0.8543,0.6901,0.1142,0.0,0.0,-0.0,0.0,-0.0,-0.0,0.0,-0.0,-0.0,-0.0,-0.0,-0.0,-0.0,-0.0,-0.0,-0.0,-0.0,-0.0,-0.0,-0.0,-0.0,-0.0,-0.0,-0.0,-0.0,-0.0,-0.0,-0.0,-0.0376,-0.1358,-0.1358,-0.1103,-0.0725,-0.3609,-0.4968,-0.5295,-0.8022,-0.9086,-0.8967,-0.8856,-0.8846,-0.894,-0.885,-0.8846,-0.8592,-0.6046,-0.4805,-0.4559,-0.4641,-0.6365,-0.8495,-0.8587,-0.8665,-0.871,-0.8862,-0.8923,-0.894,-0.894,-0.894,-0.894,-0.894,-0.894,-0.894,-0.894,-0.894,-0.894,-0.894,-0.894,-0.894,-0.894,-0.894,-0.894,-0.894,-0.894,-0.894,-0.894,-0.894,-0.894,-0.894,-0.894,-0.894,-0.894,-0.894,-0.894,-0.894,-0.894,-0.894,-0.894,-0.894,-0.8879,-0.8747,-0.874,-0.8669,-0.8516,-0.8513,-0.8442,-0.8299,-0.8299,-0.8228,-0.8102,-0.8238,-0.8225,0.5123,0.5458,0.6407,0.9174,0.9367,0.7729,0.2826,0.1733,0.0,0.0,0.0,-0.0,-0.0,-0.0,0.0,-0.0,0.0,0.0,0.0,0.0,-0.0,0.0,0.0,0.0,0.0,0.0,0.0,0.0,0.0,-0.0,-0.0,-0.0,-0.0,-0.0,-0.0,-0.0,-0.0,-0.0,-0.2758,-0.8058,-0.8058,-0.6664,-0.4041,-0.4592,-0.6228,-0.8704,-0.9056,0.0,-0.9106,-0.8991,-0.8944,-0.894,-0.8944,-0.8954,-0.8853,-0.8377,-0.6633,-0.4813,-0.7276,-0.8265,-0.8492,-0.8384,-0.8425,-0.855,-0.8703,-0.8838,-0.894,-0.894,-0.894,-0.894,-0.894,-0.894,-0.894,-0.894,-0.894,-0.894,-0.894,-0.894,-0.894,-0.894,-0.894,-0.894,-0.894,-0.894,-0.894,-0.894,-0.894,-0.894,-0.894,-0.894,-0.894,-0.894,-0.894,-0.894,-0.894,-0.894,-0.894,-0.894,-0.894,-0.8927,-0.8899,-0.8899,-0.8825,-0.8672,-0.8669,-0.8598,-0.8445,-0.8445,-0.8431,-0.8404,-0.8431,-0.8431,0.2172,0.2204,0.271,0.4322,0.4741,0.3852,0.0674,0.0,0.0,0.0,0.0,-0.4144,-0.4144,0.0,0.0,0.0,0.0,0.0,0.0,0.0,0.0,0.0,0.0,0.0,0.0,0.0,0.0,0.0,0.0,-0.0,-0.0,-0.0,-0.0,-0.0,-0.3307,-0.5093,-0.5057,-0.3402,-0.4125,-0.7286,-0.9041,-0.9035,-0.7398,-0.7451,-0.8242,-0.9513,-0.9476,0.0,-0.915,-0.8977,-0.8903,-0.894,-0.8954,-0.8846,-0.8846,-0.8856,-0.8033,-0.6976,-0.8301,-0.8655,-0.8515,-0.8438,-0.8479,-0.8628,-0.8781,-0.8879,-0.894,-0.894,-0.894,-0.894,-0.894,-0.894,-0.894,-0.894,-0.894,-0.894,-0.894,-0.894,-0.894,-0.894,-0.894,-0.894,-0.894,-0.894,-0.894,-0.894,-0.894,-0.894,-0.894,-0.894,-0.894,-0.894,-0.894,-0.894,-0.894,-0.894,-0.894,-0.894,-0.894,-0.894,-0.894,-0.894,-0.8903,-0.8828,-0.8828,-0.8754,-0.8601,-0.8601,-0.856,-0.8482,-0.8564,-0.8557,-0.0,-0.0,-0.0,-0.0,-0.0,-0.0336,-0.1451,-0.1697,0.0,0.0,-0.4239,-0.7296,-0.7915,0.0,0.0,0.0,0.0,0.0,0.0,0.0,0.0,0.0,0.0,0.0,0.0,0.0,0.0,0.0,0.0,0.0,-0.2087,-0.2082,-0.1801,-0.1131,-0.6117,-0.9085,-0.9735,-0.7301,-0.5988,-0.6025,-0.8518,-0.9771,-0.9764,-0.9859,-0.9664,-0.9556,-0.9629,0.0,0.0,-0.9067,-0.8967,-0.894,-0.885,-0.8954,-0.894,-0.885,-0.886,-0.8843,-0.8719,-0.8679,-0.8659,-0.8625,-0.8638,-0.8733,-0.8852,-0.8913,-0.894,-0.894,-0.894,-0.894,-0.894,-0.894,-0.894,-0.894,-0.894,-0.894,-0.894,-0.894,-0.894,-0.894,-0.894,-0.894,-0.894,-0.894,-0.894,-0.894,-0.894,-0.894,-0.894,-0.894,-0.894,-0.894,-0.894,-0.894,-0.894,-0.894,-0.894,-0.894,-0.894,-0.894,-0.894,-0.894,-0.894,-0.894,-0.894,-0.8879,-0.876,-0.876,-0.8699,-0.8581,-0.8703,-0.8696,-0.0,-0.0,-0.0,-0.0,-0.0,-0.1228,-0.6179,0.0,0.0,0.0,-0.4019,-0.5131,-0.7582,-0.7785,0.0,0.0,0.0,0.0,0.0,0.0,0.0,0.0,0.0,0.0,0.0,0.0,0.0,0.0,0.0,0.0,-0.8928,-0.8931,-0.758,-0.4559,-0.4998,-0.6765,-0.9808,-0.9545,-0.9392,-0.9358,-0.9612,-0.9849,-0.9829,-0.9825,-0.9819,-0.9798,-0.9666,0.0,0.0,-0.9211,-0.9069,-0.894,-0.894,-0.894,-0.894,-0.894,-0.8846,-0.8856,-0.8933,-0.8823,-0.8836,-0.891,-0.8811,-0.8713,-0.8726,-0.8828,-0.894,-0.894,-0.894,-0.894,-0.894,-0.894,-0.894,-0.894,-0.894,-0.894,-0.894,-0.894,-0.894,-0.894,-0.894,-0.894,-0.894,-0.894,-0.894,-0.894,-0.894,-0.894,-0.894,-0.894,-0.894,-0.894,-0.894,-0.894,-0.894,-0.894,-0.894,-0.894,-0.894,-0.894,-0.894,-0.894,-0.894,-0.894,-0.894,-0.893,-0.8916,-0.8916,-0.891,-0.8896,-0.891,-0.891,-0.0,-0.2904,-0.4925,-0.0969,-0.1162,-0.3343,-0.7166,0.0,0.0,-0.6656,-0.6445,-0.6748,-0.7775,-0.7969,-0.7959,0.0,0.0,0.0,0.0,0.0,0.0,0.0,0.0,0.0,0.0,0.0,0.0,0.0,0.0,0.0,-0.9999,-0.982,-0.9243,-0.7902,-0.7801,-0.8421,-0.9754,-0.9794,-0.9781,-0.9836,-0.9836,-0.9829,-0.9822,-0.9822,-0.9822,-0.9819,-0.9761,0.0,0.0,-0.9317,-0.915,-0.894,-0.894,-0.894,-0.894,-0.894,-0.8944,-0.895,-0.8944,-0.8944,-0.895,-0.8944,-0.8899,-0.8849,-0.8849,-0.8889,-0.894,-0.894,-0.894,-0.894,-0.894,-0.894,-0.894,-0.894,-0.894,-0.894,-0.894,-0.894,-0.894,-0.894,-0.894,-0.894,-0.894,-0.894,-0.894,-0.894,-0.894,-0.894,-0.894,-0.894,-0.894,-0.894,-0.894,-0.894,-0.894,-0.894,-0.894,-0.894,-0.894,-0.894,-0.894,-0.894,-0.894,-0.894,-0.894,-0.894,-0.894,-0.894,-0.894,-0.8937,-0.9805,-1.0241,-0.1368,-0.4596,-0.7357,-0.3535,-0.3306,-0.4746,0.0,0.0,0.0,-0.7975,-0.7969,-0.7962,-0.7962,-0.8048,-0.8038,0.0,0.0,0.0,0.0,0.0,0.0,0.0,0.0,0.0,0.0,0.0,0.0,0.0,0.0,0.0,-1.0076,-0.9921,-0.9858,-0.9761,-0.9856,-0.9846,-0.9846,-0.9829,-0.9822,-0.9822,-0.9822,-0.9822,-0.9822,-0.9822,-0.9822,-0.9822,-0.9822,0.0,0.0,-0.9381,-0.9205,-0.894,-0.894,-0.894,-0.894,-0.894,-0.894,-0.894,-0.894,-0.894,-0.894,-0.894,-0.894,-0.894,-0.894,-0.894,-0.894,-0.894,-0.894,-0.894,-0.894,-0.894,-0.895,-0.8991,-0.8967,-0.895,-0.8991,-0.8967,-0.894,-0.894,-0.894,-0.894,-0.894,-0.894,-0.894,-0.894,-0.894,-0.894,-0.894,-0.894,-0.894,-0.894,-0.894,-0.894,-0.894,-0.894,-0.894,-0.894,-0.894,-0.9047,-0.9482,-0.9158,-0.9154,-0.9588,-0.9154,-0.894,-0.894,-0.9372,-0.9588,-0.9588,-1.1105,-1.1755,-0.4667,-0.4247,-0.5238,-0.8078,-0.6342,-0.4751,0.0,0.0,0.0,-0.8045,-0.8038,-0.8038,-0.8038,-0.8038,-0.8038,-0.8038,0.0,0.0,0.0,0.0,0.0,0.0,0.0,0.0,0.0,0.0,0.0,0.0,0.0,0.0,-1.0049,-0.9907,-0.9822,-0.9822,-0.9822,-0.9822,-0.9822,-0.9822,-0.9822,-0.9822,-0.9822,-0.9822,-0.9822,-0.9822,-0.9822,-0.9822,0.0,0.0,0.0,-0.9381,-0.9205,-0.894,-0.894,-0.894,-0.894,-0.894,-0.894,-0.894,-0.894,-0.894,-0.894,-0.894,-0.894,-0.894,-0.894,-0.894,-0.894,-0.894,-0.894,-0.894,-0.894,-0.894,-0.8974,-0.9117,-0.9042,-0.8977,-0.912,-0.9039,-0.894,-0.894,-0.894,-0.894,-0.894,-0.894,-0.894,-0.894,-0.894,-0.894,-0.894,-0.894,-0.894,-0.894,-0.894,-0.894,-0.894,-0.894,-0.894,-0.894,-0.894,-0.9588,-1.0996,-0.9699,-0.9588,-1.0996,-0.9588,-0.894,-0.894,-1.0351,-1.1109,-1.1105,-1.262,-1.327,-0.6953,-0.7035,-0.7524,-0.8378,-0.7794,-0.7229,-0.7817,0.0,-0.8048,-0.8041,-0.8038,-0.8038,-0.8038,-0.8038,-0.8075,-0.818,-0.8197,0.0,0.0,0.0,0.0,0.0,0.0,0.0,0.0,0.0,0.0,0.0,0.0,0.0,-1.0049,-0.9903,-0.9822,-0.9822,-0.9822,-0.9822,-0.9822,-0.9822,-0.9822,-0.9822,-0.9822,-0.9822,-0.9822,-0.9822,-0.9822,0.0,0.0,0.0,0.0,-0.9381,-0.9205,-0.894,-0.894,-0.894,-0.894,-0.894,-0.894,-0.894,-0.894,-0.894,-0.894,-0.894,-0.894,-0.894,-0.894,-0.894,-0.894,-0.894,-0.894,-0.894,-0.894,-0.894,-0.895,-0.8994,-0.8974,-0.8977,-0.9123,-0.9117,-0.9086,-0.9086,-0.9086,-0.9055,-0.8954,-0.894,-0.894,-0.894,-0.894,-0.8974,-0.9072,-1.0081,-1.0679,-1.0916,-1.182,-1.1492,-0.9064,-0.894,-0.9372,-1.0351,-1.0347,-1.0566,-1.1109,-1.0672,-1.0131,-0.9588,-1.0135,-1.0347,-1.0457,-1.1864,-1.3048,-1.4019,-1.4556,-1.531,0.0,-0.8193,-0.8454,-0.8319,-0.8344,0.0,0.0,0.0,-0.8038,-0.8038,-0.8038,-0.8038,-0.8038,-0.8038,-0.8072,-0.8167,-0.8235,0.0,0.0,0.0,0.0,0.0,0.0,0.0,0.0,0.0,0.0,0.0,0.0,0.0,-0.9964,-0.9873,-0.9822,-0.9822,-0.9822,-0.9822,-0.9822,-0.9822,-0.9822,-0.9822,-0.9822,-0.9822,-0.9819,-0.9768,-0.9771,0.0,0.0,0.0,0.0,-0.932,-0.9154,-0.894,-0.894,-0.894,-0.894,-0.894,-0.894,-0.894,-0.894,-0.894,-0.894,-0.894,-0.894,-0.894,-0.894,-0.894,-0.894,-0.894,-0.894,-0.895,-0.9005,-0.9018,-0.9049,-0.9164,-0.9147,-0.9147,-0.9293,-0.9279,-0.9222,-0.9164,-0.9154,-0.9106,-0.8964,-0.894,-0.9047,-0.9699,-0.931,-0.9273,-0.992,-1.0435,-1.0744,-1.0858,-1.1769,-1.1452,-0.9233,-0.9604,-0.9979,-1.0245,-1.0241,-1.0781,-1.1864,-1.1433,-1.1214,-1.1319,-1.1755,-1.1969,-1.1969,-1.3372,-1.4883,-1.628,-1.628,-1.6717,0.0,0.0,0.0,0.0,0.0,0.0,0.0,0.0,0.0,-0.8038,-0.8038,-0.8041,-0.8055,-0.8055,-0.8062,-0.8082,-0.8208,0.0,0.0,0.0,0.0,0.0,0.0,0.0,0.0,0.0,0.0,0.0,0.0,0.0,-0.9822,-0.9822,-0.9822,-0.9822,-0.9822,-0.9822,-0.9822,-0.9822,-0.9822,-0.9822,-0.9822,-0.9822,-0.9815,-0.9676,-0.9683,0.0,0.0,0.0,0.0,-0.9211,-0.9069,-0.894,-0.894,-0.894,-0.894,-0.894,-0.894,-0.894,-0.894,-0.894,-0.894,-0.894,-0.894,-0.894,-0.894,-0.894,-0.894,-0.894,-0.894,-0.8974,-0.9117,-0.9147,-0.9211,-0.9507,-0.9459,-0.9391,-0.9544,-0.9473,-0.934,-0.9198,-0.9167,-0.9123,-0.8977,-0.8947,-0.9375,-1.0802,-0.995,-0.972,-1.096,-1.0326,-0.9743,-0.9757,-0.9986,-1.0099,-0.9968,-1.0834,-1.0775,-0.9307,-0.9296,-1.0492,-1.3423,-1.2214,-1.2644,-1.5256,-1.4175,-1.3532,-1.364,-1.4917,-1.6311,-1.7615,-1.7615,-1.7615,-0.8038,0.0,-0.8085,-0.8048,0.0,0.0,0.0,0.0,0.0,0.0,0.0,0.0,0.0,0.0,0.0,0.0,0.0,0.0,0.0,0.0,0.0,0.0,0.0,0.0,0.0,0.0,0.0,0.0,0.0,-0.9822,-0.9822,-0.9822,-0.9822,-0.9822,-0.9822,-0.9822,-0.9822,-0.9822,-0.9822,-0.9822,-0.9822,-0.9822,-0.9815,-0.9676,-0.9629,0.0,0.0,0.0,-0.9205,-0.9167,-0.9069,-0.894,-0.894,-0.894,-0.894,-0.894,-0.894,-0.894,-0.894,-0.894,-0.894,-0.894,-0.894,-0.894,-0.894,-0.894,-0.894,-0.894,-0.894,-0.8974,-0.9117,-0.9069,-0.9035,-0.9218,-0.9147,-0.9083,-0.9228,-0.9323,-0.9371,-0.9334,-0.9327,-0.9279,-0.913,-0.9011,-0.9085,-0.9528,-0.9352,-0.9349,-0.9934,-1.1849,-1.3208,-1.3367,-1.562,-1.6472,-1.5112,-1.1812,-1.0673,-1.2547,-1.2763,-1.3551,-1.5561,-1.5043,-1.4702,-1.4431,-1.5222,-1.6127,-1.7262,-1.738,-1.7607,-1.7936,-1.7936,-1.7936,-0.8038,-0.8038,-0.8038,-0.8038,-0.8038,-0.8038,0.0,0.0,0.0,0.0,0.0,0.0,0.0,0.0,0.0,0.0,0.0,0.0,0.0,0.0,0.0,0.0,0.0,0.0,0.0,0.0,0.0,0.0,0.0,-0.9822,-0.9822,-0.9822,-0.9822,-0.9822,-0.9822,-0.9822,-0.9822,-0.9754,-0.9754,-0.9822,-0.9754,-0.9724,-0.972,-0.9571,-0.9503,0.0,0.0,0.0,-0.9147,-0.9083,-0.9008,-0.894,-0.894,-0.894,-0.894,-0.894,-0.894,-0.894,-0.894,-0.894,-0.894,-0.894,-0.894,-0.894,-0.894,-0.894,-0.894,-0.894,-0.894,-0.8974,-0.9117,-0.9096,-0.9072,-0.9222,-0.9198,-0.9184,-0.933,-0.9371,-0.9381,-0.9381,-0.9323,-0.9249,-0.9167,-0.9089,-0.9528,-1.1146,-1.0902,-1.1021,-1.2606,-1.3771,-1.4468,-1.4589,-1.6149,-1.6798,-1.5832,-1.3255,-1.2423,-1.3937,-1.404,-1.4719,-1.6186,-1.6162,-1.6051,-1.6086,-1.6881,-1.768,-1.849,-1.833,-1.825,-1.825,-1.825,-1.825,-0.8038,-0.8038,-0.8038,-0.8038,-0.8038,-0.8038,0.0,0.0,0.0,0.0,0.0,0.0,0.0,0.0,0.0,0.0,0.0,0.0,0.0,0.0,0.0,0.0,0.0,0.0,0.0,0.0,0.0,0.0,0.0,-0.9822,-0.9822,-0.9822,-0.9822,-0.9822,-0.9822,-0.9822,-0.9822,-0.968,-0.9669,-0.9788,-0.9642,-0.9588,-0.9605,-0.9425,-0.9347,-0.933,0.0,0.0,-0.911,-0.8988,-0.894,-0.894,-0.894,-0.894,-0.894,-0.894,-0.894,-0.894,-0.894,-0.894,-0.894,-0.894,-0.894,-0.894,-0.894,-0.8954,-0.8971,-0.8971,-0.8954,-0.8974,-0.9117,-0.9137,-0.9164,-0.934,-0.9364,-0.9388,-0.954,-0.9493,-0.9531,-0.9761,-0.9652,-0.9671,-0.9894,-0.9986,-1.081,-1.3606,-1.31,-1.3339,-1.5935,-1.5424,-1.4955,-1.4955,-1.5198,-1.5316,-1.5316,-1.5316,-1.5258,-1.4961,-1.4707,-1.5145,-1.6594,-1.6742,-1.7322,-1.8557,-1.8597,-1.8624,-1.8624,-1.8577,-1.8557,-1.8557,-1.8557,-1.8557,-0.8038,-0.8038,-0.8038,-0.8038,-0.8038,-0.8038,0.0,0.0,0.0,0.0,0.0,0.0,0.0,0.0,0.0,0.0,0.0,0.0,0.0,0.0,0.0,0.0,0.0,0.0,0.0,0.0,0.0,0.0,0.0,-0.9822,-0.9822,-0.9822,-0.9822,-0.9822,-0.9822,-0.9822,-0.9822,-0.968,-0.9618,-0.9639,-0.949,-0.9486,-0.9602,-0.9317,-0.9188,-0.9178,0.0,-0.895,-0.8967,-0.8947,-0.894,-0.894,-0.894,-0.894,-0.894,-0.894,-0.894,-0.894,-0.894,-0.894,-0.894,-0.894,-0.894,-0.894,-0.894,-0.9025,-0.912,-0.912,-0.9032,-0.8974,-0.9117,-0.9062,-0.9042,-0.9317,-0.9283,-0.9228,-0.9384,-0.95,-0.9923,-1.1314,-1.1637,-1.1962,-1.3355,-1.3427,-1.3606,-1.4179,-1.4124,-1.4214,-1.476,-1.588,-1.6615,-1.6615,-1.7806,-1.8648,-1.8648,-1.8648,-1.8616,-1.8641,-1.7322,-1.7104,-1.8398,-1.8741,-1.8876,-1.8865,-1.9105,-1.9232,-1.9232,-1.8978,-1.8858,-1.8858,-1.8858,-1.8858,-0.8038,-0.8038,-0.8058,-0.8143,-0.8163,-0.8163,0.0,0.0,0.0,0.0,0.0,0.0,0.0,0.0,0.0,0.0,0.0,0.0,0.0,0.0,0.0,0.0,0.0,0.0,0.0,0.0,0.0,0.0,0.0,0.0,-0.9822,-0.9822,-0.9785,-0.971,-0.9707,-0.9629,-0.9462,-0.9395,-0.9445,-0.9605,-0.9371,-0.9296,-0.9357,-0.9218,-0.911,-0.9032,0.0,-0.894,-0.894,-0.894,-0.894,-0.894,-0.894,-0.894,-0.894,-0.894,-0.8988,-0.9055,-0.9055,-0.911,-0.9178,-0.9178,-0.9178,-0.9178,-0.9178,-0.9225,-0.9276,-0.9276,-0.9228,-0.9195,-0.9259,-0.9228,-0.9211,-0.9351,-0.9327,-0.9544,-1.0619,-1.0763,-1.1245,-1.2965,-1.324,-1.3423,-1.424,-1.429,-1.4641,-1.5698,-1.5848,-1.6132,-1.7079,-1.7812,-1.8286,-1.8286,-1.9004,-1.9366,-1.9366,-1.9366,-1.9366,-1.9366,-1.8765,-1.8584,-1.9165,-1.9292,-1.9305,-1.9165,-1.9299,-1.9366,-1.9366,-1.9232,-1.9165,-1.9165,-1.9165,-1.9165,-0.8038,-0.8038,-0.8069,-0.8187,0.0,0.0,0.0,0.0,0.0,0.0,0.0,0.0,0.0,0.0,0.0,0.0,0.0,0.0,0.0,0.0,0.0,0.0,0.0,0.0,0.0,0.0,0.0,0.0,0.0,0.0,-0.9822,-0.9788,-0.9724,-0.9612,-0.9574,-0.9442,-0.9208,-0.9171,-0.9269,-0.95,-0.9232,-0.912,-0.915,-0.9117,-0.9042,-0.894,-0.894,-0.894,-0.894,-0.894,-0.894,-0.894,-0.894,-0.894,-0.8944,-0.8977,-0.9059,-0.9157,-0.9195,-0.9283,-0.9381,-0.9381,-0.9381,-0.9381,-0.9381,-0.9405,-0.9549,-0.9891,-1.0033,-1.0047,-0.9972,-1.0181,-1.0532,-1.057,-1.0581,-1.0973,-1.2308,-1.2471,-1.2994,-1.466,-1.4892,-1.4938,-1.5478,-1.5627,-1.6042,-1.7412,-1.7566,-1.8046,-1.9243,-1.9366,-1.9366,-1.9366,-1.9366,-1.9366,-1.9366,-1.9366,-1.9366,-1.9366,-1.9366,-1.9366,-1.9366,-1.9366,-1.9366,-1.9366,-1.9366,-1.9366,-1.9366,-1.9366,-1.9366,-1.9366,-1.9366,-1.9366,-0.8038,-0.8038,-0.8041,-0.8055,0.0,0.0,0.0,0.0,0.0,0.0,0.0,0.0,0.0,0.0,0.0,0.0,0.0,0.0,0.0,0.0,0.0,0.0,0.0,0.0,0.0,0.0,0.0,0.0,0.0,0.0,-0.9822,-0.9696,-0.9618,-0.9608,-0.9473,-0.9388,-0.9364,-0.9222,-0.9164,-0.9184,-0.9028,-0.9025,-0.9147,-0.9015,-0.8947,-0.894,-0.894,-0.894,-0.894,-0.894,-0.894,-0.894,-0.894,-0.894,-0.8954,-0.9089,-0.9144,-0.9174,-0.9317,-0.9371,-0.9381,-0.9381,-0.9381,-0.9381,-0.9381,-0.9479,-0.9944,-1.1334,-1.1921,-1.198,-1.164,-1.268,-1.3863,-1.3958,-1.4008,-1.4068,-1.441,-1.4445,-1.4914,-1.6463,-1.6803,-1.7271,-1.8732,-1.9094,-1.91,-1.9243,-1.9243,-1.9243,-1.9366,-1.9366,-1.9366,-1.9366,-1.9366,-1.9366,-1.9366,-1.9366,-1.9366,-1.9366,-1.9366,-1.9366,-1.9366,-1.9366,-1.9366,-1.9366,-1.9366,-1.9366,-1.9366,-1.9366,-1.9366,-1.9366,-1.9366,-1.9366,-0.8038,-0.8038,-0.8062,-0.816,0.0,0.0,0.0,0.0,0.0,0.0,0.0,0.0,0.0,0.0,0.0,0.0,0.0,0.0,0.0,0.0,0.0,0.0,0.0,0.0,0.0,0.0,0.0,0.0,0.0,0.0,-0.9551,-0.9496,-0.9422,-0.9327,-0.9269,-0.9195,-0.9106,-0.9049,-0.9018,-0.9018,-0.8964,-0.8967,-0.9022,-0.9055,-0.9072,-0.9079,-0.9174,-0.9161,-0.9072,-0.9072,-0.9018,-0.8947,-0.9035,-0.913,-0.9222,-0.9276,-0.9354,-0.9445,-0.9503,-0.9581,-0.9652,-0.9652,-0.9652,-0.9891,-1.0833,-1.1232,-1.1519,-1.3177,-1.3703,-1.3613,-1.3575,-1.3995,-1.4483,-1.4452,-1.4473,-1.4852,-1.5886,-1.6138,-1.6615,-1.8169,-1.8525,-1.8648,-1.9249,-1.9366,-1.9366,-1.9366,-1.9366,-1.9366,-1.9366,-1.9366,-1.9366,-1.9366,-1.9366,-1.9366,-1.9366,-1.9366,-1.9366,-1.9366,-1.9366,-1.9366,-1.9366,-1.9366,-1.9366,-1.9366,-1.9366,-1.9366,-1.9366,-1.9366,-1.9366,-1.9366,-1.9366,-1.9366,-0.8038,-0.8038,-0.8075,0.0,0.0,0.0,0.0,0.0,0.0,0.0,0.0,0.0,0.0,0.0,0.0,0.0,0.0,0.0,0.0,0.0,0.0,0.0,0.0,0.0,0.0,0.0,0.0,0.0,0.0,0.0,0.0,-0.9337,-0.9262,-0.9157,-0.911,-0.9039,-0.894,-0.894,-0.894,-0.894,-0.894,-0.894,-0.8944,-0.9086,-0.9154,-0.9161,-0.9313,-0.9296,-0.9157,-0.9205,-0.9167,-0.9083,-0.9133,-0.9245,-0.9388,-0.9435,-0.952,-0.9615,-0.9659,-0.9741,-0.9822,-0.9822,-0.9822,-1.0061,-1.1137,-1.1499,-1.1736,-1.3407,-1.4247,-1.4723,-1.5192,-1.5311,-1.5435,-1.6026,-1.6149,-1.6385,-1.7566,-1.7806,-1.8046,-1.9243,-1.9366,-1.9366,-1.9366,-1.9366,-1.9366,-1.9366,-1.9366,-1.9366,-1.9366,-1.9366,-1.9366,-1.9366,-1.9366,-1.9366,-1.9366,-1.9366,-1.9366,-1.9366,-1.9366,-1.9366,-1.9366,-1.9366,-1.9366,-1.9366,-1.9366,-1.9366,-1.9366,-1.9366,-1.9366,-1.9366,-1.9366,-1.9366,-0.8038,-0.8041,0.0,0.0,0.0,0.0,0.0,0.0,0.0,0.0,0.0,0.0,0.0,0.0,0.0,0.0,0.0,0.0,0.0,0.0,0.0,0.0,0.0,0.0,0.0,0.0,0.0,0.0,0.0,0.0,0.0,-0.9235,-0.915,-0.915,-0.9015,-0.894,-0.894,-0.894,-0.894,-0.894,-0.894,-0.894,-0.8944,-0.9086,-0.9154,-0.9161,-0.9313,-0.9296,-0.9167,-0.9317,-0.9381,-0.9367,-0.9215,-0.9252,-0.9405,-0.9554,-0.9612,-0.9632,-0.9771,-0.9822,-0.9822,-0.9822,-0.9822,-0.9822,-0.9822,-0.9819,-1.0179,-1.1736,-1.3407,-1.4955,-1.6615,-1.6968,-1.7443,-1.901,-1.9366,-1.9366,-1.9366,-1.9366,-1.9366,-1.9366,-1.9366,-1.9366,-1.9366,-1.9366,-1.9366,-1.9366,-1.9366,-1.9366,-1.9366,-1.9366,-1.9366,-1.9366,-1.9366,-1.9366,-1.9366,-1.9366,-1.9366,-1.9366,-1.9366,-1.9366,-1.9366,-1.9366,-1.9366,-1.9366,-1.9366,-1.9366,-1.9366,-1.9366,-1.9366,-1.9366,-1.9366,-1.9366,-0.8038,0.0,0.0,0.0,0.0,0.0,0.0,0.0,0.0,0.0,0.0,0.0,0.0,0.0,0.0,0.0,0.0,0.0,0.0,0.0,0.0,0.0,0.0,0.0,0.0,0.0,0.0,0.0,0.0,0.0,0.0,-0.9028,-0.9001,-0.9001,-0.896,-0.894,-0.894,-0.894,-0.894,-0.894,-0.894,-0.894,-0.8944,-0.9086,-0.9154,-0.9161,-0.9313,-0.9354,-0.9317,-0.9361,-0.9445,-0.9537,-0.9493,-0.9561,-0.9696,-0.9741,-0.9758,-0.9764,-0.9805,-0.9822,-0.9822,-0.9822,-0.9822,-1.0061,-1.1137,-1.1499,-1.2093,-1.4826,-1.5074,-1.5198,-1.7929,-1.7806,-1.7443,-1.901,-1.9366,-1.9366,-1.9366,-1.9366,-1.9366,-1.9366,-1.9366,-1.9366,-1.9366,-1.9366,-1.9366,-1.9366,-1.9366,-1.9366,-1.9366,-1.9366,-1.9366,-1.9366,-1.9366,-1.9366,-1.9366,-1.9366,-1.9366,-1.9366,-1.9366,-1.9366,-1.9366,-1.9366,-1.9366,-1.9366,-1.9366,-1.9366,-1.9366,-1.9366,-1.9366,-1.9366,-1.9366,-1.9366,-0.8113,0.0,0.0,0.0,0.0,0.0,0.0,0.0,0.0,0.0,0.0,0.0,0.0,0.0,0.0,0.0,0.0,0.0,0.0,0.0,0.0,0.0,0.0,0.0,0.0,0.0,0.0,0.0,0.0,0.0,0.0,-0.894,-0.894,-0.894,-0.894,-0.894,-0.894,-0.894,-0.894,-0.894,-0.894,-0.894,-0.8944,-0.9086,-0.9154,-0.9157,-0.9252,-0.9323,-0.9374,-0.9317,-0.9415,-0.9608,-0.9608,-0.9696,-0.9822,-0.9822,-0.9822,-0.9822,-0.9822,-0.9822,-0.9822,-0.9822,-0.9822,-0.994,-1.0899,-1.1736,-1.2569,-1.4589,-1.5306,-1.6026,-1.7929,-1.8163,-1.8163,-1.9127,-1.9366,-1.9366,-1.9366,-1.9366,-1.9366,-1.9366,-1.9366,-1.9366,-1.9366,-1.9366,-1.9366,-1.9366,-1.9366,-1.9366,-1.9366,-1.9366,-1.9366,-1.9366,-1.9366,-1.9366,-1.9366,-1.9366,-1.9366,-1.9366,-1.9366,-1.9366,-1.9366,-1.9366,-1.9366,-1.9366,-1.9366,-1.9366,-1.9366,-1.9366,-1.9366,-1.9366,-1.9366,-1.9366,0.0,0.0,0.0,0.0,0.0,0.0,0.0,0.0,0.0,0.0,0.0,0.0,0.0,0.0,0.0,0.0,0.0,0.0,0.0,0.0,0.0,0.0,0.0,0.0,0.0,0.0,0.0,0.0,0.0,0.0,0.0,-0.894,-0.894,-0.894,-0.894,-0.894,-0.894,-0.894,-0.894,-0.894,-0.894,-0.894,-0.8944,-0.9076,-0.9133,-0.9133,-0.9147,-0.9232,-0.9351,-0.9225,-0.9347,-0.9608,-0.9608,-0.9696,-0.9822,-0.9822,-0.9822,-0.9822,-0.9822,-0.9822,-0.9822,-0.9822,-0.9822,-0.9819,-0.994,-1.102,-1.2213,-1.2569,-1.4708,-1.7085,-1.7202,-1.8286,-1.9366,-1.9366,-1.9366,-1.9366,-1.9366,-1.9366,-1.9366,-1.9366,-1.9366,-1.9366,-1.9366,-1.9366,-1.9366,-1.9366,-1.9366,-1.9366,-1.9366,-1.9366,-1.9366,-1.9366,-1.9366,-1.9366,-1.9366,-1.9366,-1.9366,-1.9366,-1.9366,-1.9366,-1.9366,-1.9366,-1.9366,-1.9366,-1.9366,-1.9366,-1.9366,-1.9366,-1.9366,-1.9366,-1.9366,-1.9366,0.0,0.0,0.0,0.0,0.0,0.0,0.0,0.0,0.0,0.0,0.0,0.0,0.0,0.0,0.0,0.0,0.0,0.0,0.0,0.0,0.0,0.0,0.0,0.0,0.0,0.0,0.0,0.0,0.0,0.0,-0.894,-0.894,-0.894,-0.894,-0.894,-0.894,-0.894,-0.894,-0.894,0.0,-0.894,-0.894,-0.894,-0.8971,-0.8984,-0.8991,-0.9103,-0.9171,-0.9208,-0.9296,-0.9442,-0.9608,-0.9608,-0.9696,-0.9822,-0.9822,-0.9822,-0.9822,-0.9822,-0.9822,-0.9822,-0.9822,-0.9822,-1.0061,-1.1257,-1.1976,-1.2689,-1.53,-1.6492,-1.7325,-1.8525,-1.9127,-1.9366,-1.9366,-1.9366,-1.9366,-1.9366,-1.9366,-1.9366,-1.9366,-1.9366,-1.9366,-1.9366,-1.9366,-1.9366,-1.9366,-1.9366,-1.9366,-1.9366,-1.9366,-1.9366,-1.9366,-1.9366,-1.9366,-1.9366,-1.9366,-1.9366,-1.9366,-1.9366,-1.9366,-1.9366,-1.9366,-1.9366,-1.9366,-1.9366,-1.9366,-1.9366,-1.9366,-1.9366,-1.9366,-1.9366,-1.9366,0.0,0.0,0.0,0.0,0.0,0.0,0.0,0.0,0.0,0.0,0.0,0.0,0.0,0.0,0.0,0.0,0.0,0.0,0.0,0.0,0.0,0.0,0.0,0.0,0.0,0.0,0.0,0.0,0.0,-0.894,-0.894,-0.894,-0.894,-0.894,-0.894,-0.894,-0.894,-0.894,-0.894,-0.894,-0.894,-0.894,-0.894,-0.894,-0.894,-0.8944,-0.9018,-0.9052,-0.9062,-0.9211,-0.9361,-0.9507,-0.9581,-0.9696,-0.9822,-0.9822,-0.9822,-0.9822,-0.9822,-0.9822,-0.9822,-0.9822,-1.0301,-1.1137,-1.1976,-1.2693,-1.3646,-1.5429,-1.6374,-1.7202,-1.8046,-1.8765,-1.9366,-1.9366,-1.9366,-1.9366,-1.9366,-1.9366,-1.9366,-1.9366,-1.9366,-1.9366,-1.9366,-1.9366,-1.9366,-1.9366,-1.9366,-1.9366,-1.9366,-1.9366,-1.9366,-1.9366,-1.9366,-1.9366,-1.9366,-1.9366,-1.9366,-1.9366,-1.9366,-1.9366,-1.9366,-1.9366,-1.9366,-1.9366,-1.9366,-1.9366,-1.9366,-1.9366,-1.9366,-1.9366,-1.9366,-1.9366,0.0,0.0,0.0,0.0,0.0,0.0,0.0,0.0,0.0,0.0,0.0,0.0,0.0,0.0,0.0,0.0,0.0,0.0,0.0,0.0,0.0,0.0,0.0,0.0,0.0,0.0,0.0,0.0,0.0,-0.894,-0.894,-0.894,-0.894,-0.894,-0.894,-0.894,-0.894,-0.894,-0.894,-0.894,-0.894,-0.894,-0.894,-0.894,-0.894,-0.894,-0.894,-0.894,-0.8947,-0.9066,-0.9222,-0.9395,-0.952,-0.9673,-0.9822,-0.9822,-0.9822,-0.9822,-0.9822,-0.9822,-0.9822,-0.9822,-1.0657,-1.1856,-1.2097,-1.3172,-1.4242,-1.4837,-1.602,-1.7085,-1.7325,-1.8402,-1.9366,-1.9366,-1.9366,-1.9366,-1.9366,-1.9366,-1.9366,-1.9366,-1.9366,-1.9366,-1.9366,-1.9366,-1.9366,-1.9366,-1.9412,-1.9446,-1.9446,-1.9446,-1.9446,-1.9446,-1.9399,-1.9366,-1.9366,-1.9412,-1.9446,-1.9446,-1.9446,-1.9446,-1.9446,-1.9392,-1.9366,-1.9366,-1.9366,-1.9366,-1.9366,-1.9366,-1.9366,-1.9366,-1.9366,-1.9366,0.0,0.0,0.0,0.0,0.0,0.0,0.0,0.0,0.0,0.0,0.0,0.0,0.0,0.0,0.0,0.0,0.0,0.0,0.0,0.0,0.0,0.0,0.0,0.0,0.0,0.0,0.0,0.0,-0.894,-0.894,-0.894,-0.894,-0.894,-0.894,-0.894,-0.894,-0.894,-0.894,-0.894,-0.894,-0.894,-0.894,-0.894,-0.894,-0.894,-0.894,-0.894,-0.894,-0.894,-0.896,-0.913,-0.9384,-0.9405,-0.9581,-0.9822,-0.9822,-0.9822,-0.9822,-0.9822,-0.9822,-0.9822,-0.9822,-0.994,-1.0418,-1.1736,-1.2333,-1.3048,-1.5897,-1.685,-1.7325,-1.8765,-1.9243,-1.9366,-1.9366,-1.9366,-1.9366,-1.9366,-1.9366,-1.9366,-1.9366,-1.9366,-1.9366,-1.9366,-1.9366,-1.9366,-1.9366,-1.9579,-1.974,-1.974,-1.974,-1.974,-1.974,-1.9519,-1.9366,-1.9366,-1.9599,-1.974,-1.974,-1.974,-1.974,-1.974,-1.9499,-1.9366,-1.9366,-1.9366,-1.9366,-1.9366,-1.9366,-1.9366,-1.9366,-1.9366,-1.9366,0.0,0.0,0.0,0.0,0.0,0.0,0.0,0.0,0.0,0.0,0.0,0.0,0.0,0.0,0.0,0.0,0.0,0.0,0.0,0.0,0.0,0.0,0.0,0.0,0.0,0.0,0.0,0.0,-0.894,-0.894,-0.894,-0.894,-0.894,-0.894,-0.894,-0.894,-0.894,-0.894,-0.894,-0.894,-0.894,-0.894,-0.894,-0.894,-0.894,-0.8944,-0.9025,-0.9059,-0.9066,-0.915,-0.9313,-0.951,-0.951,-0.9635,-0.9822,-0.9822,-0.9822,-0.9822,-0.9822,-0.9822,-0.9822,-0.9822,-1.102,-1.2573,-1.3292,-1.4118,-1.5182,-1.6609,-1.6968,-1.7202,-1.7923,-1.8765,-1.9366,-1.9366,-1.9366,-1.9366,-1.9366,-1.9366,-1.9366,-1.9366,-1.9366,-1.9366,-1.9366,-1.9499,-1.9606,-1.9606,-1.986,-2.004,-2.004,-2.004,-2.004,-2.004,-1.9927,-1.9853,-1.9853,-1.9967,-2.004,-2.004,-2.004,-2.004,-2.004,-1.992,-1.9853,-1.9853,-1.9533,-1.9366,-1.9366,-1.9366,-1.9366,-1.9366,-1.9366,-1.9366,0.0,0.0,0.0,0.0,0.0,0.0,0.0,0.0,0.0,0.0,0.0,0.0,0.0,0.0,0.0,0.0,0.0,0.0,0.0,0.0,0.0,0.0,0.0,0.0,0.0,0.0,0.0,0.0,-0.894,-0.894,-0.894,-0.894,-0.894,-0.894,-0.894,-0.894,-0.894,-0.894,-0.894,-0.894,-0.894,-0.894,-0.894,-0.894,-0.894,-0.8947,-0.9089,-0.9154,-0.9164,-0.9317,-0.9469,-0.9608,-0.9608,-0.9696,-0.9822,-0.9822,-0.9822,-0.9822,-0.9822,-0.9822,-0.9819,-1.0301,-1.1976,-1.4123,-1.4485,-1.5429,-1.6492,-1.6844,-1.6968,-1.7085,-1.7443,-1.8519,-1.9366,-1.9366,-1.9366,-1.9366,-1.9366,-1.9366,-1.9366,-1.9366,-1.9366,-1.9366,-1.9366,-1.9606,-1.98,-1.98,-2.0114,-2.0341,-2.0341,-2.0341,-2.0341,-2.0341,-2.0274,-2.0234,-2.0234,-2.0301,-2.0341,-2.0341,-2.0341,-2.0341,-2.0341,-2.0274,-2.0234,-2.0234,-1.9806,-1.9553,-1.9472,-1.9406,-1.9366,-1.9366,-1.9366,-1.9366,0.0,0.0,0.0,0.0,0.0,0.0,0.0,0.0,0.0,0.0,0.0,0.0,0.0,0.0,0.0,0.0,0.0,0.0,0.0,0.0,0.0,0.0,0.0,0.0,0.0,0.0,0.0,0.0,-0.894,-0.894,-0.894,-0.894,-0.894,-0.894,-0.894,-0.894,-0.894,-0.894,-0.894,-0.894,-0.894,-0.894,-0.894,-0.894,-0.894,-0.8947,-0.9089,-0.9154,-0.9164,-0.9317,-0.9469,-0.9608,-0.9608,-0.9696,-0.9822,-0.9822,-0.9822,-0.9822,-0.9822,-0.9822,-1.0061,-1.1619,-1.2213,-1.2573,-1.4128,-1.4604,-1.5074,-1.6615,-1.6968,-1.7325,-1.8887,-1.9366,-1.9366,-1.9366,-1.9366,-1.9366,-1.9366,-1.9366,-1.9366,-1.9366,-1.9366,-1.9366,-1.9366,-1.9606,-1.98,-1.98,-2.0287,-2.0655,-2.0655,-2.0655,-2.0655,-2.0655,-2.0401,-2.0234,-2.0234,-2.0494,-2.0655,-2.0655,-2.0655,-2.0655,-2.0655,-2.0381,-2.0234,-2.0234,-2.0201,-2.0054,-1.978,-1.9499,-1.9366,-1.9366,-1.9366,-1.9366,0.0,0.0,0.0,0.0,0.0,0.0,0.0,0.0,0.0,0.0,0.0,0.0,0.0,0.0,0.0,0.0,0.0,0.0,0.0,0.0,0.0,0.0,0.0,0.0,0.0,0.0,0.0,0.0,0.0,-0.894,-0.894,-0.894,-0.894,-0.894,-0.894,-0.894,-0.894,-0.894,-0.894,-0.894,-0.894,-0.894,-0.894,-0.894,-0.894,-0.8954,-0.9195,-0.93,-0.9317,-0.9561,-0.9696,-0.9744,-0.9744,-0.9778,-0.9822,-0.9822,-0.9822,-0.9822,-0.9822,-1.0539,-1.1499,-1.1976,-1.3641,-1.5424,-1.602,-1.6856,-1.7812,-1.8402,-1.8525,-1.8642,-1.9249,-1.9366,-1.9412,-1.9599,-1.9506,-1.9466,-1.9846,-1.9633,-1.9366,-1.9366,-1.9519,-1.9646,-1.9646,-2.0047,-2.0361,-2.0361,-2.0702,-2.0955,-2.0955,-2.0955,-2.0955,-2.0955,-2.0855,-2.0795,-2.0795,-2.0889,-2.0955,-2.0955,-2.0955,-2.0955,-2.0955,-2.0848,-2.0795,-2.0795,-2.0615,-2.0374,-2.008,-1.9973,-1.992,-1.992,-1.9733,-1.9746,0.0,0.0,0.0,0.0,0.0,0.0,0.0,0.0,0.0,0.0,0.0,0.0,0.0,0.0,0.0,0.0,0.0,0.0,0.0,0.0,0.0,0.0,0.0,0.0,0.0,0.0,0.0,0.0,0.0,0.0,-0.894,-0.894,-0.894,-0.894,-0.894,-0.894,-0.894,-0.894,-0.894,-0.894,-0.894,-0.894,-0.894,-0.894,-0.8964,-0.9025,-0.9838,-0.9957,-0.9405,-0.97,-0.9822,-0.9822,-1.0418,-1.066,-1.066,-1.1257,-1.1378,-1.1378,-1.1378,-1.2093,-1.3048,-1.3641,-1.53,-1.7085,-1.7683,-1.8525,-1.9366,-1.9366,-1.9366,-1.9366,-1.9366,-1.9366,-1.9439,-1.9733,-1.9653,-1.9646,-2.0127,-1.9853,-1.9539,-1.9639,-1.9813,-1.9947,-1.9947,-2.0347,-2.0675,-2.0675,-2.0922,-2.1109,-2.1109,-2.1109,-2.1109,-2.1109,-2.1109,-2.1109,-2.1109,-2.1109,-2.1109,-2.1109,-2.1109,-2.1109,-2.1109,-2.1109,-2.1109,-2.1109,-2.0922,-2.0722,-2.0528,-2.0327,-2.0234,-2.0227,-2.0034,-2.0047,0.0,0.0,0.0,0.0,0.0,0.0,0.0,0.0,0.0,0.0,0.0,0.0,0.0,0.0,0.0,0.0,0.0,0.0,0.0,0.0,0.0,0.0,0.0,0.0,0.0,0.0,0.0,0.0,-0.894,-0.894,-0.894,-0.894,-0.894,-0.894,-0.894,-0.894,-0.894,-0.894,-0.894,-0.894,-0.894,-0.894,-0.894,-0.8937,-0.9126,-0.9387,-1.1126,-1.0978,-0.9518,-0.9816,-0.994,-1.0061,-1.1615,-1.2213,-1.2453,-1.4004,-1.4604,-1.4604,-1.4604,-1.4604,-1.4955,-1.6492,-1.7085,-1.7325,-1.8887,-1.9366,-1.9366,-1.9366,-1.9366,-1.9366,-1.9366,-1.9366,-1.9439,-1.9733,-1.98,-1.9887,-2.018,-2.0027,-1.9907,-2.018,-2.0241,-2.0247,-2.0247,-2.0494,-2.0688,-2.0688,-2.0929,-2.1109,-2.1109,-2.1109,-2.1109,-2.1109,-2.1109,-2.1109,-2.1109,-2.1109,-2.1109,-2.1109,-2.1109,-2.1109,-2.1109,-2.1109,-2.1109,-2.1109,-2.1109,-2.1109,-2.1109,-2.0535,-2.0261,-2.0261,-2.0261,-2.0254,-0.8038,0.0,0.0,0.0,0.0,0.0,0.0,0.0,0.0,0.0,0.0,0.0,0.0,0.0,0.0,0.0,0.0,0.0,0.0,0.0,0.0,0.0,0.0,0.0,0.0,0.0,0.0,0.0,-0.894,-0.894,-0.894,-0.894,-0.894,-0.894,-0.894,-0.894,-0.894,-0.894,-0.894,-0.894,-0.894,-0.894,-0.8937,-1.0025,-1.0659,-1.094,-1.2445,-1.289,-1.2712,-1.3122,-1.3287,-1.3287,-1.3765,-1.3889,-1.4004,-1.4485,-1.4604,-1.4604,-1.4604,-1.5311,-1.6374,-1.685,-1.7806,-1.8765,-1.9243,-1.9366,-1.9366,-1.9366,-1.9366,-1.9366,-1.9366,-1.9366,-1.9439,-1.9733,-1.98,-1.994,-2.0448,-2.0488,-2.0394,-2.0261,-2.0408,-2.0555,-2.0555,-2.0795,-2.0989,-2.0989,-2.1056,-2.1109,-2.1109,-2.1109,-2.1109,-2.1109,-2.1109,-2.1109,-2.1109,-2.1109,-2.1109,-2.1109,-2.1109,-2.1109,-2.1109,-2.1109,-2.1109,-2.1109,-2.1109,-2.1109,-2.1109,-2.0942,-2.0869,-2.0869,-2.0869,-2.0755,0.0,0.0,0.0,0.0,0.0,0.0,-0.8153,-0.8225,0.0,0.0,0.0,0.0,0.0,0.0,0.0,0.0,0.0,0.0,0.0,0.0,0.0,0.0,0.0,0.0,0.0,-0.894,-0.894,-0.894,-0.894,-0.894,-0.894,-0.894,-0.894,-0.894,-0.894,-0.894,-0.894,-0.9482,-0.9805,-0.9809,-1.0457,-1.0781,-1.0781,-1.1647,-1.2234,-1.2613,-1.3971,-1.4729,-1.5264,-1.6031,-1.5637,-1.4462,-1.5268,-1.5548,-1.5666,-1.6385,-1.6626,-1.6626,-1.6626,-1.7214,-1.8046,-1.8046,-1.8642,-1.9366,-1.9366,-1.9366,-1.9366,-1.9366,-1.9366,-1.9366,-1.9366,-1.9459,-1.9619,-1.9913,-2.0074,-2.0294,-2.0762,-2.0855,-2.0808,-2.0628,-2.0735,-2.0855,-2.0855,-2.0995,-2.1109,-2.1109,-2.1109,-2.1109,-2.1109,-2.1109,-2.1109,-2.1109,-2.1109,-2.1109,-2.1109,-2.1109,-2.1109,-2.1109,-2.1109,-2.1109,-2.1109,-2.1109,-2.1109,-2.1109,-2.1109,-2.1109,-2.1109,-2.1109,-2.1109,-2.1109,-2.1109,-2.1022,0.0,0.0,0.0,0.0,0.0,0.0,-0.8041,-0.8147,-0.8248,0.0,0.0,0.0,0.0,0.0,0.0,0.0,0.0,0.0,0.0,0.0,0.0,0.0,0.0,0.0,-0.894,-0.894,-0.894,-0.894,-0.894,-0.894,-0.894,-0.894,-0.894,-0.894,-0.894,-0.894,-0.894,-1.0347,-1.1105,-1.1109,-1.262,-1.3264,-1.3264,-1.348,-1.3717,-1.422,-1.5574,-1.6558,-1.7223,-1.8428,-1.7297,-1.4887,-1.6634,-1.7325,-1.7443,-1.8881,-1.9366,-1.9366,-1.9366,-1.9366,-1.9366,-1.9366,-1.9366,-1.9366,-1.9366,-1.9366,-1.9366,-1.9366,-1.9366,-1.9366,-1.9366,-1.9559,-1.982,-2.0074,-2.0361,-2.0655,-2.0949,-2.1036,-2.1069,-2.1102,-2.1109,-2.1109,-2.1109,-2.1109,-2.1109,-2.1109,-2.1109,-2.1109,-2.1109,-2.1109,-2.1109,-2.1109,-2.1109,-2.1109,-2.1109,-2.1109,-2.1109,-2.1109,-2.1109,-2.1109,-2.1109,-2.1109,-2.1109,-2.1109,-2.1109,-2.1109,-2.1109,-2.1109,-2.1109,-2.1109,-2.1109,-2.1109,0.0,0.0,0.0,0.0,0.0,0.0,-0.8069,-0.8062,-0.8119,0.0,0.0,0.0,0.0,0.0,0.0,0.0,0.0,0.0,0.0,0.0,0.0,0.0,0.0,0.0,-0.894,-0.894,-0.894,-0.894,-0.894,-0.894,-0.894,-0.894,-0.894,-0.894,-0.894,-0.894,-0.894,-1.0347,-1.1105,-1.1109,-1.262,-1.3264,-1.3372,-1.4449,-1.515,-1.5545,-1.6951,-1.7825,-1.8209,-1.8731,-1.8709,-1.8448,-1.8745,-1.8887,-1.9004,-1.9249,-1.9366,-1.9366,-1.9366,-1.9366,-1.9366,-1.9366,-1.9366,-1.9366,-1.9366,-1.9366,-1.9366,-1.9366,-1.9366,-1.9366,-1.9366,-1.9412,-1.9466,-1.9519,-1.976,-2.0054,-2.0341,-2.0595,-2.0828,-2.1062,-2.1109,-2.1109,-2.1109,-2.1109,-2.1109,-2.1109,-2.1109,-2.1109,-2.1109,-2.1109,-2.1109,-2.1109,-2.1109,-2.1109,-2.1109,-2.1109,-2.1109,-2.1109,-2.1109,-2.1109,-2.1109,-2.1109,-2.1109,-2.1109,-2.1109,-2.1109,-2.1109,-2.1109,-2.1109,-2.1109,-2.1109,-2.1109,0.0,0.0,0.0,-0.8377,0.0,0.0,0.0,-0.8096,-0.8062,-0.814,0.0,0.0,0.0,0.0,0.0,0.0,0.0,0.0,0.0,0.0,0.0,0.0,0.0,0.0,-0.894,-0.894,-0.894,-0.894,-0.9588,-0.9699,-0.8937,-0.9588,-1.0025,-1.0025,-1.0025,-1.0347,-1.1105,-1.2507,-1.3259,-1.3264,-1.477,-1.5423,-1.5417,-1.6174,-1.6656,-1.7034,-1.7711,-1.8297,-1.8718,-1.8865,-1.9098,-1.9366,-1.9366,-1.9366,-1.9366,-1.9366,-1.9366,-1.9366,-1.9366,-1.9366,-1.9366,-1.9366,-1.9366,-1.9366,-1.9366,-1.9366,-1.9366,-1.9366,-1.9366,-1.9366,-1.9366,-1.9586,-1.98,-1.98,-2.0134,-2.0494,-2.0641,-2.0788,-2.0935,-2.1082,-2.1109,-2.1109,-2.1109,-2.1109,-2.1109,-2.1109,-2.1109,-2.1109,-2.1109,-2.1109,-2.1109,-2.1109,-2.1109,-2.1109,-2.1109,-2.1109,-2.1109,-2.1109,-2.1109,-2.1109,-2.1109,-2.1109,-2.1109,-2.1109,-2.1109,-2.1109,-2.1109,-2.1109,-2.1109,-2.1109,-2.1109,-2.1109,0.0,0.0,0.0,0.0,0.0,-0.8347,0.0,0.0,0.0,-0.8082,0.0,0.0,0.0,0.0,0.0,0.0,0.0,0.0,0.0,0.0,0.0,0.0,0.0,0.0,0.0,-0.892,-0.9047,-0.9265,-1.0457,-1.0672,-0.9809,-1.0566,-1.1214,-1.1538,-1.1214,-1.1864,-1.3264,-1.4663,-1.5417,-1.5417,-1.6929,-1.7582,-1.7582,-1.7582,-1.7716,-1.7963,-1.8083,-1.8404,-1.8844,-1.8958,-1.9152,-1.9366,-1.9366,-1.9366,-1.9366,-1.9366,-1.9366,-1.9366,-1.9366,-1.9366,-1.9366,-1.9366,-1.9366,-1.9366,-1.9366,-1.9366,-1.9366,-1.9366,-1.9366,-1.9379,-1.9432,-1.98,-2.0167,-2.0221,-2.0595,-2.0942,-2.0942,-2.0989,-2.1029,-2.1029,-2.1069,-2.1109,-2.1109,-2.1109,-2.1109,-2.1109,-2.1109,-2.1109,-2.1109,-2.1109,-2.1109,-2.1109,-2.1109,-2.1109,-2.1109,-2.1109,-2.1109,-2.1109,-2.1109,-2.1109,-2.1109,-2.1109,-2.1109,-2.1109,-2.1109,-2.1109,-2.1109,-2.1109,-2.1109,-2.1109,-2.1109,-2.1109,0.0,0.0,0.0,0.0,-0.8672,0.0,0.0,0.0,-0.8245,-0.8245,0.0,0.0,0.0,0.0,0.0,0.0,0.0,0.0,0.0,0.0,0.0,0.0,0.0,0.0,0.0,-0.8859,-0.9482,-1.0781,-1.1,-1.1647,-1.2724,-1.1755,-1.1647,-1.3048,-1.1755,-1.1864,-1.3264,-1.4663,-1.5417,-1.5417,-1.6929,-1.7582,-1.7582,-1.7582,-1.7602,-1.7662,-1.8203,-1.8477,-1.8584,-1.9105,-1.9339,-1.9366,-1.9366,-1.9366,-1.9366,-1.9366,-1.9366,-1.9366,-1.9366,-1.9366,-1.9366,-1.9366,-1.9366,-1.9366,-1.9366,-1.9366,-1.9366,-1.9366,-1.9366,-1.9426,-1.9686,-1.98,-1.9913,-2.0174,-2.0281,-2.0334,-2.0334,-2.0541,-2.0728,-2.0728,-2.0935,-2.1109,-2.1109,-2.1109,-2.1109,-2.1109,-2.1109,-2.1109,-2.1109,-2.1109,-2.1109,-2.1109,-2.1109,-2.1109,-2.1109,-2.1109,-2.1109,-2.1109,-2.1109,-2.1109,-2.1109,-2.1109,-2.1109,-2.1109,-2.1109,-2.1109,-2.1109,-2.1109,-2.1109,-2.1109,-2.1109,-2.1109,0.0,0.0,0.0,0.0,0.0,0.0,-0.8628,0.0,-0.8394,0.0,0.0,0.0,0.0,0.0,0.0,0.0,-0.8877,0.0,0.0,0.0,0.0,0.0,0.0,0.0,0.0,0.0,0.0,0.0,-1.162,-1.2428,-1.2966,-1.3408,-1.3911,-1.4449,-1.3911,-1.4341,-1.5743,-1.6393,-1.6711,-1.6711,-1.7259,-1.7582,-1.7582,-1.7582,-1.7582,-1.7615,-1.8223,-1.849,-1.8537,-1.9125,-1.9265,-1.9112,-1.9112,-1.9219,-1.9366,-1.9366,-1.9366,-1.9366,-1.9366,-1.9366,-1.9366,-1.9366,-1.9366,-1.9366,-1.9366,-1.9366,-1.9366,-1.9366,-1.9366,-1.9432,-1.9726,-1.9927,-2.0127,-2.0421,-2.0615,-2.0742,-2.0742,-2.0842,-2.0929,-2.0929,-2.1029,-2.1109,-2.1109,-2.1109,-2.1109,-2.1109,-2.1109,-2.1109,-2.1109,-2.1109,-2.1109,-2.1109,-2.1109,-2.1109,-2.1109,-2.1109,-2.1109,-2.1109,-2.1109,-2.1109,-2.1109,-2.1109,-2.1109,-2.1109,-2.1109,-2.1109,-2.1109,-2.1109,-2.1109,-2.1109,-2.1109,-2.1109,-0.9047,0.0,0.0,0.0,0.0,0.0,0.0,0.0,0.0,0.0,0.0,0.0,0.0,0.0,0.0,0.0,0.0,-0.8574,0.0,0.0,0.0,0.0,0.0,0.0,0.0,0.0,0.0,-1.147,-1.2799,-1.3661,-1.398,-1.4853,-1.563,-1.5956,-1.563,-1.6068,-1.7582,-1.7582,-1.7582,-1.7582,-1.7582,-1.7582,-1.7582,-1.7582,-1.7582,-1.7615,-1.8223,-1.849,-1.8537,-1.9125,-1.9192,-1.8931,-1.9011,-1.9125,-1.9245,-1.9245,-1.9299,-1.9366,-1.9366,-1.9366,-1.9366,-1.9366,-1.9366,-1.9366,-1.9366,-1.9366,-1.9366,-1.9366,-1.9426,-1.9533,-1.9746,-2.0074,-2.0408,-2.0621,-2.0895,-2.1089,-2.1009,-2.1049,-2.1082,-2.1002,-2.1056,-2.1109,-2.1109,-2.1109,-2.1109,-2.1109,-2.1109,-2.1109,-2.1109,-2.1109,-2.1109,-2.1109,-2.1109,-2.1109,-2.1109,-2.1109,-2.1109,-2.1109,-2.1109,-2.1109,-2.1109,-2.1109,-2.1109,-2.1109,-2.1109,-2.1109,-2.1109,-2.1109,-2.1109,-2.1109,-2.1109,-2.1109,0.0,0.0,0.0,-0.9265,0.0,0.0,0.0,0.0,-0.8703,0.0,0.0,0.0,0.0,0.0,0.0,0.0,0.0,0.0,0.0,0.0,0.0,0.0,0.0,0.0,0.0,0.0,-1.2915,-1.4349,-1.4785,-1.5567,-1.6935,-1.6026,-1.6062,-1.747,-1.6174,-1.6068,-1.7582,-1.7582,-1.7582,-1.7582,-1.7582,-1.7582,-1.7582,-1.7582,-1.7582,-1.7615,-1.8223,-1.849,-1.8537,-1.9125,-1.9192,-1.8951,-1.9239,-1.9185,-1.8938,-1.8938,-1.9118,-1.9366,-1.9366,-1.9366,-1.9366,-1.9366,-1.9366,-1.9366,-1.9366,-1.9366,-1.9366,-1.9366,-1.9573,-1.9786,-1.98,-2.0227,-2.0668,-2.0675,-2.0895,-2.1036,-2.0755,-2.0909,-2.1029,-2.0742,-2.0915,-2.1109,-2.1109,-2.1109,-2.1109,-2.1109,-2.1109,-2.1109,-2.1109,-2.1109,-2.1109,-2.1109,-2.1109,-2.1109,-2.1109,-2.1109,-2.1109,-2.1109,-2.1109,-2.1109,-2.1109,-2.1109,-2.1109,-2.1109,-2.1109,-2.1109,-2.1109,-2.1109,-2.1109,-2.1109,-2.1109,-2.1109,0.0,0.0,-0.9482,-0.9047,0.0,0.0,0.0,0.0,0.0,0.0,0.0,0.0,0.0,0.0,0.0,0.0,0.0,0.0,0.0,0.0,0.0,0.0,0.0,0.0,0.0,0.0,0.0,-1.2662,-1.3079,-1.4297,-1.6739,-1.671,-1.6951,-1.7575,-1.7147,-1.7147,-1.7582,-1.7582,-1.7582,-1.7582,-1.7582,-1.7582,-1.7582,-1.7582,-1.7582,-1.7615,-1.8223,-1.849,-1.8537,-1.9125,-1.9192,-1.8931,-1.9032,-1.9011,-1.8945,-1.9145,-1.9279,-1.9366,-1.9366,-1.9366,-1.9366,-1.9366,-1.9366,-1.9366,-1.9366,-1.9366,-1.9366,-1.9366,-1.9439,-1.9559,-1.9746,-2.0087,-2.0434,-2.0628,-2.0895,-2.1082,-2.0982,-2.1042,-2.1082,-2.0982,-2.1042,-2.1109,-2.1109,-2.1109,-2.1109,-2.1109,-2.1109,-2.1109,-2.1109,-2.1109,-2.1109,-2.1109,-2.1109,-2.1109,-2.1109,-2.1109,-2.1109,-2.1109,-2.1109,-2.1109,-2.1109,-2.1109,-2.1109,-2.1109,-2.1109,-2.1109,-2.1109,-2.1109,-2.1109,-2.1109,-2.1109,-2.1109,-1.0562,-1.0781,0.0,-1.0566,-1.0021,0.0,-0.9699,0.0,-0.894,0.0,0.0,0.0,0.0,0.0,0.0,0.0,0.0,0.0,0.0,-1.2813,0.0,0.0,0.0,0.0,0.0,0.0,-1.1745,-1.2522,-1.2937,-1.4178,0.0,0.0,-1.7281,-1.7569,-1.7582,-1.7582,-1.7582,-1.7582,-1.7582,-1.7582,-1.7582,-1.7582,-1.7582,-1.7582,-1.7582,-1.7615,-1.8223,-1.849,-1.8537,-1.9125,-1.9192,-1.8931,-1.9038,-1.9018,-1.8945,-1.9138,-1.9279,-1.9366,-1.9366,-1.9366,-1.9366,-1.9366,-1.9366,-1.9366,-1.9366,-1.9366,-1.9392,-1.9492,-1.9593,-1.972,-1.9907,-2.0247,-2.0568,-2.0655,-2.0895,-2.1109,-2.1109,-2.1109,-2.1109,-2.1109,-2.1109,-2.1109,-2.1109,-2.1109,-2.1109,-2.1109,-2.1109,-2.1109,-2.1109,-2.1109,-2.1109,-2.1109,-2.1109,-2.1109,-2.1109,-2.1109,-2.1109,-2.1109,-2.1601,-2.1971,-2.1971,-2.1971,-2.2076,-2.2285,-2.1463,-2.1209,-2.1423,-2.1209,-2.1109,-2.1109,-2.1109,-2.1109]},{"header":{"parameterUnit":"m.s-1","parameterCategory":1,"la1":30.6,"la2":29.2853,"lo1":-89.7004,"lo2":-87.6739,"dy":0.0162,"dx":0.0183,"nx":112,"ny":82,"refTime":"2023-07-20T00:00:00:Z","depth":0,"parameterNumber":3,"parameterNumberName":"V-component_of_WINDS"},"data":[0.0,0.0,0.0,0.0,0.0,0.0,0.0,0.0,0.0,0.0,0.0,0.0,0.0,0.0,0.0,0.0,0.0,0.0,0.0,0.0,0.0,0.0,0.0,0.0,0.0,0.0,0.0,0.0,0.0,0.0,0.0,0.0,0.0,0.0,0.0,0.0,0.0,0.0,0.0,0.0,0.0,0.0,0.0,0.0,0.0,0.0,0.0,0.0,0.0,0.0,0.0,0.0,0.0,0.0,0.0,0.0,0.0,0.0,0.0,0.0,0.0,0.0,0.0,0.0,0.0,0.0,0.0,0.0,0.0,0.0,0.0,0.0,0.0,0.0,0.0,0.0,0.0,0.0,0.0,0.0,0.0,0.0,0.0,0.0,0.0,0.0,0.0,0.0,0.0,0.0,0.0,-2.7363,-2.8848,-3.0098,-3.084,-3.0885,-3.0813,-3.0709,0.0,0.0,0.0,0.0,0.0,0.0,0.0,0.0,0.0,0.0,0.0,0.0,0.0,0.0,0.0,0.0,0.0,0.0,0.0,0.0,0.0,0.0,0.0,0.0,0.0,0.0,0.0,0.0,0.0,0.0,0.0,0.0,0.0,0.0,0.0,0.0,0.0,0.0,0.0,0.0,0.0,0.0,0.0,0.0,0.0,0.0,0.0,0.0,0.0,0.0,0.0,0.0,0.0,0.0,0.0,0.0,0.0,0.0,0.0,0.0,0.0,0.0,0.0,0.0,0.0,0.0,0.0,0.0,0.0,0.0,0.0,0.0,0.0,0.0,0.0,0.0,0.0,0.0,0.0,0.0,0.0,0.0,0.0,0.0,0.0,0.0,0.0,0.0,0.0,0.0,0.0,0.0,0.0,0.0,0.0,0.0,0.0,0.0,0.0,0.0,0.0,0.0,0.0,0.0,-2.7578,-2.9043,-3.0098,-3.0762,-3.0898,-3.0797,-3.0728,-3.0706,0.0,0.0,0.0,0.0,0.0,0.0,0.0,0.0,0.0,0.0,0.0,0.0,0.0,0.0,0.0,0.0,0.0,0.0,0.0,0.0,0.0,0.0,0.0,0.0,0.0,0.0,0.0,0.0,0.0,0.0,0.0,0.0,0.0,0.0,0.0,0.0,0.0,0.0,0.0,0.0,0.0,0.0,0.0,0.0,0.0,0.0,0.0,0.0,0.0,0.0,0.0,0.0,0.0,0.0,0.0,0.0,0.0,0.0,0.0,0.0,0.0,0.0,0.0,0.0,0.0,0.0,0.0,0.0,0.0,0.0,0.0,0.0,0.0,0.0,0.0,0.0,0.0,0.0,0.0,0.0,0.0,0.0,0.0,0.0,0.0,0.0,0.0,0.0,0.0,0.0,0.0,0.0,0.0,0.0,0.0,0.0,0.0,0.0,0.0,0.0,0.0,0.0,0.0,-2.7422,-2.832,-3.0117,-3.0664,-3.0898,-3.0898,-3.084,-3.0781,-3.0706,-3.0645,0.0,0.0,0.0,0.0,0.0,0.0,0.0,0.0,0.0,0.0,0.0,0.0,0.0,0.0,0.0,0.0,0.0,0.0,0.0,0.0,0.0,0.0,0.0,0.0,0.0,0.0,0.0,0.0,0.0,0.0,0.0,0.0,0.0,0.0,0.0,0.0,0.0,0.0,0.0,0.0,0.0,0.0,0.0,0.0,0.0,0.0,0.0,0.0,0.0,0.0,0.0,0.0,0.0,0.0,0.0,0.0,0.0,0.0,0.0,0.0,0.0,0.0,0.0,0.0,0.0,0.0,0.0,0.0,0.0,0.0,0.0,0.0,0.0,0.0,0.0,0.0,0.0,0.0,0.0,0.0,0.0,0.0,0.0,0.0,0.0,0.0,0.0,0.0,0.0,0.0,0.0,0.0,0.0,0.0,0.0,0.0,0.0,0.0,0.0,0.0,0.0,0.0,-2.8551,-2.9141,-3.0723,-3.0898,-3.0898,-3.0898,-3.1094,-3.1142,-3.0984,-3.0934,0.0,0.0,0.0,0.0,0.0,0.0,0.0,0.0,0.0,0.0,0.0,0.0,0.0,0.0,0.0,0.0,0.0,0.0,0.0,0.0,0.0,0.0,0.0,0.0,0.0,0.0,0.0,0.0,0.0,0.0,0.0,0.0,0.0,0.0,0.0,0.0,0.0,0.0,0.0,0.0,0.0,0.0,0.0,0.0,0.0,0.0,0.0,0.0,0.0,0.0,0.0,0.0,0.0,0.0,0.0,0.0,0.0,0.0,0.0,0.0,0.0,0.0,0.0,0.0,0.0,0.0,0.0,0.0,0.0,0.0,0.0,0.0,0.0,0.0,0.0,0.0,0.0,0.0,0.0,0.0,0.0,0.0,0.0,0.0,0.0,0.0,0.0,0.0,0.0,0.0,0.0,0.0,0.0,0.0,0.0,0.0,0.0,0.0,0.0,0.0,0.0,0.0,-2.9499,-2.9863,-3.0801,-3.0898,-3.0898,-3.0898,-3.1641,-3.2018,-3.1838,-3.1806,0.0,0.0,0.0,0.0,0.0,0.0,0.0,0.0,0.0,0.0,0.0,0.0,0.0,0.0,0.0,0.0,0.0,0.0,0.0,0.0,0.0,0.0,0.0,0.0,0.0,0.0,0.0,0.0,0.0,0.0,0.0,0.0,0.0,0.0,0.0,0.0,0.0,0.0,0.0,0.0,0.0,0.0,0.0,0.0,0.0,0.0,0.0,0.0,0.0,0.0,0.0,0.0,0.0,0.0,0.0,0.0,0.0,0.0,0.0,0.0,0.0,0.0,0.0,0.0,0.0,0.0,0.0,0.0,0.0,0.0,0.0,0.0,0.0,0.0,0.0,0.0,0.0,0.0,0.0,0.0,0.0,0.0,0.0,0.0,0.0,0.0,0.0,0.0,0.0,0.0,0.0,0.0,0.0,0.0,0.0,0.0,0.0,0.0,0.0,0.0,0.0,0.0,-2.9557,-3.0102,0.0,-3.1719,-3.1914,-3.2422,-3.2754,-3.2898,-3.278,0.0,0.0,0.0,0.0,0.0,0.0,0.0,0.0,0.0,0.0,0.0,0.0,0.0,0.0,0.0,0.0,0.0,0.0,0.0,0.0,0.0,0.0,0.0,0.0,0.0,0.0,0.0,0.0,0.0,0.0,0.0,0.0,0.0,0.0,0.0,0.0,0.0,0.0,0.0,0.0,0.0,0.0,0.0,0.0,0.0,0.0,0.0,0.0,0.0,0.0,0.0,0.0,0.0,0.0,0.0,0.0,0.0,0.0,0.0,0.0,0.0,0.0,0.0,0.0,0.0,0.0,0.0,0.0,0.0,0.0,0.0,0.0,0.0,0.0,0.0,0.0,0.0,0.0,0.0,0.0,0.0,0.0,0.0,0.0,0.0,0.0,0.0,0.0,0.0,0.0,0.0,0.0,0.0,0.0,0.0,0.0,0.0,0.0,0.0,0.0,0.0,0.0,-3.0312,-3.0611,-3.1208,0.0,-3.2578,-3.2793,-3.3359,-3.3652,-3.3785,-3.3712,0.0,0.0,0.0,0.0,0.0,0.0,0.0,0.0,0.0,0.0,0.0,0.0,0.0,0.0,0.0,0.0,0.0,0.0,0.0,0.0,0.0,0.0,0.0,0.0,0.0,0.0,0.0,0.0,0.0,0.0,0.0,0.0,0.0,0.0,0.0,0.0,0.0,0.0,0.0,0.0,0.0,0.0,0.0,0.0,0.0,0.0,0.0,0.0,0.0,0.0,0.0,0.0,0.0,0.0,0.0,0.0,0.0,0.0,0.0,0.0,0.0,0.0,0.0,0.0,0.0,0.0,0.0,0.0,0.0,0.0,0.0,0.0,0.0,0.0,0.0,0.0,0.0,0.0,0.0,0.0,0.0,0.0,0.0,0.0,0.0,0.0,0.0,0.0,0.0,0.0,0.0,0.0,0.0,0.0,0.0,0.0,0.0,0.0,0.0,0.0,0.0,0.0,-3.2109,-3.291,-3.3398,-3.3418,-3.3418,-3.3418,-3.3437,-3.4219,-3.4687,0.0,0.0,0.0,0.0,0.0,0.0,0.0,0.0,0.0,0.0,0.0,0.0,0.0,0.0,0.0,0.0,0.0,0.0,0.0,0.0,0.0,0.0,0.0,0.0,0.0,0.0,0.0,0.0,0.0,0.0,0.0,0.0,0.0,0.0,0.0,0.0,0.0,0.0,0.0,0.0,0.0,0.0,0.0,0.0,0.0,0.0,0.0,0.0,0.0,0.0,0.0,0.0,0.0,0.0,0.0,0.0,0.0,0.0,0.0,0.0,0.0,0.0,0.0,0.0,0.0,0.0,0.0,0.0,0.0,0.0,0.0,0.0,0.0,0.0,0.0,0.0,0.0,0.0,0.0,0.0,0.0,0.0,0.0,0.0,0.0,0.0,0.0,0.0,0.0,0.0,0.0,0.0,0.0,0.0,0.0,0.0,0.0,0.0,0.0,0.0,0.0,0.0,0.0,-3.2949,-3.3242,-3.3633,-3.4258,-3.4316,-3.457,-3.5176,-3.5469,-3.5586,-3.5527,0.0,0.0,0.0,0.0,0.0,0.0,0.0,0.0,0.0,0.0,0.0,0.0,0.0,0.0,0.0,0.0,0.0,0.0,0.0,0.0,0.0,0.0,0.0,0.0,0.0,0.0,0.0,0.0,0.0,0.0,0.0,0.0,0.0,0.0,0.0,0.0,0.0,0.0,0.0,0.0,0.0,0.0,0.0,0.0,0.0,0.0,0.0,0.0,0.0,0.0,0.0,0.0,0.0,0.0,0.0,0.0,0.0,0.0,0.0,0.0,0.0,0.0,0.0,0.0,0.0,0.0,0.0,0.0,0.0,0.0,0.0,0.0,0.0,0.0,0.0,0.0,0.0,0.0,0.0,0.0,0.0,0.0,0.0,0.0,0.0,0.0,0.0,0.0,0.0,0.0,0.0,0.0,0.0,0.0,0.0,0.0,0.0,0.0,0.0,0.0,0.0,0.0,-3.3867,-3.4219,-3.4766,-3.5644,-3.5742,-3.6094,-3.6953,-3.7031,-3.7012,-3.6973,0.0,0.0,0.0,0.0,0.0,0.0,0.0,0.0,0.0,0.0,0.0,0.0,0.0,0.0,0.0,0.0,0.0,0.0,0.0,0.0,0.0,0.0,0.0,0.0,0.0,0.0,0.0,0.0,0.0,0.0,0.0,0.0,0.0,0.0,0.0,0.0,0.0,0.0,0.0,0.0,0.0,0.0,0.0,0.0,0.0,0.0,0.0,0.0,0.0,0.0,0.0,0.0,0.0,0.0,0.0,0.0,0.0,0.0,0.0,0.0,0.0,0.0,0.0,0.0,0.0,0.0,0.0,0.0,0.0,0.0,0.0,0.0,0.0,0.0,0.0,0.0,0.0,0.0,0.0,0.0,0.0,0.0,0.0,0.0,0.0,0.0,0.0,0.0,0.0,0.0,0.0,0.0,0.0,0.0,0.0,0.0,0.0,0.0,0.0,0.0,0.0,0.0,-3.4922,-3.5625,-3.6445,-3.7324,-3.7422,-3.7734,-3.8535,-3.8594,-3.8594,-3.8594,0.0,0.0,0.0,0.0,0.0,0.0,0.0,0.0,0.0,0.0,0.0,0.0,0.0,0.0,0.0,0.0,0.0,0.0,0.0,0.0,0.0,0.0,0.0,0.0,0.0,0.0,0.0,0.0,0.0,0.0,0.0,0.0,0.0,0.0,0.0,0.0,0.0,0.0,0.0,0.0,0.0,0.0,0.0,0.0,0.0,0.0,0.0,0.0,0.0,0.0,0.0,0.0,0.0,0.0,0.0,0.0,0.0,0.0,0.0,0.0,-3.6036,0.0,0.0,0.0,0.0,0.0,0.0,0.0,0.0,0.0,0.0,0.0,0.0,0.0,0.0,0.0,0.0,0.0,0.0,0.0,0.0,0.0,0.0,0.0,0.0,0.0,0.0,0.0,0.0,0.0,0.0,0.0,0.0,0.0,0.0,0.0,0.0,0.0,0.0,0.0,0.0,0.0,-3.6562,-3.6914,-3.7363,-3.8223,-3.832,-3.8398,-3.8574,-3.8594,-3.8594,-3.8594,-3.8594,0.0,0.0,0.0,0.0,0.0,0.0,0.0,0.0,0.0,0.0,0.0,0.0,0.0,0.0,0.0,0.0,0.0,0.0,0.0,0.0,0.0,0.0,0.0,0.0,0.0,0.0,0.0,0.0,0.0,0.0,0.0,0.0,0.0,0.0,0.0,0.0,0.0,0.0,0.0,0.0,0.0,0.0,0.0,0.0,0.0,0.0,0.0,0.0,0.0,0.0,0.0,0.0,0.0,0.0,0.0,0.0,0.0,0.0,0.0,0.0,-3.7384,0.0,0.0,0.0,0.0,0.0,0.0,0.0,0.0,0.0,0.0,0.0,0.0,0.0,0.0,0.0,0.0,0.0,0.0,0.0,0.0,0.0,0.0,0.0,0.0,0.0,0.0,0.0,0.0,0.0,0.0,0.0,0.0,0.0,0.0,0.0,0.0,0.0,0.0,0.0,0.0,-3.7187,-3.7676,-3.8262,-3.9121,-3.9219,-3.9394,-3.9805,-3.9844,-3.9844,-3.9844,-3.9844,0.0,0.0,0.0,0.0,0.0,0.0,0.0,0.0,0.0,0.0,0.0,0.0,0.0,0.0,0.0,0.0,0.0,0.0,0.0,0.0,0.0,0.0,0.0,0.0,0.0,0.0,0.0,0.0,0.0,0.0,0.0,0.0,0.0,0.0,0.0,0.0,0.0,0.0,0.0,0.0,0.0,0.0,0.0,0.0,0.0,0.0,0.0,0.0,0.0,0.0,0.0,0.0,0.0,-3.8845,-3.8965,-3.9135,-3.9016,-3.9358,-4.0011,-3.9281,-3.8698,-3.8237,-3.8351,0.0,0.0,0.0,0.0,0.0,0.0,0.0,0.0,0.0,0.0,0.0,0.0,0.0,0.0,0.0,0.0,0.0,0.0,0.0,0.0,0.0,0.0,0.0,0.0,-3.8942,-3.8865,0.0,0.0,0.0,0.0,0.0,0.0,0.0,0.0,0.0,0.0,0.0,0.0,-3.7734,-3.8379,-3.916,-4.0039,-4.0137,-4.043,-4.1133,-4.1191,-4.119,-4.1175,-4.1172,-4.0779,0.0,0.0,0.0,0.0,0.0,0.0,0.0,0.0,0.0,0.0,0.0,0.0,0.0,0.0,0.0,0.0,0.0,0.0,0.0,0.0,0.0,0.0,0.0,0.0,0.0,0.0,0.0,0.0,0.0,0.0,0.0,0.0,-3.6235,-3.6933,0.0,0.0,0.0,0.0,0.0,0.0,0.0,0.0,0.0,0.0,0.0,0.0,0.0,-3.9695,-4.0345,-4.082,-4.113,-4.1328,-4.178,-4.2163,-4.247,-4.245,-4.2508,-4.2604,-4.2489,0.0,-3.9127,-3.9151,0.0,0.0,0.0,0.0,0.0,0.0,0.0,0.0,0.0,0.0,0.0,0.0,0.0,0.0,0.0,0.0,0.0,0.0,0.0,0.0,0.0,0.0,-3.9863,-4.0539,-4.0754,-4.0759,0.0,-3.9468,-3.8569,-3.8574,-3.8565,0.0,0.0,0.0,0.0,0.0,0.0,0.0,-3.9453,-3.9668,-4.0059,-4.0937,-4.1035,-4.1074,-4.1191,-4.1191,-4.1152,-4.1029,-4.1029,-4.0912,-4.0673,-4.0769,0.0,0.0,0.0,0.0,0.0,0.0,0.0,0.0,0.0,0.0,0.0,0.0,0.0,0.0,0.0,0.0,0.0,0.0,0.0,0.0,0.0,0.0,0.0,0.0,0.0,0.0,0.0,0.0,0.0,-3.713,-3.7813,-3.7544,-3.8739,-3.9198,0.0,0.0,0.0,0.0,0.0,0.0,0.0,0.0,0.0,-4.1543,-4.1562,-4.172,-4.2047,-4.2293,-4.2428,-4.2527,-4.2771,-4.2961,-4.3104,-4.3104,-4.3104,-4.3104,-4.3104,-4.247,-4.1447,-4.1492,-4.1299,-4.1011,0.0,0.0,0.0,0.0,-4.1285,-4.1404,-4.1338,-4.1387,0.0,-4.1465,0.0,0.0,0.0,0.0,0.0,0.0,0.0,0.0,0.0,0.0,-4.1387,-4.1719,-4.2204,-4.2578,-4.2459,-4.1921,-4.1302,0.0,-4.0285,-3.9974,-4.0056,0.0,0.0,0.0,0.0,-4.0195,-4.0586,-4.1445,-4.2187,-4.2558,-4.2571,-4.2558,-4.2558,-4.248,-4.2403,-4.2358,-4.2358,-4.2101,-4.1499,-4.1649,-4.1292,0.0,0.0,0.0,0.0,0.0,0.0,0.0,0.0,0.0,0.0,0.0,0.0,0.0,0.0,0.0,0.0,0.0,0.0,0.0,0.0,0.0,0.0,0.0,0.0,0.0,0.0,0.0,0.0,-3.8263,-3.8937,-3.8555,-3.9958,-4.0593,0.0,0.0,0.0,0.0,0.0,0.0,-4.2352,-4.2898,-4.3184,-4.3165,-4.3143,-4.3104,-4.3104,-4.3297,-4.3412,-4.3412,-4.3624,-4.3739,-4.3739,-4.3739,-4.3739,-4.3739,-4.3739,-4.3758,-4.3758,-4.3333,-4.3195,-4.3211,-4.3349,-4.343,-4.3438,-4.3438,-4.3531,-4.3612,-4.3598,-4.364,-4.3691,-4.3691,-4.3691,-4.3691,-4.3691,0.0,0.0,0.0,0.0,-4.2734,-4.2734,-4.2734,-4.2734,-4.2734,-4.3223,-4.3708,-4.3709,-4.3693,-4.3483,0.0,-4.2133,-4.1723,-4.1811,0.0,0.0,0.0,0.0,-4.1836,-4.1836,-4.293,-4.3691,-4.3691,-4.3645,-4.3611,-4.363,-4.3523,-4.3438,-4.3438,-4.3453,-4.3124,-4.2335,-4.2483,-4.2215,-4.1482,0.0,0.0,0.0,0.0,0.0,0.0,0.0,0.0,0.0,0.0,0.0,0.0,0.0,0.0,0.0,0.0,0.0,0.0,0.0,0.0,0.0,0.0,0.0,0.0,0.0,0.0,0.0,0.0,0.0,-4.0566,-4.1162,0.0,0.0,0.0,0.0,-4.3214,-4.3253,-4.3233,-4.3159,-4.3181,-4.3165,-4.3104,-4.3104,-4.3104,-4.3104,-4.3855,-4.4239,-4.4239,-4.5066,-4.547,-4.547,-4.547,-4.547,-4.547,-4.547,-4.5565,-4.5526,-4.3797,-4.3143,-4.322,-4.3349,-4.3487,-4.3588,-4.3588,-4.3628,-4.3703,-4.362,-4.3642,-4.3691,-4.3691,-4.3691,-4.3691,-4.3691,-4.3691,0.0,0.0,-4.3672,-4.3633,-4.3633,-4.3633,-4.3633,-4.3633,-4.3672,-4.3691,-4.3691,-4.3691,-4.3691,0.0,-4.3592,-4.3573,-4.3574,0.0,-4.3496,-4.3457,-4.3516,-4.3574,-4.3574,-4.3652,-4.3691,-4.3691,-4.3645,-4.363,-4.3688,-4.3628,-4.3588,-4.3588,-4.359,-4.3455,-4.3145,-4.3258,-4.3316,-4.3261,-4.26,0.0,0.0,0.0,0.0,0.0,0.0,0.0,0.0,0.0,0.0,0.0,0.0,0.0,0.0,0.0,0.0,0.0,0.0,0.0,0.0,0.0,0.0,0.0,0.0,0.0,0.0,0.0,0.0,-4.1399,-4.2144,0.0,-4.303,-4.3192,-4.3265,-4.3258,-4.3701,-4.3951,-4.3912,-4.4451,-4.472,-4.4701,-4.4701,-4.4701,-4.4701,-4.4989,-4.5143,-4.5143,-4.5451,-4.5586,-4.5586,-4.5586,-4.5586,-4.5586,-4.5699,-4.5757,-4.5755,-4.5144,-4.4929,-4.4932,-4.4987,-4.5051,-4.5084,-4.5084,-4.5153,-4.524,-4.5216,-4.5288,-4.5371,-4.5371,-4.5371,-4.5371,-4.5371,-4.5371,-4.5371,-4.5371,-4.4961,-4.4531,-4.4531,-4.4531,-4.4531,-4.4531,-4.4961,-4.5371,-4.5371,-4.5371,-4.5371,-4.5371,-4.4473,-4.3887,-4.4433,-4.4062,-4.3691,-4.3691,-4.418,-4.4531,-4.4531,-4.5039,-4.5371,-4.5371,-4.5262,-4.521,-4.5252,-4.5128,-4.5047,-4.5007,-4.5026,-4.4723,-4.4064,-4.4182,-4.3994,-4.3524,-4.3314,-4.3203,0.0,0.0,0.0,0.0,0.0,0.0,0.0,0.0,0.0,0.0,0.0,0.0,0.0,0.0,0.0,0.0,0.0,0.0,0.0,0.0,0.0,0.0,0.0,0.0,0.0,0.0,-4.2335,-4.2604,-4.3201,-4.3701,-4.3989,-4.4008,-4.4008,-4.4008,-4.4451,-4.4874,-4.5163,-4.572,-4.6163,-4.6432,-4.6182,-4.6028,-4.6028,-4.574,-4.5586,-4.5586,-4.5586,-4.5586,-4.5586,-4.5586,-4.5605,-4.568,-4.5757,-4.5834,-4.589,-4.5951,-4.5996,-4.6027,-4.5982,-4.5974,-4.5964,-4.6013,-4.6099,-4.6166,-4.6166,-4.6235,-4.6308,-4.6308,-4.6308,-4.6308,-4.6308,-4.6308,-4.6308,-4.6308,-4.5879,-4.5449,-4.5449,-4.5449,-4.5449,-4.5449,-4.5879,-4.6308,-4.6308,-4.6308,-4.6308,-4.6308,-4.5371,-4.4766,-4.5332,-4.4961,-4.457,-4.457,-4.5078,-4.5449,-4.5449,-4.5937,-4.6308,-4.6308,-4.6145,-4.6047,-4.6095,-4.5958,-4.5862,-4.5831,-4.5835,-4.5563,-4.4966,-4.5028,-4.4845,-4.4346,-4.4163,-4.3945,-4.3691,0.0,0.0,0.0,0.0,0.0,0.0,0.0,0.0,0.0,0.0,0.0,0.0,0.0,0.0,0.0,0.0,0.0,0.0,0.0,0.0,0.0,0.0,0.0,-4.3203,-4.3162,-4.3431,-4.4201,-4.4355,-4.4701,-4.5509,-4.5605,-4.5624,-4.5624,-4.5624,-4.6009,-4.6894,-4.6913,-4.7278,-4.8067,-4.7317,-4.6913,-4.6951,-4.6105,-4.5682,-4.5682,-4.5682,-4.5682,-4.5682,-4.5643,-4.5701,-4.5853,-4.5815,-4.593,-4.6103,-4.6103,-4.6181,-4.6279,-4.6158,-4.6116,-4.6117,-4.6249,-4.6308,-4.6308,-4.6308,-4.6308,-4.6308,-4.6308,-4.6308,-4.6308,-4.6308,-4.6308,-4.6308,-4.6308,-4.6308,-4.6308,-4.6308,-4.6308,-4.6308,-4.6308,-4.6308,-4.6308,-4.6308,-4.6308,-4.6308,-4.6308,-4.6308,-4.6308,-4.6308,-4.6308,-4.6308,-4.6308,-4.6308,0.0,-4.6308,-4.6308,-4.6308,-4.6308,-4.6064,-4.5964,-4.608,-4.5916,-4.5828,-4.5881,-4.5902,-4.5873,-4.5796,-4.5796,-4.5796,-4.5801,-4.5176,-4.4473,-4.373,0.0,0.0,0.0,0.0,0.0,0.0,0.0,0.0,0.0,0.0,0.0,0.0,0.0,0.0,0.0,0.0,0.0,0.0,0.0,0.0,0.0,0.0,-4.4528,-4.3297,-4.3605,-4.4047,-4.4278,-4.5413,-4.6028,-4.5624,-4.6163,-4.6547,-4.6547,-4.6547,-4.6894,-4.774,-4.7221,-4.7278,-4.8067,-4.7317,-4.7182,-4.7759,-4.7528,-4.7413,-4.7413,-4.7413,-4.7413,-4.7394,-4.6855,-4.6644,-4.6644,-4.6219,-4.6046,-4.6103,-4.62,-4.6263,-4.6293,-4.6269,-4.6255,-4.6245,-4.6286,-4.6308,-4.6308,-4.6308,-4.6308,-4.6308,-4.6308,-4.6308,-4.6308,-4.6308,-4.6308,-4.6308,-4.6308,-4.6308,-4.6308,-4.6308,-4.6308,-4.6308,-4.6308,-4.6308,-4.6308,-4.6308,-4.6308,-4.6308,-4.6308,-4.6308,-4.6308,-4.6308,-4.6308,-4.6308,-4.6308,-4.6308,0.0,-4.6308,-4.6308,-4.6308,-4.6308,-4.6143,-4.6063,-4.6102,-4.596,-4.587,-4.5823,-4.5825,-4.5815,-4.5796,-4.5796,-4.583,-4.5873,-4.5791,-4.5332,0.0,0.0,0.0,0.0,0.0,0.0,0.0,0.0,0.0,0.0,0.0,0.0,0.0,0.0,0.0,0.0,0.0,0.0,0.0,0.0,0.0,0.0,-4.5643,-4.5913,-4.5278,-4.5605,-4.5893,-4.5893,-4.6797,-4.7201,-4.6701,-4.7105,-4.7413,-4.7413,-4.7413,-4.7778,-4.8606,-4.8202,-4.8336,-4.9163,-4.8375,-4.8163,-4.8644,-4.8336,-4.8182,-4.8182,-4.7875,-4.7913,-4.824,-4.7451,-4.7105,-4.7162,-4.7197,-4.681,-4.6212,-4.6658,-4.6632,0.0,0.0,0.0,0.0,0.0,-4.6249,-4.6289,-4.623,-4.625,-4.6308,-4.6308,-4.6308,-4.6308,-4.6308,-4.6308,-4.6308,-4.6308,-4.6308,-4.6308,-4.6308,-4.6308,-4.6308,-4.6308,-4.6308,-4.6308,-4.6308,-4.6308,-4.6308,-4.6308,-4.6308,0.0,-4.6308,-4.6308,-4.6282,-4.6209,-4.6227,-4.6196,-4.6136,-4.612,-4.612,-4.612,-4.6046,-4.5969,-4.5969,-4.5853,0.0,0.0,0.0,-4.5719,-4.5719,-4.5719,0.0,0.0,0.0,-4.5787,-4.5351,0.0,0.0,0.0,-4.4512,-4.4473,0.0,0.0,0.0,0.0,0.0,0.0,0.0,0.0,0.0,0.0,0.0,0.0,0.0,0.0,0.0,0.0,-4.6701,-4.7605,-4.8432,-4.8606,-4.8529,-4.8144,-4.8202,-4.8221,-4.8105,-4.8202,-4.8259,-4.8259,-4.8259,-4.8625,-4.949,0.0,0.0,0.0,0.0,-4.949,-4.9586,-4.8932,-4.8622,-4.8598,-4.7946,-4.8043,-4.8754,-4.7912,-4.7528,-4.7582,-4.8279,-4.7709,-4.6367,-4.7129,-4.6992,-4.6308,-4.6308,-4.6308,-4.6285,-4.6174,-4.6192,-4.6282,-4.6152,0.0,0.0,-4.6308,-4.6308,-4.6308,-4.6308,-4.6308,-4.6308,-4.6308,-4.6308,-4.6308,-4.6308,-4.6308,-4.6308,-4.6308,-4.6308,-4.6308,-4.6308,-4.6308,-4.6308,-4.6308,-4.6308,-4.6308,-4.6308,-4.6308,-4.6253,-4.6121,-4.6103,-4.6044,-4.5929,-4.5901,-4.5901,-4.5901,0.0,0.0,-4.5796,-4.568,-4.5586,-4.5586,-4.5586,-4.5586,-4.5586,-4.5586,-4.5643,-4.5776,-4.5853,-4.5956,-4.607,-4.6069,-4.6147,-4.6261,-4.6268,-4.6288,0.0,0.0,0.0,0.0,0.0,0.0,0.0,0.0,0.0,0.0,0.0,0.0,0.0,0.0,0.0,-4.749,-4.8933,-5.024,-5.1048,-5.1779,-5.1202,-4.8432,-4.8721,-4.8875,-4.8163,-4.874,-4.9144,-4.9144,-4.9144,-4.9529,-5.0394,-4.9875,-4.9952,-5.0837,-5.0125,-5.0067,-5.076,-5.0625,-5.0571,-5.0573,0.0,0.0,-5.0581,-4.9806,-4.9087,-4.8432,-4.8004,-4.7237,-4.6308,-4.6484,-4.6445,-4.6308,-4.6308,-4.6308,-4.6308,-4.6273,-4.6283,-4.63,-4.6264,-4.6289,-4.6308,-4.6308,-4.6308,-4.6308,-4.6308,-4.6308,0.0,-4.6308,-4.6308,-4.6308,-4.6308,-4.6308,-4.6308,-4.6308,-4.6308,-4.6308,-4.6308,-4.6308,-4.6308,-4.6308,-4.6308,-4.6308,-4.6308,-4.6308,-4.6253,-4.6121,-4.6103,-4.6042,-4.5931,-4.5893,-4.5893,-4.5893,-4.5847,-4.5796,-4.5796,-4.568,-4.5586,-4.5586,-4.5586,-4.5586,-4.5586,-4.5586,-4.5605,-4.5624,-4.5757,-4.5834,-4.5872,-4.592,-4.596,-4.5988,-4.6089,-4.6133,0.0,0.0,0.0,0.0,0.0,0.0,0.0,0.0,0.0,0.0,0.0,-4.572,0.0,0.0,-4.8567,-4.9798,-5.0741,-5.1587,-5.2433,-5.2933,-5.2568,-5.0856,-5.0644,-5.051,-5.0144,-5.0125,-5.0164,-5.026,-5.026,-5.0452,-5.0895,-5.0548,-5.0717,-5.1567,-5.0845,-5.0845,-5.1698,-5.1333,-5.1141,-5.1155,-5.0805,-5.0869,-5.1216,-5.0447,-4.9858,-4.944,-4.9495,-4.8789,-4.7598,-4.7598,-4.7598,-4.7598,-4.7598,-4.707,-4.6289,-4.6211,-4.6238,-4.6297,-4.621,-4.6236,-4.6308,-4.6308,-4.6601,-4.6875,-4.6426,-4.6601,-4.6855,-4.6426,-4.6308,-4.6308,-4.6308,-4.6308,-4.6308,-4.6308,-4.6308,-4.6308,-4.6308,-4.6308,-4.6308,-4.6308,-4.626,-4.6191,-4.6191,-4.6138,-4.6079,-4.6014,-4.5966,-4.5911,-4.5776,-4.5757,-4.5757,-4.5757,-4.5719,-4.5699,-4.5699,-4.5624,-4.5586,-4.5586,-4.5586,-4.5586,-4.5586,-4.5586,-4.5586,-4.5586,-4.5738,-4.5806,-4.5795,-4.5827,-4.5868,-4.5909,-4.5933,-4.5968,0.0,0.0,0.0,0.0,0.0,0.0,0.0,0.0,-4.5068,-4.6051,-4.6838,-4.7644,-4.8452,-4.9317,-5.0375,-5.1914,-5.2299,-5.2702,-5.3568,-5.3703,-5.3664,-5.351,-5.2722,-5.2222,-5.2337,-5.1779,-5.1408,-5.135,-5.1331,-5.1273,-5.1101,-5.1125,-5.1423,-5.2057,-5.1483,-5.1476,-5.2119,-5.1548,-5.1235,-5.1231,-5.0689,-5.0762,-5.1387,-5.0723,-5.0351,-5.0234,-5.0703,-5.0156,-4.8906,-4.8906,-4.8808,-4.8652,-4.8652,-4.7695,-4.6308,-4.6367,-4.6348,-4.6305,-4.6374,-4.6458,-4.6543,-4.6543,-4.7031,-4.7441,-4.6562,-4.6797,-4.7207,-4.6504,-4.6308,-4.6308,-4.6308,-4.6308,-4.6308,-4.6308,-4.6308,-4.6308,-4.6308,-4.6282,-4.6264,-4.6264,-4.6153,-4.605,-4.6063,-4.5963,-4.588,-4.588,-4.5829,-4.5757,-4.5605,-4.5586,-4.5586,-4.5586,-4.5586,-4.5586,-4.5586,-4.5586,-4.5586,-4.5586,-4.5586,-4.5586,-4.5586,-4.5586,-4.5586,-4.5586,-4.5719,-4.5757,-4.5757,-4.5757,-4.5796,-4.5834,-4.5796,-4.58,-4.4245,-4.3333,-4.2544,-4.3069,-4.3426,-4.3912,0.0,0.0,-4.6954,-4.8261,-4.8851,-4.9375,-5.024,-5.1068,-5.1952,-5.2895,-5.3703,-5.4491,-5.5299,-5.5511,-5.5338,-5.4624,-5.376,-5.3243,-5.3262,-5.3277,-5.2989,-5.2219,-5.2161,-5.185,-5.1139,-5.1148,-5.1222,-5.1317,-5.1342,-5.1404,-5.1502,-5.142,-5.1377,-5.1377,-5.1307,-5.1308,-5.1406,-5.1308,-5.0879,-5.0156,-4.9473,-4.9062,-4.8906,-4.8906,-4.8437,-4.7754,-4.7754,-4.7148,-4.6387,-4.7148,-4.6953,-4.6406,-4.7162,-4.7438,-4.7441,-4.7441,-4.7519,-4.7441,-4.6562,-4.6367,-4.6426,-4.6328,-4.6308,-4.6308,-4.6308,-4.6308,-4.6308,-4.6308,-4.6308,-4.6308,-4.6308,-4.6216,-4.6117,-4.6117,-4.6021,-4.5914,-4.5921,-4.5849,-4.5806,-4.5806,-4.5811,-4.5757,-4.5605,-4.5586,-4.5586,-4.5586,-4.5586,-4.5586,-4.5586,-4.5586,-4.5586,-4.5586,-4.5586,-4.5586,-4.5586,-4.5586,-4.5586,-4.5586,-4.5605,-4.5605,-4.5605,-4.5605,-4.5624,-4.5624,-4.5624,-4.5697,-4.4353,-4.4137,0.0,0.0,-4.538,-4.6317,-4.7429,-4.8424,-4.9279,-4.9832,-5.043,-5.1125,-5.1991,-5.2837,-5.3703,0.0,-5.5068,-5.5453,-5.5936,-5.5607,-5.5017,-5.4161,-5.3802,-5.3432,-5.2931,-5.293,-5.2841,-5.2552,-5.2526,-5.2605,-5.278,-5.1843,-5.1779,-5.2801,-5.1899,-5.1641,-5.2148,-5.1641,-5.1406,-5.1406,-5.1406,-5.1406,-5.1406,-5.1406,-5.1211,-5.0879,-5.0508,-5.0098,-4.9668,-4.9668,-4.9141,-4.8418,-4.8926,-4.8528,-4.763,-4.7054,-4.6884,-4.6989,-4.7445,-4.7558,-4.75,-4.7578,-4.7552,-4.7348,-4.6534,-4.6953,-4.7617,-4.7187,-4.6996,-4.6941,-4.6941,-4.6867,-4.6819,-4.6819,-4.683,-4.6816,-4.6816,-4.6385,-4.5976,-4.5982,-4.5905,-4.5849,-4.5849,-4.5757,-4.568,-4.568,-4.568,-4.5643,-4.5605,-4.5586,-4.5586,-4.5586,-4.5586,-4.5586,-4.5586,-4.5586,-4.5586,-4.5586,-4.5586,-4.5586,-4.5586,-4.5586,-4.5586,-4.5586,-4.5586,-4.5586,-4.5586,-4.5586,-4.5586,-4.5586,-4.5586,-4.5624,-4.4553,0.0,0.0,-4.6152,-4.7129,-4.8315,-4.9658,-5.0509,-5.1183,-5.1703,-5.2087,-5.2606,-5.351,-5.399,-5.4547,-5.5472,-5.5615,-5.5672,-5.5826,-5.5112,-5.4169,-5.3078,-5.2857,-5.2562,-5.1945,-5.25,-5.2942,-5.3046,-5.3066,-5.332,-5.3965,-5.2793,-5.2598,-5.3613,-5.2656,-5.2305,-5.2695,-5.2305,-5.1992,-5.1758,-5.1758,-5.1621,-5.1406,-5.1406,-5.1406,-5.1406,-5.1406,-5.1074,-5.0527,-5.0527,-5.001,-4.9265,-4.9937,-4.9568,-4.8504,-4.7373,-4.7144,-4.7488,-4.8027,-4.8006,-4.7816,-4.8102,-4.8143,-4.7932,-4.7131,-4.7717,-4.8538,-4.7991,-4.7776,-4.7697,-4.7696,-4.7627,-4.7559,-4.7546,-4.7551,-4.7556,-4.7567,-4.7031,-4.6494,-4.6251,-4.6161,-4.6028,-4.5796,-4.5643,-4.5586,-4.5586,-4.5586,-4.5586,-4.5586,-4.5586,-4.5586,-4.5586,-4.5586,-4.5701,-4.5932,-4.574,-4.5701,-4.5932,-4.572,-4.5586,-4.5586,-4.5586,-4.5586,-4.5586,-4.5586,-4.5586,-4.5586,-4.5586,-4.5586,-4.5586,-4.5586,-4.5586,0.0,0.0,-4.6473,-4.7331,-4.8209,-4.93,-5.0966,-5.1612,-5.2375,-5.4204,-5.3933,-5.3663,-5.4662,-5.418,-5.3911,-5.4797,-5.4932,-5.4925,-5.4944,-5.4312,-5.3198,-5.1485,-5.0694,-5.0308,0.0,-5.2503,-5.3964,-5.3965,-5.3965,-5.3965,-5.4004,-5.3945,-5.3555,-5.2754,-5.3516,-5.3535,-5.2715,-5.3516,-5.3496,-5.2656,-5.2656,-5.2226,-5.1406,-5.1406,-5.1406,-5.1406,-5.1406,-5.1387,-5.1367,-5.1367,-5.0801,-4.9984,-5.0143,-4.9512,-4.8513,-4.861,-4.8114,-4.7625,-4.9195,-4.9278,-4.8775,-4.9501,-4.9722,-4.9562,-4.8704,-4.8468,-4.8497,-4.8477,-4.8468,-4.8472,-4.848,-4.8451,-4.847,-4.8471,-4.8452,-4.8471,-4.8451,-4.8335,-4.7971,-4.7124,-4.6913,-4.6605,-4.574,-4.5586,-4.5586,-4.5586,-4.5586,-4.5586,-4.5586,-4.5586,-4.5586,-4.5586,-4.5586,-4.5932,-4.6797,-4.6086,-4.5951,-4.6817,-4.6067,-4.5586,-4.5586,-4.5586,-4.5586,-4.5586,-4.5586,-4.5586,-4.5586,-4.5586,-4.5586,-4.5586,-4.5586,-4.5586,0.0,0.0,-4.7931,-4.9671,-5.0929,-5.2058,-5.319,-5.4024,-5.4414,-5.3951,-5.3662,-5.3286,-5.2463,-5.2075,-5.2198,-5.3144,-5.3783,-5.4202,-5.4289,-5.4585,-5.3738,-5.0873,-5.1315,0.0,0.0,0.0,0.0,-5.3906,-5.4004,-5.4492,-5.5664,-5.4629,-5.4121,-5.4414,-5.4141,-5.3867,-5.3574,-5.3848,-5.3848,-5.3555,-5.2988,-5.2558,-5.2246,-5.166,-5.1406,-5.1406,-5.1406,-5.1045,-5.0481,-5.0481,-4.9886,-4.9065,-4.9692,-4.965,-4.9321,-5.0047,-4.9321,-4.8179,-4.9369,-4.9196,-4.8587,-4.9498,-4.9335,-4.8778,-4.8566,-4.8831,-4.9254,-4.9335,-4.9296,-4.9222,-4.9219,-4.9163,-4.9106,-4.9087,-4.9106,-4.8933,-4.8355,-4.7778,-4.7124,-4.624,-4.6528,-4.6817,-4.6509,-4.6913,-4.7259,-4.7259,-4.6797,-4.6471,-4.6471,-4.6471,-4.6471,-4.6471,-4.6471,-4.6586,-4.6894,-4.7124,-4.7163,-4.6932,-4.6624,-4.6201,-4.5605,-4.5586,-4.5586,-4.5586,-4.5586,-4.5586,-4.5586,-4.5586,-4.5586,-4.5586,-4.5586,-4.5586,0.0,-4.8604,-4.9875,-5.1628,-5.2845,-5.3818,-5.4434,-5.4797,-5.4643,-5.3351,-5.2661,-5.1968,-5.0911,-5.0465,-5.0555,-5.1509,-5.2142,-5.2746,-5.3434,-5.3496,-5.2885,-5.127,-5.1517,-5.1406,0.0,0.0,0.0,-5.3457,-5.3828,-5.4629,-5.6055,-5.5371,-5.5039,-5.5293,-5.5058,-5.4785,-5.4473,-5.4765,-5.4765,-5.4453,-5.3574,-5.3008,-5.2676,-5.2064,-5.1622,-5.133,-5.1308,-5.0953,-5.0394,-5.0393,-4.998,-4.9426,-5.0024,-5.0144,-5.0048,-5.0471,-4.9644,-4.845,-4.9398,-4.9096,-4.8452,-4.9356,-4.9413,-4.9164,-4.926,-4.9606,-5.001,-5.0106,-5.0048,-4.999,-4.999,-4.9933,-4.9856,-4.9856,-4.9856,-4.9702,-4.9144,-4.8625,-4.799,-4.7124,-4.7413,-4.7702,-4.7394,-4.7759,-4.8105,-4.8105,-4.7932,-4.7682,-4.7375,-4.7336,-4.7336,-4.7336,-4.7336,-4.7451,-4.7778,-4.799,-4.8009,-4.7817,-4.7509,-4.6951,-4.6105,-4.6067,-4.5913,-4.5605,-4.5586,-4.5586,-4.5586,-4.5586,-4.5586,-4.5586,-4.5586,-4.5586,-4.8259,-5.0087,-5.2202,-5.3106,-5.3933,-5.453,-5.4624,-5.3968,-5.3138,-5.2444,-5.0985,-4.9892,0.0,0.0,-4.9062,-4.998,-5.0215,-5.082,-5.2461,-5.1445,-5.1074,0.0,0.0,0.0,0.0,0.0,0.0,-5.2773,0.0,-5.4473,-5.5371,-5.6172,-5.623,-5.5469,-5.623,-5.625,-5.5371,-5.6191,-5.6172,-5.5351,-5.4473,-5.3633,-5.2831,-5.2602,-5.2068,-5.126,-5.114,-5.1093,-5.1092,-5.1095,-5.101,-5.0914,-5.1029,-5.0933,-5.0644,-5.0067,-4.9202,-4.8431,-4.9313,-4.9007,-4.8356,-4.9144,-4.9952,-5.0625,-5.0683,-5.0702,-5.0702,-5.0702,-5.0702,-5.0702,-5.0702,-5.0702,-5.0702,-5.0702,-5.0702,-5.0683,-5.0625,-5.0625,-5.0375,-4.949,-4.9375,-4.9144,-4.8375,-4.824,-4.824,-4.824,-4.8933,-4.9144,-4.8279,-4.8163,-4.8163,-4.8163,-4.8163,-4.8509,-4.9336,-4.8682,-4.8567,-4.9356,-4.8625,-4.7798,-4.699,-4.6971,-4.6547,-4.5682,-4.5663,-4.5624,-4.5586,-4.5586,-4.5586,-4.5586,-4.5586,-4.5586,-5.026,-5.1895,-5.326,-5.4818,-5.4934,-5.4509,-5.4007,-5.3294,-5.2156,-5.0076,-4.9388,-4.8767,0.0,0.0,0.0,-4.8984,-5.0273,0.0,-5.2558,-5.4004,0.0,0.0,0.0,-5.3652,-5.2773,-5.3281,0.0,0.0,-5.4473,-5.5625,-5.7168,-5.6836,-5.6797,-5.7226,-5.7441,-5.7148,-5.6289,-5.6484,-5.6484,-5.6269,-5.539,-5.4844,-5.459,-5.3256,-5.2465,-5.2127,-5.1448,-5.1095,-5.0943,-5.0933,-5.0875,-5.0741,-5.0779,-5.0837,-5.0856,-5.0779,-4.9779,-4.8572,-4.9438,-4.8692,-4.7565,-4.8933,-4.9548,-4.9856,-5.0491,-5.0702,-5.0702,-5.0702,-5.0702,-5.0702,-5.0702,-5.0702,-5.0702,-5.0702,-5.0702,-5.051,-4.9875,-4.9721,-4.9471,-4.8606,-4.8952,-4.9529,-4.9952,-5.0029,-5.0029,-5.0029,-5.0221,-5.0048,-4.9183,-4.9067,-4.9067,-4.9067,-4.9067,-4.9163,-4.9375,-4.9779,-4.9856,-4.9433,-4.9183,-4.8682,-4.7836,-4.7798,-4.7413,-4.6586,-4.6567,-4.624,-4.5586,-4.5586,-4.5586,-4.5586,-4.5586,-4.5586,-5.203,-5.355,-5.4761,-5.5782,-5.5114,-5.4009,-5.3278,-5.1945,-5.0336,-4.8587,-4.7981,0.0,0.0,0.0,0.0,0.0,0.0,0.0,-5.1894,-5.3398,-5.4336,0.0,-5.4941,0.0,-5.4473,-5.4844,-5.5137,0.0,-5.5234,-5.5898,-5.7265,-5.6875,-5.7168,-5.8437,-5.8105,-5.7676,-5.7187,-5.7168,-5.6973,-5.6582,-5.6094,-5.5664,-5.5254,-5.4177,-5.3213,-5.2384,0.0,-5.1221,-5.0837,-5.0895,-5.0837,-5.0702,-5.076,-5.0818,-5.0798,-5.0607,-4.9905,-4.9032,-4.875,-4.7966,-4.7354,-4.8894,-4.9394,-4.9548,-5.0433,-5.0702,-5.0702,-5.0702,-5.0702,-5.0702,-5.0702,-5.0702,-5.0702,-5.0702,-5.0702,-5.0567,-5.0067,-4.9971,-4.9817,-4.9336,-4.9644,-5.0125,-5.0606,-5.0702,-5.0702,-5.0702,-5.0702,-5.051,-5.0029,-4.9971,-4.9971,-4.9971,-4.9971,-4.9971,-4.9971,-5.0414,-5.0491,-4.999,-4.9971,-4.9586,-4.8702,-4.8663,-4.8279,-4.7451,-4.7432,-4.7009,-4.6163,-4.6163,-4.597,-4.5605,-4.599,-4.597,-5.3549,-5.4959,-5.6192,-5.6227,-5.4832,-5.3269,-5.2507,-5.0374,-4.8338,-4.7584,0.0,0.0,-4.6308,0.0,-4.6348,-4.6445,0.0,-4.8652,-5.1211,-5.168,-5.2949,-5.6211,-5.5937,-5.5762,-5.6523,-5.6601,-5.664,-5.6758,-5.6074,-5.5976,-5.6738,-5.6777,-5.7461,-5.8984,-5.8281,-5.789,-5.789,-5.789,-5.746,-5.6566,-5.6566,-5.6161,-5.5405,-5.5058,-5.4069,-5.2586,-5.2121,-5.1529,-5.0856,-5.0875,-5.0818,-5.0702,-5.0837,-5.0818,-5.0663,-5.0145,-4.9906,-4.9615,-4.8195,-4.7544,-4.7568,-4.8702,-4.9144,-4.9394,-5.026,-5.0606,-5.0702,-5.0702,-5.0702,-5.0702,-5.0702,-5.0702,-5.0702,-5.0702,-5.0702,-5.0702,-5.0702,-5.0702,-5.0702,-5.0702,-5.0702,-5.0702,-5.0702,-5.0702,-5.0702,-5.0702,-5.0702,-5.0702,-5.0702,-5.0702,-5.0702,-5.0702,-5.0702,-5.0702,-5.0702,-5.0702,-5.0702,-5.0702,-5.0702,-5.0356,-4.9606,-4.9567,-4.9163,-4.8298,-4.8279,-4.7875,-4.7067,-4.7067,-4.6663,-4.5951,-4.6721,-4.6644,-5.4447,-5.5415,-5.6238,-5.6328,-5.4513,-5.25,-5.1759,-4.9618,0.0,0.0,0.0,-4.6308,-4.6308,-4.6308,0.0,-4.7266,0.0,0.0,0.0,0.0,-5.4316,0.0,0.0,0.0,0.0,0.0,0.0,0.0,0.0,-5.7519,-5.7676,-5.7676,-5.7812,-5.8125,-5.7988,-5.789,-5.789,-5.789,-5.7414,-5.6439,-5.6439,-5.6306,-5.6026,-5.5259,-5.4666,-5.4188,-5.2704,0.0,-5.1645,-5.0991,-5.0721,-5.0702,-5.0721,-5.0779,-5.0856,-5.0739,-5.0385,-4.9984,-5.0178,-4.9391,-4.8163,-4.7548,-4.7778,-4.849,-4.9356,-5.0125,-5.0702,-5.0702,-5.0702,-5.0702,-5.0702,-5.0702,-5.0702,-5.0702,-5.0702,-5.0702,-5.0702,-5.0702,-5.0702,-5.0702,-5.0702,-5.0702,-5.0702,-5.0702,-5.0702,-5.0702,-5.0702,-5.0702,-5.0702,-5.0702,-5.0702,-5.0702,-5.0702,-5.0702,-5.0702,-5.0702,-5.0702,-5.0702,-5.0702,-5.0625,-5.0471,-5.0471,-5.0048,-4.9183,-4.9163,-4.8759,-4.7894,-4.7894,-4.7817,-4.7663,-4.7817,-4.7817,-5.5289,-5.6089,-5.6419,-5.6495,-5.4187,-5.183,-5.148,0.0,0.0,0.0,0.0,-4.6201,-4.6201,0.0,0.0,0.0,0.0,0.0,0.0,0.0,0.0,0.0,0.0,0.0,0.0,0.0,0.0,0.0,0.0,-5.8281,-5.914,-5.9199,-5.8808,-5.793,-5.8246,-5.8215,-5.7806,-5.7693,-5.7195,-5.6288,-5.629,-5.6252,-5.6195,-5.5656,-5.5149,-5.4647,-5.3741,0.0,-5.1895,-5.1568,-5.1145,-5.0702,-5.0779,-5.0818,-5.0818,-5.0875,-5.0715,-5.0438,-5.0276,-4.9721,-4.8913,-4.7855,-4.8086,-4.8933,-4.9798,-5.0356,-5.0702,-5.0702,-5.0702,-5.0702,-5.0702,-5.0702,-5.0702,-5.0702,-5.0702,-5.0702,-5.0702,-5.0702,-5.0702,-5.0702,-5.0702,-5.0702,-5.0702,-5.0702,-5.0702,-5.0702,-5.0702,-5.0702,-5.0702,-5.0702,-5.0702,-5.0702,-5.0702,-5.0702,-5.0702,-5.0702,-5.0702,-5.0702,-5.0702,-5.0702,-5.0702,-5.0702,-5.0491,-5.0067,-5.0067,-4.9644,-4.8779,-4.8779,-4.8548,-4.8105,-4.8567,-4.8529,-5.5703,-5.6465,-5.6562,-5.6367,-5.3848,-5.1346,-5.1151,-4.8584,0.0,0.0,-4.6134,-4.6066,-4.6063,0.0,0.0,0.0,0.0,0.0,0.0,0.0,0.0,0.0,0.0,0.0,0.0,0.0,0.0,0.0,0.0,0.0,-5.9768,-5.9631,-5.8937,-5.7586,-5.8195,-5.8182,-5.7403,-5.7389,-5.6971,-5.6142,-5.6154,-5.6128,-5.609,-5.5915,-5.5513,-5.4897,-5.4607,0.0,0.0,-5.2088,-5.151,-5.0702,-5.0837,-5.0779,-5.0702,-5.0837,-5.0895,-5.0798,-5.0086,-4.9856,-4.974,-4.8913,-4.899,-4.9529,-5.0202,-5.0548,-5.0702,-5.0702,-5.0702,-5.0702,-5.0702,-5.0702,-5.0702,-5.0702,-5.0702,-5.0702,-5.0702,-5.0702,-5.0702,-5.0702,-5.0702,-5.0702,-5.0702,-5.0702,-5.0702,-5.0702,-5.0702,-5.0702,-5.0702,-5.0702,-5.0702,-5.0702,-5.0702,-5.0702,-5.0702,-5.0702,-5.0702,-5.0702,-5.0702,-5.0702,-5.0702,-5.0702,-5.0702,-5.0702,-5.0702,-5.0356,-4.9683,-4.9683,-4.9336,-4.8663,-4.9356,-4.9317,-5.5137,-5.5996,-5.6406,-5.5625,-5.3398,-5.1177,-5.0325,0.0,0.0,0.0,-4.5938,-4.5925,-4.5921,-4.5907,0.0,0.0,0.0,0.0,0.0,0.0,0.0,0.0,0.0,0.0,0.0,0.0,0.0,0.0,0.0,0.0,-5.8008,-5.7197,-5.6624,-5.6359,-5.7125,-5.7159,-5.634,-5.7039,-5.6886,-5.5921,-5.5938,-5.5857,-5.5742,-5.5722,-5.5684,-5.5568,-5.4818,0.0,0.0,-5.2241,-5.1433,-5.0702,-5.0702,-5.0702,-5.0702,-5.0702,-5.0818,-5.0875,-5.0664,-5.0683,-5.076,-5.0529,-4.9971,-4.9413,-4.949,-5.0067,-5.0702,-5.0702,-5.0702,-5.0702,-5.0702,-5.0702,-5.0702,-5.0702,-5.0702,-5.0702,-5.0702,-5.0702,-5.0702,-5.0702,-5.0702,-5.0702,-5.0702,-5.0702,-5.0702,-5.0702,-5.0702,-5.0702,-5.0702,-5.0702,-5.0702,-5.0702,-5.0702,-5.0702,-5.0702,-5.0702,-5.0702,-5.0702,-5.0702,-5.0702,-5.0702,-5.0702,-5.0702,-5.0702,-5.0702,-5.0644,-5.0567,-5.0567,-5.0529,-5.0452,-5.0529,-5.0529,-5.4023,-5.5412,-5.6289,-5.5499,-5.3249,-5.1004,-5.0194,0.0,0.0,-4.5907,-4.5858,-4.5834,-4.5849,-4.5776,-4.5719,0.0,0.0,0.0,0.0,0.0,0.0,0.0,0.0,0.0,0.0,0.0,0.0,0.0,0.0,0.0,-5.7437,-5.7151,-5.6752,-5.6225,-5.6397,-5.6347,-5.6032,-5.6263,-5.6186,-5.578,-5.578,-5.5742,-5.5703,-5.5703,-5.5703,-5.5684,-5.5357,0.0,0.0,-5.2837,-5.1895,-5.0702,-5.0702,-5.0702,-5.0702,-5.0702,-5.0721,-5.076,-5.0721,-5.0721,-5.076,-5.0721,-5.0471,-5.0183,-5.0183,-5.0414,-5.0702,-5.0702,-5.0702,-5.0702,-5.0702,-5.0702,-5.0702,-5.0702,-5.0702,-5.0702,-5.0702,-5.0702,-5.0702,-5.0702,-5.0702,-5.0702,-5.0702,-5.0702,-5.0702,-5.0702,-5.0702,-5.0702,-5.0702,-5.0702,-5.0702,-5.0702,-5.0702,-5.0702,-5.0702,-5.0702,-5.0702,-5.0702,-5.0702,-5.0702,-5.0702,-5.0702,-5.0702,-5.0702,-5.0702,-5.0702,-5.0702,-5.0702,-5.0702,-5.0683,-5.0442,-5.0336,-5.2228,-5.3886,-5.4959,-5.3927,-5.218,-5.0441,0.0,0.0,0.0,-4.5815,-4.5776,-4.5738,-4.5738,-4.5643,-4.5586,0.0,0.0,0.0,0.0,0.0,0.0,0.0,0.0,0.0,0.0,0.0,0.0,0.0,0.0,0.0,-5.7146,-5.6994,-5.6629,-5.6071,-5.5895,-5.5838,-5.5838,-5.5742,-5.5703,-5.5703,-5.5703,-5.5703,-5.5703,-5.5703,-5.5703,-5.5703,-5.5703,0.0,0.0,-5.3203,-5.2202,-5.0702,-5.0702,-5.0702,-5.0702,-5.0702,-5.0702,-5.0702,-5.0702,-5.0702,-5.0702,-5.0702,-5.0702,-5.0702,-5.0702,-5.0702,-5.0702,-5.0702,-5.0702,-5.0702,-5.0702,-5.0702,-5.076,-5.0991,-5.0856,-5.076,-5.0991,-5.0856,-5.0702,-5.0702,-5.0702,-5.0702,-5.0702,-5.0702,-5.0702,-5.0702,-5.0702,-5.0702,-5.0702,-5.0702,-5.0702,-5.0702,-5.0702,-5.0702,-5.0702,-5.0702,-5.0702,-5.0702,-5.0702,-5.0663,-5.0544,-5.0643,-5.0624,-5.0504,-5.0624,-5.0702,-5.0702,-5.0565,-5.0504,-5.0504,-5.0092,-4.9924,-4.9605,-5.1113,-5.2022,-5.0293,-4.9852,-4.9342,0.0,0.0,0.0,-4.5624,-4.5586,-4.5586,-4.5586,-4.5586,-4.5586,-4.5586,0.0,0.0,0.0,0.0,0.0,0.0,0.0,0.0,0.0,0.0,0.0,0.0,0.0,0.0,-5.6992,-5.6184,-5.5703,-5.5703,-5.5703,-5.5703,-5.5703,-5.5703,-5.5703,-5.5703,-5.5703,-5.5703,-5.5703,-5.5703,-5.5703,-5.5703,0.0,0.0,0.0,-5.3203,-5.2202,-5.0702,-5.0702,-5.0702,-5.0702,-5.0702,-5.0702,-5.0702,-5.0702,-5.0702,-5.0702,-5.0702,-5.0702,-5.0702,-5.0702,-5.0702,-5.0702,-5.0702,-5.0702,-5.0702,-5.0702,-5.0702,-5.0894,-5.1702,-5.1279,-5.0914,-5.1722,-5.126,-5.0702,-5.0702,-5.0702,-5.0702,-5.0702,-5.0702,-5.0702,-5.0702,-5.0702,-5.0702,-5.0702,-5.0702,-5.0702,-5.0702,-5.0702,-5.0702,-5.0702,-5.0702,-5.0702,-5.0702,-5.0702,-5.0504,-5.0116,-5.0483,-5.0504,-5.0116,-5.0504,-5.0702,-5.0702,-5.0313,-5.0111,-5.0092,-4.9692,-4.9522,-4.8705,-5.0055,-5.1109,-5.0065,-4.9211,-4.8369,-4.7347,0.0,-4.5643,-4.5605,-4.5586,-4.5586,-4.5586,-4.5586,-4.5797,-4.6394,-4.649,0.0,0.0,0.0,0.0,0.0,0.0,0.0,0.0,0.0,0.0,0.0,0.0,0.0,-5.6992,-5.6165,-5.5703,-5.5703,-5.5703,-5.5703,-5.5703,-5.5703,-5.5703,-5.5703,-5.5703,-5.5703,-5.5703,-5.5703,-5.5703,0.0,0.0,0.0,0.0,-5.3203,-5.2202,-5.0702,-5.0702,-5.0702,-5.0702,-5.0702,-5.0702,-5.0702,-5.0702,-5.0702,-5.0702,-5.0702,-5.0702,-5.0702,-5.0702,-5.0702,-5.0702,-5.0702,-5.0702,-5.0702,-5.0702,-5.0702,-5.076,-5.101,-5.0894,-5.0914,-5.1741,-5.1702,-5.1529,-5.1529,-5.1529,-5.1356,-5.0779,-5.0702,-5.0702,-5.0702,-5.0702,-5.0894,-5.1452,-5.1264,-5.1342,-5.1911,-5.1713,-5.1307,-5.0759,-5.0702,-5.0565,-5.0313,-5.0294,-5.0249,-5.0111,-5.0206,-5.0358,-5.0504,-5.0377,-5.0294,-5.0272,-4.9898,-4.9561,-4.9295,-4.9139,-4.893,0.0,-4.8314,-4.9201,-4.8411,-4.7931,0.0,0.0,0.0,-4.5586,-4.5586,-4.5586,-4.5586,-4.5586,-4.5586,-4.5778,-4.6317,-4.6701,0.0,0.0,0.0,0.0,0.0,0.0,0.0,0.0,0.0,0.0,0.0,0.0,0.0,-5.6511,-5.5992,-5.5703,-5.5703,-5.5703,-5.5703,-5.5703,-5.5703,-5.5703,-5.5703,-5.5703,-5.5703,-5.5684,-5.5395,-5.5415,0.0,0.0,0.0,0.0,-5.2856,-5.1914,-5.0702,-5.0702,-5.0702,-5.0702,-5.0702,-5.0702,-5.0702,-5.0702,-5.0702,-5.0702,-5.0702,-5.0702,-5.0702,-5.0702,-5.0702,-5.0702,-5.0702,-5.0702,-5.076,-5.1068,-5.1144,-5.1318,-5.1972,-5.1875,-5.1875,-5.2702,-5.2626,-5.2299,-5.1972,-5.1914,-5.1645,-5.0837,-5.0702,-5.0663,-5.0483,-5.0854,-5.1278,-5.1634,-5.1871,-5.2226,-5.2781,-5.2546,-5.2196,-5.1702,-5.1197,-5.0747,-5.0355,-5.0336,-5.0183,-4.9898,-5.0019,-5.0068,-5.0024,-4.9924,-4.9853,-4.9853,-4.9475,-4.9062,-4.8657,-4.8657,-4.855,0.0,0.0,0.0,0.0,0.0,0.0,0.0,0.0,0.0,-4.5586,-4.5586,-4.5605,-4.5682,-4.5682,-4.572,-4.5836,-4.6547,0.0,0.0,0.0,0.0,0.0,0.0,0.0,0.0,0.0,0.0,0.0,0.0,0.0,-5.5703,-5.5703,-5.5703,-5.5703,-5.5703,-5.5703,-5.5703,-5.5703,-5.5703,-5.5703,-5.5703,-5.5703,-5.5665,-5.4876,-5.4914,0.0,0.0,0.0,0.0,-5.2241,-5.1433,-5.0702,-5.0702,-5.0702,-5.0702,-5.0702,-5.0702,-5.0702,-5.0702,-5.0702,-5.0702,-5.0702,-5.0702,-5.0702,-5.0702,-5.0702,-5.0702,-5.0702,-5.0702,-5.0894,-5.1702,-5.1875,-5.2241,-5.3914,-5.3645,-5.326,-5.4126,-5.3722,-5.2972,-5.2164,-5.1991,-5.1741,-5.0914,-5.0741,-5.0584,-5.0278,-5.119,-5.1811,-5.1563,-5.251,-5.3217,-5.3294,-5.3231,-5.319,-5.3135,-5.2088,-5.1243,-5.0835,-5.0777,-5.0444,-4.9663,-4.9914,-4.9787,-4.9131,-4.9434,-4.9634,-4.9604,-4.9174,-4.875,-4.8398,-4.8398,-4.8398,-4.5586,0.0,-4.5855,-4.5643,0.0,0.0,0.0,0.0,0.0,0.0,0.0,0.0,0.0,0.0,0.0,0.0,0.0,0.0,0.0,0.0,0.0,0.0,0.0,0.0,0.0,0.0,0.0,0.0,0.0,-5.5703,-5.5703,-5.5703,-5.5703,-5.5703,-5.5703,-5.5703,-5.5703,-5.5703,-5.5703,-5.5703,-5.5703,-5.5703,-5.5665,-5.4876,-5.4607,0.0,0.0,0.0,-5.2202,-5.1991,-5.1433,-5.0702,-5.0702,-5.0702,-5.0702,-5.0702,-5.0702,-5.0702,-5.0702,-5.0702,-5.0702,-5.0702,-5.0702,-5.0702,-5.0702,-5.0702,-5.0702,-5.0702,-5.0702,-5.0894,-5.1702,-5.1433,-5.1241,-5.2279,-5.1875,-5.151,-5.2337,-5.2876,-5.3145,-5.2933,-5.2895,-5.2626,-5.1779,-5.1106,-5.0875,-5.141,-5.172,-5.2355,-5.3599,-5.3448,-5.3471,-5.4116,-5.359,-5.3048,-5.27,-5.2736,-5.246,-5.1763,-5.167,-5.1469,-5.0897,-5.038,-5.044,-5.1168,-5.0979,-5.0761,-5.049,-4.9767,-4.9377,-4.9279,-4.9279,-4.9279,-4.5586,-4.5586,-4.5586,-4.5586,-4.5586,-4.5586,0.0,0.0,0.0,0.0,0.0,0.0,0.0,0.0,0.0,0.0,0.0,0.0,0.0,0.0,0.0,0.0,0.0,0.0,0.0,0.0,0.0,0.0,0.0,-5.5703,-5.5703,-5.5703,-5.5703,-5.5703,-5.5703,-5.5703,-5.5703,-5.5318,-5.5318,-5.5703,-5.5318,-5.5145,-5.5126,-5.428,-5.3895,0.0,0.0,0.0,-5.1875,-5.151,-5.1087,-5.0702,-5.0702,-5.0702,-5.0702,-5.0702,-5.0702,-5.0702,-5.0702,-5.0702,-5.0702,-5.0702,-5.0702,-5.0702,-5.0702,-5.0702,-5.0702,-5.0702,-5.0702,-5.0894,-5.1702,-5.1587,-5.1452,-5.2299,-5.2164,-5.2087,-5.2914,-5.3145,-5.3203,-5.3203,-5.2876,-5.2452,-5.1991,-5.1548,-5.141,-5.1882,-5.2413,-5.2987,-5.3536,-5.3732,-5.3994,-5.4446,-5.4086,-5.3683,-5.3447,-5.3661,-5.3278,-5.2013,-5.1944,-5.1756,-5.1337,-5.0873,-5.0908,-5.1409,-5.1195,-5.0986,-5.0802,-5.0362,-5.0141,-5.0141,-5.0141,-5.0141,-4.5586,-4.5586,-4.5586,-4.5586,-4.5586,-4.5586,0.0,0.0,0.0,0.0,0.0,0.0,0.0,0.0,0.0,0.0,0.0,0.0,0.0,0.0,0.0,0.0,0.0,0.0,0.0,0.0,0.0,0.0,0.0,-5.5703,-5.5703,-5.5703,-5.5703,-5.5703,-5.5703,-5.5703,-5.5703,-5.4895,-5.4838,-5.5511,-5.4684,-5.4376,-5.4472,-5.3453,-5.301,-5.2914,0.0,0.0,-5.1664,-5.0971,-5.0702,-5.0702,-5.0702,-5.0702,-5.0702,-5.0702,-5.0702,-5.0702,-5.0702,-5.0702,-5.0702,-5.0702,-5.0702,-5.0702,-5.0702,-5.0779,-5.0875,-5.0875,-5.0779,-5.0894,-5.1702,-5.1818,-5.1972,-5.2972,-5.3106,-5.3241,-5.4107,-5.3837,-5.3374,-5.3313,-5.2717,-5.2178,-5.2116,-5.1979,-5.1973,-5.2141,-5.3035,-5.3499,-5.2947,-5.3789,-5.4387,-5.4387,-5.434,-5.4307,-5.4307,-5.4307,-5.3654,-5.2175,-5.2145,-5.1959,-5.1453,-5.1528,-5.1398,-5.0986,-5.1096,-5.1169,-5.1169,-5.1041,-5.0986,-5.0986,-5.0986,-5.0986,-4.5586,-4.5586,-4.5586,-4.5586,-4.5586,-4.5586,0.0,0.0,0.0,0.0,0.0,0.0,0.0,0.0,0.0,0.0,0.0,0.0,0.0,0.0,0.0,0.0,0.0,0.0,0.0,0.0,0.0,0.0,0.0,-5.5703,-5.5703,-5.5703,-5.5703,-5.5703,-5.5703,-5.5703,-5.5703,-5.4895,-5.4549,-5.4664,-5.3818,-5.3799,-5.4453,-5.2837,-5.2106,-5.2049,0.0,-5.076,-5.0856,-5.0741,-5.0702,-5.0702,-5.0702,-5.0702,-5.0702,-5.0702,-5.0702,-5.0702,-5.0702,-5.0702,-5.0702,-5.0702,-5.0702,-5.0702,-5.0702,-5.1183,-5.1722,-5.1722,-5.1221,-5.0894,-5.1702,-5.1395,-5.1279,-5.2837,-5.2645,-5.2337,-5.3222,-5.3876,-5.4197,-5.3804,-5.3595,-5.3403,-5.3072,-5.2389,-5.2141,-5.2918,-5.3176,-5.3515,-5.4137,-5.4043,-5.3924,-5.3924,-5.3604,-5.34,-5.34,-5.34,-5.3308,-5.3009,-5.3311,-5.3033,-5.1956,-5.2559,-5.2573,-5.183,-5.2491,-5.2839,-5.2839,-5.2142,-5.1811,-5.1811,-5.1811,-5.1811,-4.5586,-4.5586,-4.5701,-4.6182,-4.6297,-4.6297,0.0,0.0,0.0,0.0,0.0,0.0,0.0,0.0,0.0,0.0,0.0,0.0,0.0,0.0,0.0,0.0,0.0,0.0,0.0,0.0,0.0,0.0,0.0,0.0,-5.5703,-5.5703,-5.5491,-5.5068,-5.5049,-5.4607,-5.3664,-5.328,-5.3568,-5.4472,-5.3145,-5.2722,-5.3068,-5.2279,-5.1664,-5.1221,0.0,-5.0702,-5.0702,-5.0702,-5.0702,-5.0702,-5.0702,-5.0702,-5.0702,-5.0702,-5.0971,-5.1356,-5.1356,-5.1664,-5.2049,-5.2049,-5.2049,-5.2049,-5.2049,-5.2318,-5.2606,-5.2606,-5.2337,-5.2145,-5.251,-5.2337,-5.2241,-5.3029,-5.2895,-5.2777,-5.3388,-5.3498,-5.3479,-5.349,-5.3101,-5.2853,-5.3145,-5.2868,-5.2793,-5.3425,-5.3503,-5.3601,-5.3758,-5.3623,-5.3484,-5.3484,-5.3295,-5.3206,-5.3206,-5.3206,-5.3206,-5.3206,-5.3359,-5.3216,-5.2656,-5.3004,-5.3041,-5.2656,-5.3023,-5.3206,-5.3206,-5.2839,-5.2656,-5.2656,-5.2656,-5.2656,-4.5586,-4.5586,-4.5759,-4.6432,0.0,0.0,0.0,0.0,0.0,0.0,0.0,0.0,0.0,0.0,0.0,0.0,0.0,0.0,0.0,0.0,0.0,0.0,0.0,0.0,0.0,0.0,0.0,0.0,0.0,0.0,-5.5703,-5.5511,-5.5145,-5.4511,-5.4299,-5.3549,-5.2222,-5.201,-5.2568,-5.3876,-5.2356,-5.1722,-5.1895,-5.1702,-5.1279,-5.0702,-5.0702,-5.0702,-5.0702,-5.0702,-5.0702,-5.0702,-5.0702,-5.0702,-5.0721,-5.0914,-5.1375,-5.1933,-5.2145,-5.2645,-5.3203,-5.3203,-5.3203,-5.3203,-5.3203,-5.3337,-5.347,-5.3368,-5.3481,-5.3558,-5.3155,-5.2996,-5.2947,-5.3139,-5.3196,-5.3336,-5.3846,-5.3487,-5.3101,-5.3314,-5.2803,-5.2526,-5.3103,-5.3181,-5.3302,-5.359,-5.3663,-5.3545,-5.323,-5.3206,-5.3206,-5.3206,-5.3206,-5.3206,-5.3206,-5.3206,-5.3206,-5.3206,-5.3206,-5.3206,-5.3206,-5.3206,-5.3206,-5.3206,-5.3206,-5.3206,-5.3206,-5.3206,-5.3206,-5.3206,-5.3206,-5.3206,-4.5586,-4.5586,-4.5605,-4.5682,0.0,0.0,0.0,0.0,0.0,0.0,0.0,0.0,0.0,0.0,0.0,0.0,0.0,0.0,0.0,0.0,0.0,0.0,0.0,0.0,0.0,0.0,0.0,0.0,0.0,0.0,-5.5703,-5.4991,-5.4549,-5.4491,-5.3722,-5.3241,-5.3106,-5.2299,-5.1972,-5.2087,-5.1202,-5.1183,-5.1875,-5.1125,-5.0741,-5.0702,-5.0702,-5.0702,-5.0702,-5.0702,-5.0702,-5.0702,-5.0702,-5.0702,-5.0779,-5.1548,-5.1856,-5.2029,-5.2837,-5.3145,-5.3203,-5.3203,-5.3203,-5.3203,-5.3203,-5.376,-5.4312,-5.3899,-5.4332,-5.46,-5.3054,-5.2313,-5.2194,-5.3017,-5.3206,-5.3433,-5.4252,-5.4384,-5.4237,-5.3848,-5.3702,-5.3553,-5.3267,-5.318,-5.3198,-5.323,-5.323,-5.323,-5.3206,-5.3206,-5.3206,-5.3206,-5.3206,-5.3206,-5.3206,-5.3206,-5.3206,-5.3206,-5.3206,-5.3206,-5.3206,-5.3206,-5.3206,-5.3206,-5.3206,-5.3206,-5.3206,-5.3206,-5.3206,-5.3206,-5.3206,-5.3206,-4.5586,-4.5586,-4.572,-4.6278,0.0,0.0,0.0,0.0,0.0,0.0,0.0,0.0,0.0,0.0,0.0,0.0,0.0,0.0,0.0,0.0,0.0,0.0,0.0,0.0,0.0,0.0,0.0,0.0,0.0,0.0,-5.4164,-5.3857,-5.3433,-5.2895,-5.2568,-5.2145,-5.1645,-5.1318,-5.1144,-5.1144,-5.0837,-5.0856,-5.1164,-5.1356,-5.1452,-5.1491,-5.2029,-5.1952,-5.1452,-5.1452,-5.1144,-5.0741,-5.1241,-5.1779,-5.2299,-5.2606,-5.3049,-5.3568,-5.3895,-5.4337,-5.4741,-5.4741,-5.4741,-5.4699,-5.446,-5.4599,-5.4778,-5.4363,-5.4454,-5.4598,-5.3943,-5.3634,-5.3585,-5.3937,-5.4012,-5.4011,-5.4062,-5.4048,-5.3924,-5.3524,-5.3422,-5.34,-5.3248,-5.3206,-5.3206,-5.3206,-5.3206,-5.3206,-5.3206,-5.3206,-5.3206,-5.3206,-5.3206,-5.3206,-5.3206,-5.3206,-5.3206,-5.3206,-5.3206,-5.3206,-5.3206,-5.3206,-5.3206,-5.3206,-5.3206,-5.3206,-5.3206,-5.3206,-5.3206,-5.3206,-5.3206,-5.3206,-4.5586,-4.5586,-4.5797,0.0,0.0,0.0,0.0,0.0,0.0,0.0,0.0,0.0,0.0,0.0,0.0,0.0,0.0,0.0,0.0,0.0,0.0,0.0,0.0,0.0,0.0,0.0,0.0,0.0,0.0,0.0,0.0,-5.2953,-5.2529,-5.1933,-5.1664,-5.126,-5.0702,-5.0702,-5.0702,-5.0702,-5.0702,-5.0702,-5.0721,-5.1529,-5.1914,-5.1952,-5.2818,-5.2722,-5.1933,-5.2202,-5.1991,-5.151,-5.1798,-5.2433,-5.3241,-5.351,-5.3991,-5.453,-5.478,-5.5241,-5.5703,-5.5703,-5.5703,-5.564,-5.5356,-5.5282,-5.5212,-5.479,-5.4597,-5.4471,-5.4322,-5.4288,-5.4274,-5.4102,-5.4086,-5.4015,-5.3663,-5.3604,-5.3545,-5.323,-5.3206,-5.3206,-5.3206,-5.3206,-5.3206,-5.3206,-5.3206,-5.3206,-5.3206,-5.3206,-5.3206,-5.3206,-5.3206,-5.3206,-5.3206,-5.3206,-5.3206,-5.3206,-5.3206,-5.3206,-5.3206,-5.3206,-5.3206,-5.3206,-5.3206,-5.3206,-5.3206,-5.3206,-5.3206,-5.3206,-5.3206,-5.3206,-4.5586,-4.5605,0.0,0.0,0.0,0.0,0.0,0.0,0.0,0.0,0.0,0.0,0.0,0.0,0.0,0.0,0.0,0.0,0.0,0.0,0.0,0.0,0.0,0.0,0.0,0.0,0.0,0.0,0.0,0.0,0.0,-5.2375,-5.1895,-5.1895,-5.1125,-5.0702,-5.0702,-5.0702,-5.0702,-5.0702,-5.0702,-5.0702,-5.0721,-5.1529,-5.1914,-5.1952,-5.2818,-5.2722,-5.1991,-5.2837,-5.3203,-5.3126,-5.226,-5.2472,-5.3337,-5.4184,-5.4511,-5.4626,-5.5415,-5.5703,-5.5703,-5.5703,-5.5703,-5.5703,-5.5703,-5.5684,-5.5599,-5.5212,-5.479,-5.4387,-5.3924,-5.3814,-5.3683,-5.3314,-5.3206,-5.3206,-5.3206,-5.3206,-5.3206,-5.3206,-5.3206,-5.3206,-5.3206,-5.3206,-5.3206,-5.3206,-5.3206,-5.3206,-5.3206,-5.3206,-5.3206,-5.3206,-5.3206,-5.3206,-5.3206,-5.3206,-5.3206,-5.3206,-5.3206,-5.3206,-5.3206,-5.3206,-5.3206,-5.3206,-5.3206,-5.3206,-5.3206,-5.3206,-5.3206,-5.3206,-5.3206,-5.3206,-4.5586,0.0,0.0,0.0,0.0,0.0,0.0,0.0,0.0,0.0,0.0,0.0,0.0,0.0,0.0,0.0,0.0,0.0,0.0,0.0,0.0,0.0,0.0,0.0,0.0,0.0,0.0,0.0,0.0,0.0,0.0,-5.1202,-5.1048,-5.1048,-5.0818,-5.0702,-5.0702,-5.0702,-5.0702,-5.0702,-5.0702,-5.0702,-5.0721,-5.1529,-5.1914,-5.1952,-5.2818,-5.3049,-5.2837,-5.3087,-5.3568,-5.4087,-5.3837,-5.4222,-5.4991,-5.5241,-5.5338,-5.5376,-5.5607,-5.5703,-5.5703,-5.5703,-5.5703,-5.564,-5.5356,-5.5282,-5.5115,-5.4382,-5.4355,-5.434,-5.3584,-5.3604,-5.3683,-5.3314,-5.3206,-5.3206,-5.3206,-5.3206,-5.3206,-5.3206,-5.3206,-5.3206,-5.3206,-5.3206,-5.3206,-5.3206,-5.3206,-5.3206,-5.3206,-5.3206,-5.3206,-5.3206,-5.3206,-5.3206,-5.3206,-5.3206,-5.3206,-5.3206,-5.3206,-5.3206,-5.3206,-5.3206,-5.3206,-5.3206,-5.3206,-5.3206,-5.3206,-5.3206,-5.3206,-5.3206,-5.3206,-5.3206,-4.6009,0.0,0.0,0.0,0.0,0.0,0.0,0.0,0.0,0.0,0.0,0.0,0.0,0.0,0.0,0.0,0.0,0.0,0.0,0.0,0.0,0.0,0.0,0.0,0.0,0.0,0.0,0.0,0.0,0.0,0.0,-5.0702,-5.0702,-5.0702,-5.0702,-5.0702,-5.0702,-5.0702,-5.0702,-5.0702,-5.0702,-5.0702,-5.0721,-5.1529,-5.1914,-5.1933,-5.2472,-5.2876,-5.3164,-5.2837,-5.3395,-5.4491,-5.4491,-5.4991,-5.5703,-5.5703,-5.5703,-5.5703,-5.5703,-5.5703,-5.5703,-5.5703,-5.5703,-5.5662,-5.5423,-5.5212,-5.4988,-5.4446,-5.427,-5.4102,-5.3584,-5.3505,-5.3505,-5.3272,-5.3206,-5.3206,-5.3206,-5.3206,-5.3206,-5.3206,-5.3206,-5.3206,-5.3206,-5.3206,-5.3206,-5.3206,-5.3206,-5.3206,-5.3206,-5.3206,-5.3206,-5.3206,-5.3206,-5.3206,-5.3206,-5.3206,-5.3206,-5.3206,-5.3206,-5.3206,-5.3206,-5.3206,-5.3206,-5.3206,-5.3206,-5.3206,-5.3206,-5.3206,-5.3206,-5.3206,-5.3206,-5.3206,0.0,0.0,0.0,0.0,0.0,0.0,0.0,0.0,0.0,0.0,0.0,0.0,0.0,0.0,0.0,0.0,0.0,0.0,0.0,0.0,0.0,0.0,0.0,0.0,0.0,0.0,0.0,0.0,0.0,0.0,0.0,-5.0702,-5.0702,-5.0702,-5.0702,-5.0702,-5.0702,-5.0702,-5.0702,-5.0702,-5.0702,-5.0702,-5.0721,-5.1471,-5.1798,-5.1798,-5.1875,-5.2356,-5.3029,-5.2318,-5.301,-5.4491,-5.4491,-5.4991,-5.5703,-5.5703,-5.5703,-5.5703,-5.5703,-5.5703,-5.5703,-5.5703,-5.5703,-5.5684,-5.5662,-5.5399,-5.5088,-5.4988,-5.4414,-5.3777,-5.374,-5.3484,-5.3206,-5.3206,-5.3206,-5.3206,-5.3206,-5.3206,-5.3206,-5.3206,-5.3206,-5.3206,-5.3206,-5.3206,-5.3206,-5.3206,-5.3206,-5.3206,-5.3206,-5.3206,-5.3206,-5.3206,-5.3206,-5.3206,-5.3206,-5.3206,-5.3206,-5.3206,-5.3206,-5.3206,-5.3206,-5.3206,-5.3206,-5.3206,-5.3206,-5.3206,-5.3206,-5.3206,-5.3206,-5.3206,-5.3206,-5.3206,0.0,0.0,0.0,0.0,0.0,0.0,0.0,0.0,0.0,0.0,0.0,0.0,0.0,0.0,0.0,0.0,0.0,0.0,0.0,0.0,0.0,0.0,0.0,0.0,0.0,0.0,0.0,0.0,0.0,0.0,-5.0702,-5.0702,-5.0702,-5.0702,-5.0702,-5.0702,-5.0702,-5.0702,-5.0702,0.0,-5.0702,-5.0702,-5.0702,-5.0875,-5.0952,-5.0991,-5.1625,-5.201,-5.2222,-5.2722,-5.3549,-5.4491,-5.4491,-5.4991,-5.5703,-5.5703,-5.5703,-5.5703,-5.5703,-5.5703,-5.5703,-5.5703,-5.5703,-5.564,-5.5331,-5.516,-5.496,-5.4251,-5.3941,-5.372,-5.3422,-5.3272,-5.3206,-5.3206,-5.3206,-5.3206,-5.3206,-5.3206,-5.3206,-5.3206,-5.3206,-5.3206,-5.3206,-5.3206,-5.3206,-5.3206,-5.3206,-5.3206,-5.3206,-5.3206,-5.3206,-5.3206,-5.3206,-5.3206,-5.3206,-5.3206,-5.3206,-5.3206,-5.3206,-5.3206,-5.3206,-5.3206,-5.3206,-5.3206,-5.3206,-5.3206,-5.3206,-5.3206,-5.3206,-5.3206,-5.3206,-5.3206,0.0,0.0,0.0,0.0,0.0,0.0,0.0,0.0,0.0,0.0,0.0,0.0,0.0,0.0,0.0,0.0,0.0,0.0,0.0,0.0,0.0,0.0,0.0,0.0,0.0,0.0,0.0,0.0,0.0,-5.0702,-5.0702,-5.0702,-5.0702,-5.0702,-5.0702,-5.0702,-5.0702,-5.0702,-5.0702,-5.0702,-5.0702,-5.0702,-5.0702,-5.0702,-5.0702,-5.0721,-5.1144,-5.1337,-5.1395,-5.2241,-5.3087,-5.3914,-5.4337,-5.4991,-5.5703,-5.5703,-5.5703,-5.5703,-5.5703,-5.5703,-5.5703,-5.5703,-5.5577,-5.5356,-5.516,-5.4979,-5.4731,-5.4255,-5.3977,-5.374,-5.3545,-5.3359,-5.3206,-5.3206,-5.3206,-5.3206,-5.3206,-5.3206,-5.3206,-5.3206,-5.3206,-5.3206,-5.3206,-5.3206,-5.3206,-5.3206,-5.3206,-5.3206,-5.3206,-5.3206,-5.3206,-5.3206,-5.3206,-5.3206,-5.3206,-5.3206,-5.3206,-5.3206,-5.3206,-5.3206,-5.3206,-5.3206,-5.3206,-5.3206,-5.3206,-5.3206,-5.3206,-5.3206,-5.3206,-5.3206,-5.3206,-5.3206,0.0,0.0,0.0,0.0,0.0,0.0,0.0,0.0,0.0,0.0,0.0,0.0,0.0,0.0,0.0,0.0,0.0,0.0,0.0,0.0,0.0,0.0,0.0,0.0,0.0,0.0,0.0,0.0,0.0,-5.0702,-5.0702,-5.0702,-5.0702,-5.0702,-5.0702,-5.0702,-5.0702,-5.0702,-5.0702,-5.0702,-5.0702,-5.0702,-5.0702,-5.0702,-5.0702,-5.0702,-5.0702,-5.0702,-5.0741,-5.1414,-5.2299,-5.328,-5.3991,-5.4857,-5.5703,-5.5703,-5.5703,-5.5703,-5.5703,-5.5703,-5.5703,-5.5703,-5.547,-5.5186,-5.5134,-5.4867,-5.4579,-5.442,-5.4083,-5.3777,-5.372,-5.3444,-5.3206,-5.3206,-5.3206,-5.3206,-5.3206,-5.3206,-5.3206,-5.3206,-5.3206,-5.3206,-5.3206,-5.3206,-5.3206,-5.3206,-5.3335,-5.3427,-5.3427,-5.3427,-5.3427,-5.3427,-5.3298,-5.3206,-5.3206,-5.3335,-5.3427,-5.3427,-5.3427,-5.3427,-5.3427,-5.328,-5.3206,-5.3206,-5.3206,-5.3206,-5.3206,-5.3206,-5.3206,-5.3206,-5.3206,-5.3206,0.0,0.0,0.0,0.0,0.0,0.0,0.0,0.0,0.0,0.0,0.0,0.0,0.0,0.0,0.0,0.0,0.0,0.0,0.0,0.0,0.0,0.0,0.0,0.0,0.0,0.0,0.0,0.0,-5.0702,-5.0702,-5.0702,-5.0702,-5.0702,-5.0702,-5.0702,-5.0702,-5.0702,-5.0702,-5.0702,-5.0702,-5.0702,-5.0702,-5.0702,-5.0702,-5.0702,-5.0702,-5.0702,-5.0702,-5.0702,-5.0818,-5.1779,-5.3222,-5.3337,-5.4337,-5.5703,-5.5703,-5.5703,-5.5703,-5.5703,-5.5703,-5.5703,-5.5703,-5.5662,-5.5535,-5.5212,-5.5061,-5.4876,-5.4099,-5.3851,-5.372,-5.3359,-5.323,-5.3206,-5.3206,-5.3206,-5.3206,-5.3206,-5.3206,-5.3206,-5.3206,-5.3206,-5.3206,-5.3206,-5.3206,-5.3206,-5.3206,-5.3794,-5.4234,-5.4234,-5.4234,-5.4234,-5.4234,-5.3628,-5.3206,-5.3206,-5.3849,-5.4234,-5.4234,-5.4234,-5.4234,-5.4234,-5.3573,-5.3206,-5.3206,-5.3206,-5.3206,-5.3206,-5.3206,-5.3206,-5.3206,-5.3206,-5.3206,0.0,0.0,0.0,0.0,0.0,0.0,0.0,0.0,0.0,0.0,0.0,0.0,0.0,0.0,0.0,0.0,0.0,0.0,0.0,0.0,0.0,0.0,0.0,0.0,0.0,0.0,0.0,0.0,-5.0702,-5.0702,-5.0702,-5.0702,-5.0702,-5.0702,-5.0702,-5.0702,-5.0702,-5.0702,-5.0702,-5.0702,-5.0702,-5.0702,-5.0702,-5.0702,-5.0702,-5.0721,-5.1183,-5.1375,-5.1414,-5.1895,-5.2818,-5.3933,-5.3933,-5.4645,-5.5703,-5.5703,-5.5703,-5.5703,-5.5703,-5.5703,-5.5703,-5.5703,-5.5399,-5.5007,-5.4838,-5.4591,-5.4284,-5.3905,-5.3814,-5.374,-5.3565,-5.3359,-5.3206,-5.3206,-5.3206,-5.3206,-5.3206,-5.3206,-5.3206,-5.3206,-5.3206,-5.3206,-5.3206,-5.3573,-5.3867,-5.3867,-5.4564,-5.506,-5.506,-5.506,-5.506,-5.506,-5.4748,-5.4546,-5.4546,-5.4858,-5.506,-5.506,-5.506,-5.506,-5.506,-5.473,-5.4546,-5.4546,-5.3665,-5.3206,-5.3206,-5.3206,-5.3206,-5.3206,-5.3206,-5.3206,0.0,0.0,0.0,0.0,0.0,0.0,0.0,0.0,0.0,0.0,0.0,0.0,0.0,0.0,0.0,0.0,0.0,0.0,0.0,0.0,0.0,0.0,0.0,0.0,0.0,0.0,0.0,0.0,-5.0702,-5.0702,-5.0702,-5.0702,-5.0702,-5.0702,-5.0702,-5.0702,-5.0702,-5.0702,-5.0702,-5.0702,-5.0702,-5.0702,-5.0702,-5.0702,-5.0702,-5.0741,-5.1548,-5.1914,-5.1972,-5.2837,-5.3703,-5.4491,-5.4491,-5.4991,-5.5703,-5.5703,-5.5703,-5.5703,-5.5703,-5.5703,-5.5684,-5.5577,-5.516,-5.4609,-5.4535,-5.4255,-5.3941,-5.3832,-5.3814,-5.3777,-5.3683,-5.3404,-5.3206,-5.3206,-5.3206,-5.3206,-5.3206,-5.3206,-5.3206,-5.3206,-5.3206,-5.3206,-5.3206,-5.3867,-5.4399,-5.4399,-5.5262,-5.5886,-5.5886,-5.5886,-5.5886,-5.5886,-5.5702,-5.5592,-5.5592,-5.5776,-5.5886,-5.5886,-5.5886,-5.5886,-5.5886,-5.5702,-5.5592,-5.5592,-5.4418,-5.372,-5.35,-5.3316,-5.3206,-5.3206,-5.3206,-5.3206,0.0,0.0,0.0,0.0,0.0,0.0,0.0,0.0,0.0,0.0,0.0,0.0,0.0,0.0,0.0,0.0,0.0,0.0,0.0,0.0,0.0,0.0,0.0,0.0,0.0,0.0,0.0,0.0,-5.0702,-5.0702,-5.0702,-5.0702,-5.0702,-5.0702,-5.0702,-5.0702,-5.0702,-5.0702,-5.0702,-5.0702,-5.0702,-5.0702,-5.0702,-5.0702,-5.0702,-5.0741,-5.1548,-5.1914,-5.1972,-5.2837,-5.3703,-5.4491,-5.4491,-5.4991,-5.5703,-5.5703,-5.5703,-5.5703,-5.5703,-5.5703,-5.564,-5.5256,-5.5088,-5.5007,-5.4628,-5.4503,-5.4355,-5.3924,-5.3814,-5.372,-5.3336,-5.3206,-5.3206,-5.3206,-5.3206,-5.3206,-5.3206,-5.3206,-5.3206,-5.3206,-5.3206,-5.3206,-5.3206,-5.3867,-5.4399,-5.4399,-5.5739,-5.6748,-5.6748,-5.6748,-5.6748,-5.6748,-5.6051,-5.5592,-5.5592,-5.6308,-5.6748,-5.6748,-5.6748,-5.6748,-5.6748,-5.5996,-5.5592,-5.5592,-5.55,-5.5097,-5.4344,-5.3573,-5.3206,-5.3206,-5.3206,-5.3206,0.0,0.0,0.0,0.0,0.0,0.0,0.0,0.0,0.0,0.0,0.0,0.0,0.0,0.0,0.0,0.0,0.0,0.0,0.0,0.0,0.0,0.0,0.0,0.0,0.0,0.0,0.0,0.0,0.0,-5.0702,-5.0702,-5.0702,-5.0702,-5.0702,-5.0702,-5.0702,-5.0702,-5.0702,-5.0702,-5.0702,-5.0702,-5.0702,-5.0702,-5.0702,-5.0702,-5.0779,-5.2145,-5.2741,-5.2837,-5.4222,-5.4991,-5.5261,-5.5261,-5.5453,-5.5703,-5.5703,-5.5703,-5.5703,-5.5703,-5.5512,-5.5282,-5.516,-5.4712,-5.4236,-5.4083,-5.387,-5.3623,-5.3444,-5.3422,-5.3381,-5.3248,-5.3206,-5.3335,-5.3849,-5.3592,-5.3482,-5.4528,-5.394,-5.3206,-5.3206,-5.3628,-5.3977,-5.3977,-5.5078,-5.5941,-5.5941,-5.6877,-5.7574,-5.7574,-5.7574,-5.7574,-5.7574,-5.7299,-5.7134,-5.7134,-5.7391,-5.7574,-5.7574,-5.7574,-5.7574,-5.7574,-5.7281,-5.7134,-5.7134,-5.6638,-5.5978,-5.517,-5.4876,-5.473,-5.473,-5.4216,-5.4252,0.0,0.0,0.0,0.0,0.0,0.0,0.0,0.0,0.0,0.0,0.0,0.0,0.0,0.0,0.0,0.0,0.0,0.0,0.0,0.0,0.0,0.0,0.0,0.0,0.0,0.0,0.0,0.0,0.0,0.0,-5.0702,-5.0702,-5.0702,-5.0702,-5.0702,-5.0702,-5.0702,-5.0702,-5.0702,-5.0702,-5.0702,-5.0702,-5.0702,-5.0702,-5.0837,-5.1183,-5.2444,-5.3078,-5.3337,-5.5011,-5.5703,-5.5703,-5.5535,-5.5489,-5.5489,-5.5331,-5.5306,-5.5306,-5.5306,-5.5115,-5.4876,-5.4712,-5.4251,-5.3777,-5.3624,-5.3422,-5.3206,-5.3206,-5.3206,-5.3206,-5.3206,-5.3206,-5.3408,-5.4216,-5.3995,-5.3977,-5.5299,-5.4546,-5.3683,-5.3959,-5.4436,-5.4803,-5.4803,-5.5904,-5.6804,-5.6804,-5.7483,-5.7997,-5.7997,-5.7997,-5.7997,-5.7997,-5.7997,-5.7997,-5.7997,-5.7997,-5.7997,-5.7997,-5.7997,-5.7997,-5.7997,-5.7997,-5.7997,-5.7997,-5.7483,-5.6932,-5.64,-5.5849,-5.5592,-5.5574,-5.5042,-5.5078,0.0,0.0,0.0,0.0,0.0,0.0,0.0,0.0,0.0,0.0,0.0,0.0,0.0,0.0,0.0,0.0,0.0,0.0,0.0,0.0,0.0,0.0,0.0,0.0,0.0,0.0,0.0,0.0,-5.0702,-5.0702,-5.0702,-5.0702,-5.0702,-5.0702,-5.0702,-5.0702,-5.0702,-5.0702,-5.0702,-5.0702,-5.0702,-5.0702,-5.0702,-5.0683,-5.1105,-5.1912,-5.2346,-5.2777,-5.3297,-5.497,-5.5662,-5.564,-5.5237,-5.5088,-5.5034,-5.464,-5.4503,-5.4503,-5.4503,-5.4503,-5.4387,-5.3941,-5.3777,-5.372,-5.3336,-5.3206,-5.3206,-5.3206,-5.3206,-5.3206,-5.3206,-5.3206,-5.3408,-5.4216,-5.4399,-5.4638,-5.5445,-5.5023,-5.4693,-5.5445,-5.5611,-5.5629,-5.5629,-5.6308,-5.684,-5.684,-5.7501,-5.7997,-5.7997,-5.7997,-5.7997,-5.7997,-5.7997,-5.7997,-5.7997,-5.7997,-5.7997,-5.7997,-5.7997,-5.7997,-5.7997,-5.7997,-5.7997,-5.7997,-5.7997,-5.7997,-5.7997,-5.6418,-5.5666,-5.5666,-5.5666,-5.5647,-4.5586,0.0,0.0,0.0,0.0,0.0,0.0,0.0,0.0,0.0,0.0,0.0,0.0,0.0,0.0,0.0,0.0,0.0,0.0,0.0,0.0,0.0,0.0,0.0,0.0,0.0,0.0,0.0,-5.0702,-5.0702,-5.0702,-5.0702,-5.0702,-5.0702,-5.0702,-5.0702,-5.0702,-5.0702,-5.0702,-5.0702,-5.0702,-5.0702,-5.0683,-5.0399,-5.0688,-5.1467,-5.1345,-5.1698,-5.2446,-5.4135,-5.4819,-5.4819,-5.4701,-5.4689,-5.464,-5.4535,-5.4503,-5.4503,-5.4503,-5.4288,-5.3977,-5.3851,-5.3604,-5.3359,-5.323,-5.3206,-5.3206,-5.3206,-5.3206,-5.3206,-5.3206,-5.3206,-5.3408,-5.4216,-5.4399,-5.4785,-5.618,-5.629,-5.6033,-5.5666,-5.6069,-5.6473,-5.6473,-5.7134,-5.7666,-5.7666,-5.785,-5.7997,-5.7997,-5.7997,-5.7997,-5.7997,-5.7997,-5.7997,-5.7997,-5.7997,-5.7997,-5.7997,-5.7997,-5.7997,-5.7997,-5.7997,-5.7997,-5.7997,-5.7997,-5.7997,-5.7997,-5.7538,-5.7336,-5.7336,-5.7336,-5.7024,0.0,0.0,0.0,0.0,0.0,0.0,-4.624,-4.6644,0.0,0.0,0.0,0.0,0.0,0.0,0.0,0.0,0.0,0.0,0.0,0.0,0.0,0.0,0.0,0.0,0.0,-5.0702,-5.0702,-5.0702,-5.0702,-5.0702,-5.0702,-5.0702,-5.0702,-5.0702,-5.0702,-5.0702,-5.0702,-5.0544,-5.0442,-5.0462,-5.0272,-5.0183,-5.0183,-4.9949,-5.0472,-5.1546,-5.0809,-5.1367,-5.2799,-5.3265,-5.3646,-5.3975,-5.4138,-5.4221,-5.4187,-5.4015,-5.3961,-5.3961,-5.3961,-5.3777,-5.3545,-5.3545,-5.3381,-5.3206,-5.3206,-5.3206,-5.3206,-5.3206,-5.3206,-5.3206,-5.3206,-5.3463,-5.3904,-5.4711,-5.5152,-5.5757,-5.7042,-5.7299,-5.7171,-5.6675,-5.6969,-5.7299,-5.7299,-5.7685,-5.7997,-5.7997,-5.7997,-5.7997,-5.7997,-5.7997,-5.7997,-5.7997,-5.7997,-5.7997,-5.7997,-5.7997,-5.7997,-5.7997,-5.7997,-5.7997,-5.7997,-5.7997,-5.7997,-5.7997,-5.7997,-5.7997,-5.7997,-5.7997,-5.7997,-5.7997,-5.7997,-5.7758,0.0,0.0,0.0,0.0,0.0,0.0,-4.5605,-4.6201,-4.6778,0.0,0.0,0.0,0.0,0.0,0.0,0.0,0.0,0.0,0.0,0.0,0.0,0.0,0.0,0.0,-5.0702,-5.0702,-5.0702,-5.0702,-5.0702,-5.0702,-5.0702,-5.0702,-5.0702,-5.0702,-5.0702,-5.0702,-5.0702,-5.0294,-5.0092,-5.0111,-4.9692,-4.9504,-4.9504,-4.9445,-5.0312,-5.1713,-5.0546,-5.1341,-5.3404,-5.2401,-5.2456,-5.3231,-5.3571,-5.372,-5.3683,-5.3318,-5.3206,-5.3206,-5.3206,-5.3206,-5.3206,-5.3206,-5.3206,-5.3206,-5.3206,-5.3206,-5.3206,-5.3206,-5.3206,-5.3206,-5.3206,-5.3739,-5.4454,-5.5152,-5.5941,-5.6748,-5.7556,-5.7795,-5.7886,-5.7978,-5.7997,-5.7997,-5.7997,-5.7997,-5.7997,-5.7997,-5.7997,-5.7997,-5.7997,-5.7997,-5.7997,-5.7997,-5.7997,-5.7997,-5.7997,-5.7997,-5.7997,-5.7997,-5.7997,-5.7997,-5.7997,-5.7997,-5.7997,-5.7997,-5.7997,-5.7997,-5.7997,-5.7997,-5.7997,-5.7997,-5.7997,-5.7997,0.0,0.0,0.0,0.0,0.0,0.0,-4.5759,-4.572,-4.6047,0.0,0.0,0.0,0.0,0.0,0.0,0.0,0.0,0.0,0.0,0.0,0.0,0.0,0.0,0.0,-5.0702,-5.0702,-5.0702,-5.0702,-5.0702,-5.0702,-5.0702,-5.0702,-5.0702,-5.0702,-5.0702,-5.0702,-5.0702,-5.0294,-5.0092,-5.0111,-4.9692,-4.9504,-4.9475,-4.9171,-4.9552,-5.0452,-4.9936,-5.0335,-5.1422,-5.1816,-5.2467,-5.3201,-5.3304,-5.3336,-5.3295,-5.3248,-5.3206,-5.3206,-5.3206,-5.3206,-5.3206,-5.3206,-5.3206,-5.3206,-5.3206,-5.3206,-5.3206,-5.3206,-5.3206,-5.3206,-5.3206,-5.3335,-5.3482,-5.3628,-5.4289,-5.5097,-5.5886,-5.6583,-5.7226,-5.7868,-5.7997,-5.7997,-5.7997,-5.7997,-5.7997,-5.7997,-5.7997,-5.7997,-5.7997,-5.7997,-5.7997,-5.7997,-5.7997,-5.7997,-5.7997,-5.7997,-5.7997,-5.7997,-5.7997,-5.7997,-5.7997,-5.7997,-5.7997,-5.7997,-5.7997,-5.7997,-5.7997,-5.7997,-5.7997,-5.7997,-5.7997,-5.7997,0.0,0.0,0.0,-4.7509,0.0,0.0,0.0,-4.5913,-4.572,-4.6163,0.0,0.0,0.0,0.0,0.0,0.0,0.0,0.0,0.0,0.0,0.0,0.0,0.0,0.0,-5.0702,-5.0702,-5.0702,-5.0702,-5.0504,-5.0483,-5.0683,-5.0504,-5.0399,-5.0399,-5.0399,-5.0294,-5.0092,-4.97,-4.9485,-4.9504,-4.9075,-4.8915,-4.8897,-4.8692,-4.9066,-4.9825,-4.9671,-5.027,-5.1426,-5.183,-5.2472,-5.3206,-5.3206,-5.3206,-5.3206,-5.3206,-5.3206,-5.3206,-5.3206,-5.3206,-5.3206,-5.3206,-5.3206,-5.3206,-5.3206,-5.3206,-5.3206,-5.3206,-5.3206,-5.3206,-5.3206,-5.3812,-5.4399,-5.4399,-5.5317,-5.6308,-5.6712,-5.7116,-5.7519,-5.7923,-5.7997,-5.7997,-5.7997,-5.7997,-5.7997,-5.7997,-5.7997,-5.7997,-5.7997,-5.7997,-5.7997,-5.7997,-5.7997,-5.7997,-5.7997,-5.7997,-5.7997,-5.7997,-5.7997,-5.7997,-5.7997,-5.7997,-5.7997,-5.7997,-5.7997,-5.7997,-5.7997,-5.7997,-5.7997,-5.7997,-5.7997,-5.7997,0.0,0.0,0.0,0.0,0.0,-4.7336,0.0,0.0,0.0,-4.5836,0.0,0.0,0.0,0.0,0.0,0.0,0.0,0.0,0.0,0.0,0.0,0.0,0.0,0.0,0.0,-5.0587,-5.0663,-5.0604,-5.0272,-5.0206,-5.0462,-5.0249,-5.0068,-4.9974,-5.0068,-4.9898,-4.9504,-4.9108,-4.8897,-4.8897,-4.8477,-4.8306,-4.8306,-4.8306,-4.8673,-4.9352,-4.9682,-5.0563,-5.1775,-5.2087,-5.2619,-5.3206,-5.3206,-5.3206,-5.3206,-5.3206,-5.3206,-5.3206,-5.3206,-5.3206,-5.3206,-5.3206,-5.3206,-5.3206,-5.3206,-5.3206,-5.3206,-5.3206,-5.3206,-5.3243,-5.339,-5.4399,-5.5409,-5.5556,-5.6583,-5.7538,-5.7538,-5.7666,-5.7776,-5.7776,-5.7886,-5.7997,-5.7997,-5.7997,-5.7997,-5.7997,-5.7997,-5.7997,-5.7997,-5.7997,-5.7997,-5.7997,-5.7997,-5.7997,-5.7997,-5.7997,-5.7997,-5.7997,-5.7997,-5.7997,-5.7997,-5.7997,-5.7997,-5.7997,-5.7997,-5.7997,-5.7997,-5.7997,-5.7997,-5.7997,-5.7997,-5.7997,0.0,0.0,0.0,0.0,-4.9183,0.0,0.0,0.0,-4.6759,-4.6759,0.0,0.0,0.0,0.0,0.0,0.0,0.0,0.0,0.0,0.0,0.0,0.0,0.0,0.0,0.0,-5.024,-5.0544,-5.0183,-5.0135,-4.9949,-4.9645,-4.9924,-4.9949,-4.9561,-4.9924,-4.9898,-4.9504,-4.9108,-4.8897,-4.8897,-4.8477,-4.8306,-4.8306,-4.8306,-4.8361,-4.8526,-5.0013,-5.0765,-5.1059,-5.2491,-5.3133,-5.3206,-5.3206,-5.3206,-5.3206,-5.3206,-5.3206,-5.3206,-5.3206,-5.3206,-5.3206,-5.3206,-5.3206,-5.3206,-5.3206,-5.3206,-5.3206,-5.3206,-5.3206,-5.3371,-5.4087,-5.4399,-5.4711,-5.5427,-5.5721,-5.5868,-5.5868,-5.6436,-5.695,-5.695,-5.7519,-5.7997,-5.7997,-5.7997,-5.7997,-5.7997,-5.7997,-5.7997,-5.7997,-5.7997,-5.7997,-5.7997,-5.7997,-5.7997,-5.7997,-5.7997,-5.7997,-5.7997,-5.7997,-5.7997,-5.7997,-5.7997,-5.7997,-5.7997,-5.7997,-5.7997,-5.7997,-5.7997,-5.7997,-5.7997,-5.7997,-5.7997,0.0,0.0,0.0,0.0,0.0,0.0,-4.8933,0.0,-4.7605,0.0,0.0,0.0,0.0,0.0,0.0,0.0,-4.5669,0.0,0.0,0.0,0.0,0.0,0.0,0.0,0.0,0.0,0.0,0.0,-4.8872,-4.8935,-4.8815,-4.9181,-4.9326,-4.9171,-4.9326,-4.9202,-4.8813,-4.864,-4.8532,-4.8532,-4.8402,-4.8306,-4.8306,-4.8306,-4.8306,-4.8398,-5.0068,-5.0802,-5.093,-5.2546,-5.2931,-5.2509,-5.2509,-5.2803,-5.3206,-5.3206,-5.3206,-5.3206,-5.3206,-5.3206,-5.3206,-5.3206,-5.3206,-5.3206,-5.3206,-5.3206,-5.3206,-5.3206,-5.3206,-5.339,-5.4197,-5.4748,-5.5299,-5.6106,-5.6638,-5.6987,-5.6987,-5.7262,-5.7501,-5.7501,-5.7776,-5.7997,-5.7997,-5.7997,-5.7997,-5.7997,-5.7997,-5.7997,-5.7997,-5.7997,-5.7997,-5.7997,-5.7997,-5.7997,-5.7997,-5.7997,-5.7997,-5.7997,-5.7997,-5.7997,-5.7997,-5.7997,-5.7997,-5.7997,-5.7997,-5.7997,-5.7997,-5.7997,-5.7997,-5.7997,-5.7997,-5.7997,-5.0663,0.0,0.0,0.0,0.0,0.0,0.0,0.0,0.0,0.0,0.0,0.0,0.0,0.0,0.0,0.0,0.0,-4.5706,0.0,0.0,0.0,0.0,0.0,0.0,0.0,0.0,0.0,-4.7321,-4.7768,-4.8037,-4.7965,-4.8581,-4.8829,-4.8744,-4.8829,-4.8728,-4.8306,-4.8306,-4.8306,-4.8306,-4.8306,-4.8306,-4.8306,-4.8306,-4.8306,-4.8398,-5.0068,-5.0802,-5.093,-5.2546,-5.2729,-5.2013,-5.2234,-5.2546,-5.2876,-5.2876,-5.3023,-5.3206,-5.3206,-5.3206,-5.3206,-5.3206,-5.3206,-5.3206,-5.3206,-5.3206,-5.3206,-5.3206,-5.3371,-5.3665,-5.4252,-5.5152,-5.6069,-5.6657,-5.7409,-5.7941,-5.7721,-5.7831,-5.7923,-5.7703,-5.785,-5.7997,-5.7997,-5.7997,-5.7997,-5.7997,-5.7997,-5.7997,-5.7997,-5.7997,-5.7997,-5.7997,-5.7997,-5.7997,-5.7997,-5.7997,-5.7997,-5.7997,-5.7997,-5.7997,-5.7997,-5.7997,-5.7997,-5.7997,-5.7997,-5.7997,-5.7997,-5.7997,-5.7997,-5.7997,-5.7997,-5.7997,0.0,0.0,0.0,-5.0604,0.0,0.0,0.0,0.0,-4.9356,0.0,0.0,0.0,0.0,0.0,0.0,0.0,0.0,0.0,0.0,0.0,0.0,0.0,0.0,0.0,0.0,0.0,-4.6968,-4.657,-4.7252,-4.7556,-4.7169,-4.8248,-4.8709,-4.8326,-4.8692,-4.8728,-4.8306,-4.8306,-4.8306,-4.8306,-4.8306,-4.8306,-4.8306,-4.8306,-4.8306,-4.8398,-5.0068,-5.0802,-5.093,-5.2546,-5.2729,-5.2068,-5.2858,-5.2711,-5.2032,-5.2032,-5.2527,-5.3206,-5.3206,-5.3206,-5.3206,-5.3206,-5.3206,-5.3206,-5.3206,-5.3206,-5.3206,-5.3206,-5.3775,-5.4363,-5.4399,-5.5574,-5.6785,-5.6804,-5.7409,-5.7795,-5.7024,-5.7446,-5.7776,-5.6987,-5.7464,-5.7997,-5.7997,-5.7997,-5.7997,-5.7997,-5.7997,-5.7997,-5.7997,-5.7997,-5.7997,-5.7997,-5.7997,-5.7997,-5.7997,-5.7997,-5.7997,-5.7997,-5.7997,-5.7997,-5.7997,-5.7997,-5.7997,-5.7997,-5.7997,-5.7997,-5.7997,-5.7997,-5.7997,-5.7997,-5.7997,-5.7997,0.0,0.0,-5.0544,-5.0663,0.0,0.0,0.0,0.0,0.0,0.0,0.0,0.0,0.0,0.0,0.0,0.0,0.0,0.0,0.0,0.0,0.0,0.0,0.0,0.0,0.0,0.0,0.0,-4.5274,-4.5989,-4.6402,-4.6305,-4.7187,-4.7868,-4.8288,-4.8421,-4.8421,-4.8306,-4.8306,-4.8306,-4.8306,-4.8306,-4.8306,-4.8306,-4.8306,-4.8306,-4.8398,-5.0068,-5.0802,-5.093,-5.2546,-5.2729,-5.2013,-5.2289,-5.2234,-5.205,-5.2601,-5.2968,-5.3206,-5.3206,-5.3206,-5.3206,-5.3206,-5.3206,-5.3206,-5.3206,-5.3206,-5.3206,-5.3206,-5.3408,-5.3739,-5.4252,-5.5188,-5.6143,-5.6675,-5.7409,-5.7923,-5.7648,-5.7813,-5.7923,-5.7648,-5.7813,-5.7997,-5.7997,-5.7997,-5.7997,-5.7997,-5.7997,-5.7997,-5.7997,-5.7997,-5.7997,-5.7997,-5.7997,-5.7997,-5.7997,-5.7997,-5.7997,-5.7997,-5.7997,-5.7997,-5.7997,-5.7997,-5.7997,-5.7997,-5.7997,-5.7997,-5.7997,-5.7997,-5.7997,-5.7997,-5.7997,-5.7997,-5.023,-5.0183,0.0,-5.0249,-5.038,0.0,-5.0483,0.0,-5.0702,0.0,0.0,0.0,0.0,0.0,0.0,0.0,0.0,0.0,0.0,-4.4318,0.0,0.0,0.0,0.0,0.0,0.0,-4.4612,-4.4401,-4.5115,-4.5662,0.0,0.0,-4.748,-4.8269,-4.8306,-4.8306,-4.8306,-4.8306,-4.8306,-4.8306,-4.8306,-4.8306,-4.8306,-4.8306,-4.8306,-4.8398,-5.0068,-5.0802,-5.093,-5.2546,-5.2729,-5.2013,-5.2307,-5.2252,-5.205,-5.2582,-5.2968,-5.3206,-5.3206,-5.3206,-5.3206,-5.3206,-5.3206,-5.3206,-5.3206,-5.3206,-5.328,-5.3555,-5.383,-5.4179,-5.4693,-5.5629,-5.651,-5.6748,-5.7409,-5.7997,-5.7997,-5.7997,-5.7997,-5.7997,-5.7997,-5.7997,-5.7997,-5.7997,-5.7997,-5.7997,-5.7997,-5.7997,-5.7997,-5.7997,-5.7997,-5.7997,-5.7997,-5.7997,-5.7997,-5.7997,-5.7997,-5.7997,-5.7774,-5.7613,-5.7613,-5.7613,-5.7886,-5.8434,-5.8179,-5.8272,-5.8859,-5.8272,-5.7997,-5.7997,-5.7997,-5.7997]}]]